[[{"header":{"parameterUnit":"m.s-1","parameterCategory":1,"la1":30.6,"la2":29.2853,"lo1":-89.7004,"lo2":-87.6739,"dy":0.0162,"dx":0.0183,"nx":112,"ny":82,"refTime":"2024-06-28T06:00:00:Z","depth":0,"parameterNumber":2,"parameterNumberName":"U-component_of_WINDS"},"data":[0.0,0.0,0.0,0.0,0.0,0.0,0.0,0.0,0.0,0.0,0.0,0.0,0.0,0.0,0.0,0.0,0.0,0.0,0.0,0.0,0.0,0.0,0.0,0.0,0.0,0.0,0.0,0.0,0.0,0.0,0.0,0.0,0.0,0.0,0.0,0.0,0.0,0.0,0.0,0.0,0.0,0.0,0.0,0.0,0.0,0.0,0.0,0.0,0.0,0.0,0.0,0.0,0.0,0.0,0.0,0.0,0.0,0.0,0.0,0.0,0.0,0.0,0.0,0.0,0.0,0.0,0.0,0.0,0.0,0.0,0.0,0.0,0.0,0.0,0.0,0.0,0.0,0.0,0.0,0.0,0.0,0.0,0.0,0.0,0.0,0.0,0.0,0.0,0.0,0.0,-3.5656,-3.9614,-4.4198,-4.6667,-4.594,-4.5077,-4.1822,-3.5267,0.0,0.0,0.0,0.0,0.0,0.0,0.0,0.0,0.0,0.0,0.0,0.0,0.0,0.0,0.0,0.0,0.0,0.0,0.0,0.0,0.0,0.0,0.0,0.0,0.0,0.0,0.0,0.0,0.0,0.0,0.0,0.0,0.0,0.0,0.0,0.0,0.0,0.0,0.0,0.0,0.0,0.0,0.0,0.0,0.0,0.0,0.0,0.0,0.0,0.0,0.0,0.0,0.0,0.0,0.0,0.0,0.0,0.0,0.0,0.0,0.0,0.0,0.0,0.0,0.0,0.0,0.0,0.0,0.0,0.0,0.0,0.0,0.0,0.0,0.0,0.0,0.0,0.0,0.0,0.0,0.0,0.0,0.0,0.0,0.0,0.0,0.0,0.0,0.0,0.0,0.0,0.0,0.0,0.0,0.0,0.0,0.0,0.0,0.0,0.0,0.0,0.0,0.0,0.0,-3.5746,-4.3826,-4.6515,-4.7445,-4.6701,-4.5365,-4.2279,-3.6795,0.0,0.0,0.0,0.0,0.0,0.0,0.0,0.0,0.0,0.0,0.0,0.0,0.0,0.0,0.0,0.0,0.0,0.0,0.0,0.0,0.0,0.0,0.0,0.0,0.0,0.0,0.0,0.0,0.0,0.0,0.0,0.0,0.0,0.0,0.0,0.0,0.0,0.0,0.0,0.0,0.0,0.0,0.0,0.0,0.0,0.0,0.0,0.0,0.0,0.0,0.0,0.0,0.0,0.0,0.0,0.0,0.0,0.0,0.0,0.0,0.0,0.0,0.0,0.0,0.0,0.0,0.0,0.0,0.0,0.0,0.0,0.0,0.0,0.0,0.0,0.0,0.0,0.0,0.0,0.0,0.0,0.0,0.0,0.0,0.0,0.0,0.0,0.0,0.0,0.0,0.0,0.0,0.0,0.0,0.0,0.0,0.0,0.0,0.0,0.0,0.0,0.0,0.0,-3.5419,-3.9046,-4.5602,-4.7631,-4.8054,-4.6887,-4.5461,-4.2194,-3.6518,-3.3339,0.0,0.0,0.0,0.0,0.0,0.0,0.0,0.0,0.0,0.0,0.0,0.0,0.0,0.0,0.0,0.0,0.0,0.0,0.0,0.0,0.0,0.0,0.0,0.0,0.0,0.0,0.0,0.0,0.0,0.0,0.0,0.0,0.0,0.0,0.0,0.0,0.0,0.0,0.0,0.0,0.0,0.0,0.0,0.0,0.0,0.0,0.0,0.0,0.0,0.0,0.0,0.0,0.0,0.0,0.0,0.0,0.0,0.0,0.0,0.0,0.0,0.0,0.0,0.0,0.0,0.0,0.0,0.0,0.0,0.0,0.0,0.0,0.0,0.0,0.0,0.0,0.0,0.0,0.0,0.0,0.0,0.0,0.0,0.0,0.0,0.0,0.0,0.0,0.0,0.0,0.0,0.0,0.0,0.0,0.0,0.0,0.0,0.0,0.0,0.0,0.0,0.0,-3.9825,-4.2618,-4.638,-4.8122,-4.8409,-4.6921,-4.4942,-4.1441,-3.5955,-3.2341,0.0,0.0,0.0,0.0,0.0,0.0,0.0,0.0,0.0,0.0,0.0,0.0,0.0,0.0,0.0,0.0,0.0,0.0,0.0,0.0,0.0,0.0,0.0,0.0,0.0,0.0,0.0,0.0,0.0,0.0,0.0,0.0,0.0,0.0,0.0,0.0,0.0,0.0,0.0,0.0,0.0,0.0,0.0,0.0,0.0,0.0,0.0,0.0,0.0,0.0,0.0,0.0,0.0,0.0,0.0,0.0,0.0,0.0,0.0,0.0,0.0,0.0,0.0,0.0,0.0,0.0,0.0,0.0,0.0,0.0,0.0,0.0,0.0,0.0,0.0,0.0,0.0,0.0,0.0,0.0,0.0,0.0,0.0,0.0,0.0,0.0,0.0,0.0,0.0,0.0,0.0,0.0,0.0,0.0,0.0,0.0,0.0,0.0,0.0,0.0,0.0,0.0,-4.0367,-4.4936,-4.6616,-4.8122,-4.8409,-4.6921,-4.3504,-3.9783,-3.5853,-3.0833,0.0,0.0,0.0,0.0,0.0,0.0,0.0,0.0,0.0,0.0,0.0,0.0,0.0,0.0,0.0,0.0,0.0,0.0,0.0,0.0,0.0,0.0,0.0,0.0,0.0,0.0,0.0,0.0,0.0,0.0,0.0,0.0,0.0,0.0,0.0,0.0,0.0,0.0,0.0,0.0,0.0,0.0,0.0,0.0,0.0,0.0,0.0,0.0,0.0,0.0,0.0,0.0,0.0,0.0,0.0,0.0,0.0,0.0,0.0,0.0,0.0,0.0,0.0,0.0,0.0,0.0,0.0,0.0,0.0,0.0,0.0,0.0,0.0,0.0,0.0,0.0,0.0,0.0,0.0,0.0,0.0,0.0,0.0,0.0,0.0,0.0,0.0,0.0,0.0,0.0,0.0,0.0,0.0,0.0,0.0,0.0,0.0,0.0,0.0,0.0,0.0,0.0,-3.9766,-4.3775,-4.7141,-4.8392,-4.8409,-4.6921,-4.4654,-4.1102,-3.5921,0.0,0.0,0.0,0.0,0.0,0.0,0.0,0.0,0.0,0.0,0.0,0.0,0.0,0.0,0.0,0.0,0.0,0.0,0.0,0.0,0.0,0.0,0.0,0.0,0.0,0.0,0.0,0.0,0.0,0.0,0.0,0.0,0.0,0.0,0.0,0.0,0.0,0.0,0.0,0.0,0.0,0.0,0.0,0.0,0.0,0.0,0.0,0.0,0.0,0.0,0.0,0.0,0.0,0.0,0.0,0.0,0.0,0.0,0.0,0.0,0.0,0.0,0.0,0.0,0.0,0.0,0.0,0.0,0.0,0.0,0.0,0.0,0.0,0.0,0.0,0.0,0.0,0.0,0.0,0.0,0.0,0.0,0.0,0.0,0.0,0.0,0.0,0.0,0.0,0.0,0.0,0.0,0.0,0.0,0.0,0.0,0.0,0.0,0.0,0.0,0.0,0.0,-3.6118,-4.0028,-4.3724,-4.7483,-4.8578,-4.8409,-4.6921,-4.4773,-4.1153,-3.5583,0.0,0.0,0.0,0.0,0.0,0.0,0.0,0.0,0.0,0.0,0.0,0.0,0.0,0.0,0.0,0.0,0.0,0.0,0.0,0.0,0.0,0.0,0.0,0.0,0.0,0.0,0.0,0.0,0.0,0.0,0.0,0.0,0.0,0.0,0.0,0.0,0.0,0.0,0.0,0.0,0.0,0.0,0.0,0.0,0.0,0.0,0.0,0.0,0.0,0.0,0.0,0.0,0.0,0.0,0.0,0.0,0.0,0.0,0.0,0.0,0.0,0.0,0.0,0.0,0.0,0.0,0.0,0.0,0.0,0.0,0.0,0.0,0.0,0.0,0.0,0.0,0.0,0.0,0.0,0.0,0.0,0.0,0.0,0.0,0.0,0.0,0.0,0.0,0.0,0.0,0.0,0.0,0.0,0.0,0.0,0.0,0.0,0.0,0.0,0.0,0.0,0.0,-3.6338,-4.1382,-4.5449,-4.7699,-4.8578,-4.8409,-4.6921,-4.3386,-3.9309,0.0,0.0,0.0,0.0,0.0,0.0,0.0,0.0,0.0,0.0,0.0,0.0,0.0,0.0,0.0,0.0,0.0,0.0,0.0,0.0,0.0,0.0,0.0,0.0,0.0,0.0,0.0,0.0,0.0,0.0,0.0,0.0,0.0,0.0,0.0,0.0,0.0,0.0,0.0,0.0,0.0,0.0,0.0,0.0,0.0,0.0,0.0,0.0,0.0,0.0,0.0,0.0,0.0,0.0,0.0,0.0,0.0,0.0,0.0,0.0,0.0,0.0,0.0,0.0,0.0,0.0,0.0,0.0,0.0,0.0,0.0,0.0,0.0,0.0,0.0,0.0,0.0,0.0,0.0,0.0,0.0,0.0,0.0,0.0,0.0,0.0,0.0,0.0,0.0,0.0,0.0,0.0,0.0,0.0,0.0,0.0,0.0,0.0,0.0,0.0,0.0,0.0,0.0,-3.7026,-4.1677,-4.5664,-4.8392,-4.8883,-4.8409,-4.6921,-4.4823,-4.1204,-3.5639,0.0,0.0,0.0,0.0,0.0,0.0,0.0,0.0,0.0,0.0,0.0,0.0,0.0,0.0,0.0,0.0,0.0,0.0,0.0,0.0,0.0,0.0,0.0,0.0,0.0,0.0,0.0,0.0,0.0,0.0,0.0,0.0,0.0,0.0,0.0,0.0,0.0,0.0,0.0,0.0,0.0,0.0,0.0,0.0,0.0,0.0,0.0,0.0,0.0,0.0,0.0,0.0,0.0,0.0,0.0,0.0,0.0,0.0,0.0,0.0,0.0,0.0,0.0,0.0,0.0,0.0,0.0,0.0,0.0,0.0,0.0,0.0,0.0,0.0,0.0,0.0,0.0,0.0,0.0,0.0,0.0,0.0,0.0,0.0,0.0,0.0,0.0,0.0,0.0,0.0,0.0,0.0,0.0,0.0,0.0,0.0,0.0,0.0,0.0,0.0,0.0,0.0,-3.7753,-4.2252,-4.6058,-4.8714,-4.9001,-4.8409,-4.6921,-4.5461,-4.2016,-3.5971,0.0,0.0,0.0,0.0,0.0,0.0,0.0,0.0,0.0,0.0,0.0,0.0,0.0,0.0,0.0,0.0,0.0,0.0,0.0,0.0,0.0,0.0,0.0,0.0,0.0,0.0,0.0,0.0,0.0,0.0,0.0,0.0,0.0,0.0,0.0,0.0,0.0,0.0,0.0,0.0,0.0,0.0,0.0,0.0,0.0,0.0,0.0,0.0,0.0,0.0,0.0,0.0,0.0,0.0,0.0,0.0,0.0,0.0,0.0,0.0,0.0,0.0,0.0,0.0,0.0,0.0,0.0,0.0,0.0,0.0,0.0,0.0,0.0,0.0,0.0,0.0,0.0,0.0,0.0,0.0,0.0,0.0,0.0,0.0,0.0,0.0,0.0,0.0,0.0,0.0,0.0,0.0,0.0,0.0,0.0,0.0,0.0,0.0,0.0,0.0,0.0,0.0,-3.8413,-4.2912,-4.6549,-4.8765,-4.9001,-4.8409,-4.6921,-4.5529,-4.2185,-3.6276,0.0,0.0,0.0,0.0,0.0,0.0,0.0,0.0,0.0,0.0,0.0,0.0,0.0,0.0,0.0,0.0,0.0,0.0,0.0,0.0,0.0,0.0,0.0,0.0,0.0,0.0,0.0,0.0,0.0,0.0,0.0,0.0,0.0,0.0,0.0,0.0,0.0,0.0,0.0,0.0,0.0,0.0,0.0,0.0,0.0,0.0,0.0,0.0,0.0,0.0,0.0,0.0,0.0,0.0,0.0,0.0,0.0,0.0,0.0,0.0,-2.9905,-2.8079,0.0,0.0,0.0,0.0,0.0,0.0,0.0,0.0,0.0,0.0,0.0,0.0,0.0,0.0,0.0,0.0,0.0,0.0,0.0,0.0,0.0,0.0,0.0,0.0,0.0,0.0,0.0,0.0,0.0,0.0,0.0,0.0,0.0,0.0,0.0,0.0,0.0,0.0,0.0,0.0,-3.8413,-4.2912,-4.6549,-4.8765,-4.9001,-4.8409,-4.6921,-4.5974,-4.3403,-3.8582,-3.5878,0.0,0.0,0.0,0.0,0.0,0.0,0.0,0.0,0.0,0.0,0.0,0.0,0.0,0.0,0.0,0.0,0.0,0.0,0.0,0.0,0.0,0.0,0.0,0.0,0.0,0.0,0.0,0.0,0.0,0.0,0.0,0.0,0.0,0.0,0.0,0.0,0.0,0.0,0.0,0.0,0.0,0.0,0.0,0.0,0.0,0.0,0.0,0.0,0.0,0.0,0.0,0.0,0.0,0.0,0.0,0.0,0.0,0.0,0.0,-3.4387,-3.2276,0.0,0.0,0.0,0.0,0.0,0.0,0.0,0.0,0.0,0.0,0.0,0.0,0.0,0.0,0.0,0.0,0.0,0.0,0.0,0.0,0.0,0.0,0.0,0.0,0.0,0.0,0.0,0.0,0.0,0.0,0.0,0.0,0.0,0.0,0.0,0.0,0.0,0.0,0.0,0.0,-3.9478,-4.3673,-4.6938,-4.8798,-4.9001,-4.8409,-4.6921,-4.6126,-4.4065,-4.0199,-3.7832,0.0,0.0,0.0,0.0,0.0,0.0,0.0,0.0,0.0,0.0,0.0,0.0,0.0,0.0,0.0,0.0,0.0,0.0,0.0,0.0,0.0,0.0,0.0,0.0,0.0,0.0,0.0,0.0,0.0,0.0,0.0,0.0,0.0,0.0,0.0,0.0,0.0,0.0,0.0,0.0,0.0,0.0,0.0,0.0,0.0,0.0,0.0,0.0,0.0,0.0,0.0,0.0,0.0,-4.0671,-4.1965,-4.2591,-4.3183,-4.4215,-4.5258,-3.9495,-3.7719,-3.8599,-3.5103,0.0,0.0,0.0,0.0,0.0,0.0,0.0,0.0,0.0,0.0,0.0,0.0,0.0,0.0,0.0,0.0,0.0,0.0,0.0,0.0,0.0,0.0,-3.9411,-4.002,-4.1457,-4.1204,-3.5814,0.0,0.0,0.0,0.0,0.0,0.0,0.0,0.0,0.0,0.0,0.0,-4.0849,-4.4671,-4.7513,-4.8866,-4.9001,-4.8409,-4.6921,-4.6244,-4.4671,-4.1763,-3.9791,-3.7726,0.0,0.0,0.0,0.0,0.0,0.0,0.0,0.0,0.0,0.0,0.0,0.0,0.0,0.0,0.0,0.0,0.0,0.0,0.0,0.0,0.0,0.0,0.0,0.0,0.0,0.0,0.0,0.0,0.0,0.0,0.0,0.0,-2.1901,-2.356,0.0,0.0,0.0,0.0,0.0,0.0,0.0,0.0,0.0,0.0,0.0,0.0,0.0,-3.8396,-4.095,-4.3234,-4.4739,-4.5483,-4.7073,-4.7885,-4.7986,-4.8071,-4.8578,-4.9272,-4.775,0.0,-4.2479,-4.0054,0.0,0.0,0.0,0.0,0.0,0.0,0.0,0.0,0.0,0.0,0.0,0.0,0.0,0.0,0.0,0.0,0.0,0.0,0.0,0.0,0.0,0.0,-4.4705,-4.479,-4.4536,-4.4242,-4.3995,-3.9326,-3.467,-3.3,-3.1715,-3.0548,0.0,0.0,0.0,0.0,0.0,0.0,-4.1745,-4.5432,-4.8058,-4.8917,-4.9001,-4.8409,-4.6921,-4.6701,-4.5863,-4.4073,-4.2176,-4.0636,-3.9482,-3.627,0.0,0.0,0.0,0.0,0.0,0.0,0.0,0.0,0.0,0.0,0.0,0.0,0.0,0.0,0.0,0.0,0.0,0.0,0.0,0.0,0.0,0.0,0.0,0.0,0.0,0.0,0.0,0.0,0.0,-2.1488,-2.456,-2.5608,-2.6217,-2.6217,0.0,0.0,0.0,0.0,0.0,0.0,0.0,0.0,0.0,-3.991,-4.188,-4.3724,-4.5432,-4.7259,-4.8325,-4.8663,-5.0152,-5.0862,-5.0879,-5.1319,-5.1708,-5.1995,-5.1674,-5.0355,-4.8173,-4.5111,-4.2337,-3.9842,0.0,0.0,0.0,0.0,-3.8481,-3.87,-4.0832,-4.1018,-4.0223,-3.9681,0.0,0.0,0.0,0.0,0.0,0.0,0.0,-4.1136,-4.2439,-4.5145,-4.7665,-4.8071,-4.824,-4.8274,-4.8189,-4.5196,-4.1567,-3.8413,-3.7263,-3.5791,-3.2527,-3.2307,0.0,0.0,0.0,-4.0231,-4.3227,-4.6109,-4.8189,-4.8934,-4.9001,-4.8409,-4.6921,-4.7113,-4.6596,-4.4949,-4.401,-4.3075,-4.2104,-3.9294,-3.6406,0.0,0.0,0.0,0.0,0.0,0.0,0.0,0.0,0.0,0.0,0.0,0.0,0.0,0.0,0.0,0.0,0.0,0.0,0.0,0.0,0.0,0.0,0.0,0.0,0.0,0.0,0.0,0.0,-2.4644,-2.7029,-2.7757,-2.9347,-2.9738,0.0,0.0,0.0,0.0,0.0,0.0,-3.751,-4.046,-4.2929,-4.479,-4.6836,-4.8274,-4.9004,-5.0321,-5.0963,-5.098,-5.208,-5.2604,-5.2638,-5.323,-5.3501,-5.3501,-5.3501,-5.3162,-5.235,-4.9018,-4.6532,-4.4756,-4.3809,-4.2777,-4.2049,-4.3866,-4.4215,-4.4164,-4.7158,-4.7344,-4.6143,-4.5382,-4.3995,-4.2151,-3.9521,0.0,0.0,0.0,0.0,-4.4451,-4.6346,-4.8189,-4.9712,-5.0253,-5.0811,-5.1065,-5.049,-4.9526,-4.7517,-4.3436,-4.2337,-4.0764,-3.6671,-3.6417,0.0,-3.6772,-3.9478,-4.2414,-4.4852,-4.6938,-4.8409,-4.8951,-4.9001,-4.8409,-4.6921,-4.7346,-4.6969,-4.5311,-4.5061,-4.4643,-4.3829,-4.168,-3.9478,-3.7257,0.0,0.0,0.0,0.0,0.0,0.0,0.0,0.0,0.0,0.0,0.0,0.0,0.0,0.0,0.0,0.0,0.0,0.0,0.0,0.0,0.0,0.0,0.0,0.0,0.0,0.0,0.0,0.0,0.0,-3.0886,-3.2899,0.0,0.0,0.0,0.0,-3.516,-3.8717,-4.1457,-4.2919,-4.586,-4.7885,-4.8697,-5.0202,-5.1336,-5.208,-5.2909,-5.3331,-5.3331,-5.3399,-5.345,-5.345,-5.3484,-5.3501,-5.3501,-5.3501,-5.3484,-5.3264,-5.0896,-4.9441,-4.8578,-4.7141,-4.6515,-4.6549,-4.7378,-4.7635,-4.7767,-4.8646,-4.8443,-4.802,-4.9323,-4.8274,-4.6599,-4.7141,-4.5805,0.0,0.0,-4.7462,-4.8849,-4.9661,-5.049,-5.1083,-5.115,-5.1183,-5.12,-5.1134,-5.1099,-5.0152,-4.7107,-4.541,-4.4079,-4.3054,0.0,-4.2936,-4.2936,-4.4367,-4.5737,-4.6566,-4.8003,-4.8968,-4.9001,-4.9001,-4.8409,-4.6921,-4.7346,-4.6969,-4.5311,-4.5061,-4.4897,-4.4636,-4.3057,-4.1405,-3.9753,-3.6161,0.0,0.0,0.0,0.0,0.0,0.0,0.0,0.0,0.0,0.0,0.0,0.0,0.0,0.0,0.0,0.0,0.0,0.0,0.0,0.0,0.0,0.0,0.0,0.0,0.0,0.0,0.0,0.0,-3.5368,-3.7466,0.0,-3.7066,-3.8684,-4.0045,-4.0569,-4.3646,-4.5957,-4.6955,-4.8903,-5.0371,-5.1099,-5.2147,-5.3044,-5.3771,-5.4059,-5.4448,-5.4938,-5.4938,-5.4938,-5.4938,-5.4938,-5.4938,-5.4938,-5.4938,-5.4938,-5.4871,-5.4042,-5.2689,-5.1065,-5.0541,-5.005,-4.9729,-5.0473,-5.0744,-5.0845,-5.164,-5.1386,-5.0744,-5.0794,-4.9949,-4.8968,-4.9238,-4.8765,-4.8271,-4.8765,-4.9982,-5.1183,-5.1454,-5.2097,-5.2689,-5.2689,-5.2689,-5.2689,-5.2689,-5.2283,-5.1606,-5.0541,-4.8765,-4.7039,-4.5805,-4.5196,-4.4873,-4.4808,-4.5721,-4.6838,-4.7992,-4.8656,-4.9001,-4.9001,-4.9001,-4.8409,-4.6921,-4.7267,-4.6903,-4.5299,-4.4947,-4.4766,-4.4691,-4.3644,-4.2323,-4.0708,-3.79,-3.4215,0.0,0.0,0.0,0.0,0.0,0.0,0.0,0.0,0.0,0.0,0.0,0.0,0.0,0.0,0.0,0.0,0.0,0.0,0.0,0.0,0.0,0.0,0.0,0.0,0.0,0.0,-3.6935,-3.8464,-4.1052,-4.232,-4.1305,-4.347,-4.5015,-4.5252,-4.7584,-4.9357,-5.0067,-5.1302,-5.2317,-5.3044,-5.3585,-5.4228,-5.4955,-5.4972,-5.5226,-5.5681,-5.5681,-5.5681,-5.5681,-5.5681,-5.5681,-5.5681,-5.5681,-5.5681,-5.5681,-5.5681,-5.482,-5.3433,-5.3179,-5.2638,-5.2046,-5.252,-5.2706,-5.279,-5.3315,-5.3162,-5.2621,-5.2147,-5.1657,-5.1234,-5.1234,-5.1234,-5.1234,-5.1234,-5.1944,-5.2706,-5.2706,-5.3112,-5.3501,-5.3501,-5.3501,-5.3501,-5.3501,-5.3078,-5.2706,-5.2706,-5.1116,-4.9441,-4.846,-4.7885,-4.7454,-4.7161,-4.7578,-4.8163,-4.8833,-4.898,-4.9001,-4.9001,-4.9001,-4.8484,-4.7203,-4.7335,-4.6814,-4.5227,-4.4865,-4.458,-4.4305,-4.3516,-4.2598,-4.1534,-3.8869,-3.5534,-3.1541,0.0,0.0,0.0,0.0,0.0,0.0,0.0,0.0,0.0,0.0,0.0,0.0,0.0,0.0,0.0,0.0,0.0,0.0,0.0,0.0,0.0,0.0,0.0,-3.3575,-3.618,-3.865,-4.0147,-4.3561,-4.5246,-4.3764,-4.63,-4.8311,-4.9052,-5.0456,-5.1589,-5.23,-5.3095,-5.3856,-5.4566,-5.4617,-5.4989,-5.575,-5.5715,-5.5732,-5.5749,-5.5749,-5.5749,-5.5749,-5.5749,-5.5749,-5.5749,-5.5749,-5.5749,-5.5749,-5.5749,-5.5784,-5.5683,-5.4921,-5.4177,-5.3534,-5.3534,-5.3518,-5.3501,-5.3501,-5.3501,-5.3501,-5.3501,-5.3501,-5.3501,-5.3501,-5.3501,-5.3501,-5.3501,-5.3501,-5.3501,-5.3501,-5.3501,-5.3501,-5.3501,-5.3501,-5.3501,-5.3501,-5.3501,-5.3501,-5.3501,-5.23,-5.1252,-5.1251,-5.1202,-5.0963,-5.0268,-5.0132,0.0,-4.9168,-4.9018,-4.9001,-4.9001,-4.9032,-4.8673,-4.7765,-4.7584,-4.6772,-4.5104,-4.4783,-4.4305,-4.3533,-4.2745,-4.2306,-4.2269,-3.9114,-3.6398,-3.4255,0.0,0.0,0.0,0.0,0.0,0.0,0.0,0.0,0.0,0.0,0.0,0.0,0.0,0.0,0.0,0.0,0.0,0.0,0.0,0.0,0.0,-3.5432,-3.7894,-3.7519,-4.002,-4.2834,-4.5438,-4.7158,-4.8359,-4.9001,-5.0304,-5.1183,-5.1386,-5.2317,-5.2959,-5.3162,-5.389,-5.438,-5.4583,-5.5124,-5.5767,-5.6494,-5.6511,-5.6765,-5.7289,-5.7289,-5.7289,-5.7289,-5.7289,-5.7289,-5.7289,-5.7289,-5.7289,-5.7289,-5.7289,-5.6985,-5.6427,-5.57,-5.4955,-5.4296,-5.4296,-5.3957,-5.3501,-5.3501,-5.3501,-5.3501,-5.3501,-5.3501,-5.3501,-5.3501,-5.3501,-5.3501,-5.3501,-5.3501,-5.3501,-5.3501,-5.3501,-5.3501,-5.3501,-5.3501,-5.3501,-5.3501,-5.3501,-5.3501,-5.3501,-5.3162,-5.2689,-5.2097,-5.1555,-5.1308,-5.1657,-5.0796,-5.0218,-5.054,-4.9657,-4.9001,-4.9001,-4.9432,-4.9189,-4.782,-4.7479,-4.6697,-4.5088,-4.4272,-4.3718,-4.3515,-4.3277,-4.2682,-4.1669,-3.85,-3.6372,0.0,0.0,0.0,0.0,0.0,0.0,0.0,0.0,0.0,0.0,0.0,0.0,0.0,0.0,0.0,0.0,0.0,0.0,0.0,0.0,0.0,0.0,-3.9222,-4.1967,-4.2647,-4.4215,-4.6046,-4.8139,-4.956,-5.0727,-5.1589,-5.235,-5.2807,-5.2807,-5.3518,-5.3957,-5.3957,-5.4668,-5.5192,-5.5513,-5.5953,-5.6511,-5.7256,-5.7256,-5.7476,-5.7881,-5.7881,-5.7881,-5.7881,-5.7881,-5.7881,-5.7881,-5.7881,-5.7881,-5.7881,-5.7881,-5.7645,-5.7188,0.0,0.0,0.0,0.0,-5.4329,-5.3923,-5.3619,-5.3501,-5.3501,-5.3501,-5.3501,-5.3501,-5.3501,-5.3501,-5.3501,-5.3501,-5.3501,-5.3501,-5.3501,-5.3501,-5.3501,-5.3501,-5.3501,-5.3501,-5.3501,-5.3501,-5.3501,-5.3501,-5.3501,0.0,-5.2892,-5.2452,-5.2192,-5.2295,-5.1315,-5.0706,-5.1146,-5.0162,-4.9551,-4.9838,-5.023,-5.0091,-4.9105,-4.8281,0.0,0.0,0.0,-4.3699,-4.302,-4.2738,0.0,0.0,0.0,0.0,0.0,0.0,0.0,0.0,-3.577,-3.5347,0.0,0.0,0.0,0.0,0.0,0.0,0.0,0.0,0.0,0.0,0.0,0.0,0.0,0.0,0.0,0.0,-4.2549,-4.5727,-4.7869,-4.8361,-4.8738,-4.9306,-5.1099,-5.2334,-5.2435,-5.3078,-5.3534,-5.3619,-5.4228,-5.4634,-5.4718,0.0,0.0,0.0,0.0,-5.7239,-5.7881,-5.7881,-5.7881,-5.7881,-5.7881,-5.7881,-5.7881,-5.7881,-5.7881,-5.7881,-5.7881,-5.7881,-5.7881,-5.7881,-5.7881,-5.7814,-5.7087,-5.641,-5.575,-5.5006,-5.4718,-5.4617,-5.3873,0.0,0.0,-5.3534,-5.3501,-5.3501,-5.3501,-5.3501,-5.3501,-5.3501,-5.3501,-5.3501,-5.3501,-5.3501,-5.3501,-5.3501,-5.3501,-5.3501,-5.3501,-5.3501,-5.3501,-5.3501,-5.3501,-5.3501,-5.3501,-5.3501,-5.3297,-5.2651,-5.1922,-5.1475,-5.1436,-5.0754,-5.0467,-5.1051,0.0,0.0,-5.0929,-4.9591,-4.8617,-4.8323,-4.6122,-4.4195,-4.2763,-4.2141,-4.1808,-4.1808,-4.1935,-4.2083,-4.235,-4.2985,-4.3433,-4.3534,-3.8637,-3.7573,0.0,0.0,0.0,0.0,0.0,0.0,0.0,0.0,0.0,0.0,0.0,0.0,0.0,0.0,0.0,-4.3396,-4.6595,-4.8978,-4.9579,-5.1265,-5.2228,-5.1737,-5.2046,-5.2553,-5.3213,-5.3416,-5.3754,-5.4329,-5.4515,-5.4854,-5.5463,-5.619,-5.6664,-5.6799,-5.7374,-5.7746,-5.7881,-5.7881,-5.7881,-5.7881,0.0,0.0,-5.7881,-5.7881,-5.7881,-5.7881,-5.7881,-5.7881,-5.7881,-5.7881,-5.7881,-5.7814,-5.7087,-5.6714,-5.6511,-5.5767,-5.5497,-5.5395,-5.4634,-5.438,-5.4279,-5.3687,-5.3501,-5.3501,-5.3501,-5.3501,0.0,-5.3501,-5.3501,-5.3501,-5.3501,-5.3501,-5.3501,-5.3501,-5.3501,-5.3501,-5.3501,-5.3501,-5.3501,-5.3501,-5.3501,-5.3501,-5.3501,-5.3501,-5.3633,-5.4089,-5.3542,-5.3038,-5.2979,-5.2331,-5.1661,-5.1157,-5.1569,-5.1628,-5.0966,-5.0583,-4.9764,-4.8378,-4.6636,-4.5535,-4.5223,-4.4629,-4.4335,-4.4375,-4.3904,-4.3673,-4.3787,-4.3946,-4.4652,-4.5817,-4.3057,-4.2638,0.0,0.0,0.0,0.0,0.0,0.0,0.0,0.0,0.0,0.0,0.0,-3.7421,-4.0531,0.0,-4.5424,-4.7611,-4.934,-5.0725,-5.1662,-5.277,-5.3358,-5.2958,-5.322,-5.3597,-5.4008,-5.3734,-5.3805,-5.4532,-5.4938,-5.548,-5.6224,-5.6951,-5.734,-5.734,-5.7695,-5.8068,-5.8457,-5.8457,-5.8643,-5.8998,-5.8998,-5.8998,-5.8998,-5.8998,-5.8998,-5.8981,-5.8609,-5.8457,-5.8423,-5.8051,-5.7881,-5.7848,-5.7492,-5.734,-5.7256,-5.6528,-5.6258,-5.6156,-5.5412,-5.4905,-5.4532,-5.416,-5.3805,-5.3501,-5.3501,-5.3501,-5.3501,-5.3501,-5.3501,-5.3501,-5.3501,-5.3501,-5.3501,-5.3501,-5.3501,-5.3501,-5.3501,-5.3501,-5.3618,-5.3962,-5.4042,-5.4154,-5.453,-5.4606,-5.4606,-5.4589,-5.4276,-5.401,-5.3974,-5.3274,-5.2637,-5.2215,-5.2463,-5.2345,-5.1571,-5.108,-5.031,-4.9021,-4.7792,-4.6929,-4.6526,-4.5574,-4.526,-4.5696,-4.5445,-4.5503,-4.5962,-4.6347,-4.7114,-4.8141,-4.7055,-4.6779,0.0,0.0,0.0,0.0,0.0,0.0,0.0,0.0,-3.4798,-3.752,-4.0221,-4.2813,-4.5223,-4.7498,-4.9523,-5.1094,-5.1667,-5.2378,-5.3748,-5.4063,-5.4091,-5.3943,-5.4452,-5.4757,-5.462,-5.4179,-5.416,-5.4787,-5.5513,-5.6241,-5.6968,-5.7577,-5.7949,-5.8101,-5.8101,-5.8473,-5.9218,-5.9218,-5.9522,-6.0097,-6.0097,-6.0097,-6.0097,-6.0097,-6.0097,-6.0063,-5.9336,-5.9015,-5.8947,-5.8203,-5.7881,-5.7881,-5.7881,-5.7881,-5.7814,-5.7222,-5.7019,-5.6917,-5.619,-5.5446,-5.4786,-5.4634,-5.4093,-5.3501,-5.3501,-5.3501,-5.3501,-5.3501,-5.3501,-5.3501,-5.3501,-5.3501,-5.3534,-5.3668,-5.3717,-5.375,-5.3898,-5.3913,-5.4106,-5.4713,-5.4818,-5.5012,-5.5592,-5.5836,-5.5724,-5.5149,-5.5051,-5.5009,-5.4947,-5.4237,-5.3667,-5.3454,-5.3277,-5.2915,-5.2159,-5.1373,-5.0601,-4.9905,-4.9183,-4.8489,-4.7846,-4.6666,-4.637,-4.7164,-4.7143,-4.7522,-4.8304,-4.8965,-4.9611,-5.0242,-5.0242,-4.9892,-2.7622,-2.9331,-3.0903,-3.2307,-3.278,-3.427,0.0,0.0,-4.1709,-4.4559,-4.6364,-4.7772,-4.8838,-5.0435,-5.1883,-5.2789,-5.4205,-5.5245,-5.542,-5.6067,-5.6242,-5.5525,-5.5528,-5.532,-5.4682,-5.5136,-5.5475,-5.5565,-5.6275,-5.7002,-5.7729,-5.7848,-5.8203,-5.8879,-5.8896,-5.9235,-5.9979,-5.9979,-6.003,-6.0097,-6.0097,-6.0097,-6.0097,-6.0097,-6.0097,-6.0063,-5.9336,-5.9015,-5.8947,-5.8203,-5.7881,-5.7881,-5.7881,-5.7881,-5.7881,-5.7797,-5.7763,-5.7662,-5.6934,-5.619,-5.548,-5.4803,-5.4093,-5.3501,-5.3501,-5.3501,-5.3501,-5.3501,-5.3501,-5.3501,-5.3501,-5.3501,-5.3668,-5.431,-5.4482,-5.4651,-5.532,-5.5466,-5.5495,-5.5563,-5.5581,-5.5592,-5.5678,-5.6286,-5.6739,-5.666,-5.6623,-5.6624,-5.6566,-5.5852,-5.5067,-5.4344,-5.3628,-5.2915,-5.2159,-5.1373,-5.0854,-5.076,-5.0605,-5.049,-5.0398,-4.9683,-4.96,-5.0281,-4.9738,-4.9767,-5.0456,-5.0527,-5.0989,-5.1747,-5.1747,-5.1355,-3.2462,-3.3643,0.0,0.0,-3.8276,-3.9876,-4.2343,-4.4134,-4.5711,-4.7355,-4.9177,-5.0563,-5.0932,-5.2307,-5.3665,0.0,-5.5231,-5.5866,-5.6335,-5.6696,-5.6585,-5.5794,-5.6107,-5.591,-5.4713,-5.4888,-5.5247,-5.5649,-5.6393,-5.712,-5.7848,-5.7881,-5.8237,-5.8998,-5.9015,-5.959,-6.0791,-6.0808,-6.1011,-6.1434,-6.1434,-6.1434,-6.1434,-6.1434,-6.1197,-6.0757,-5.9979,-5.9404,-5.8947,-5.8203,-5.7881,-5.7954,-5.844,-5.8351,-5.7881,-5.7881,-5.7881,-5.7848,-5.7543,-5.6968,-5.6224,-5.548,-5.4735,-5.4059,-5.3636,-5.3501,-5.3501,-5.3501,-5.3501,-5.3501,-5.3501,-5.3799,-5.4218,-5.4544,-5.4922,-5.532,-5.5621,-5.5706,-5.5836,-5.6313,-5.6394,-5.6527,-5.696,-5.7315,-5.754,-5.754,-5.754,-5.7363,-5.685,-5.651,-5.5812,-5.4546,-5.3306,-5.2599,-5.2747,-5.205,-5.1764,-5.2215,-5.1778,-5.1499,-5.1499,-5.078,-5.0723,-5.1481,-5.1219,-5.1456,-5.2215,-5.2215,-5.238,-5.2711,-5.2711,-5.2299,-3.5255,0.0,0.0,-3.9842,-4.2354,-4.4376,-4.453,-4.6631,-4.8753,-4.9477,-5.0887,-5.2068,-5.2289,-5.328,-5.4418,-5.5449,-5.5832,-5.6284,-5.71,-5.7028,-5.6663,-5.6108,-5.6353,-5.6054,-5.4709,-5.4775,-5.5128,-5.5666,-5.6393,-5.712,-5.7848,-5.8084,-5.8541,-5.9285,-5.9539,-6.0283,-6.1586,-6.1603,-6.1873,-6.2381,-6.2381,-6.2381,-6.2381,-6.2381,-6.2093,-6.1552,-6.0774,-5.9996,-5.9252,-5.8766,-5.8415,-5.8334,-5.9196,-5.9146,-5.8546,-5.8334,-5.8101,-5.7881,-5.7881,-5.7408,-5.6714,-5.619,-5.5378,-5.4499,-5.3957,-5.367,-5.3501,-5.3501,-5.3501,-5.3568,-5.375,-5.4218,-5.4713,-5.5149,-5.5656,-5.6104,-5.6277,-5.6331,-5.6509,-5.7091,-5.7209,-5.7376,-5.7909,-5.7997,-5.7997,-5.7997,-5.7997,-5.7795,-5.7207,-5.695,-5.618,-5.4564,-5.3208,-5.257,-5.2872,-5.2422,-5.2335,-5.2853,-5.2553,-5.2325,-5.2325,-5.1775,-5.1738,-5.2307,-5.2325,-5.2619,-5.3185,-5.3185,-5.3185,-5.3185,-5.3185,-5.2791,0.0,0.0,-4.1052,-4.1153,-4.3915,-4.6777,-4.7406,-4.931,-5.1076,-5.176,-5.1958,-5.2234,-5.3023,-5.3185,-5.3775,-5.5335,-5.6249,-5.7056,-5.7845,-5.7295,-5.6825,-5.6863,-5.6209,-5.5437,-5.4656,-5.5268,-5.5694,-5.5684,-5.6393,-5.712,-5.7848,-5.8592,-5.9302,-6.0047,-6.0825,-6.1603,-6.2347,-6.2364,-6.2364,-6.2381,-6.2381,-6.2381,-6.2381,-6.2381,-6.2381,-6.2313,-6.1586,-6.0808,-6.0071,-6.0183,-5.9787,-5.9144,-6.0023,-6.0353,-6.0211,-5.9377,-5.8564,-5.7881,-5.7881,-5.7408,-5.6799,-5.6782,-5.5784,-5.4583,-5.4566,-5.4059,-5.3501,-5.3501,-5.3501,-5.3668,-5.4374,-5.4589,-5.4969,-5.6465,-5.6861,-5.7065,-5.7774,-5.7932,-5.7932,-5.7973,-5.7973,-5.7973,-5.7997,-5.7997,-5.7997,-5.7997,-5.7997,-5.7997,-5.796,-5.7281,-5.618,-5.4564,-5.3722,-5.2948,-5.2208,-5.2112,-5.2112,-5.2136,-5.2773,-5.317,-5.317,-5.313,-5.313,-5.317,-5.317,-5.3167,-5.3185,-5.3185,-5.3185,-5.3185,-5.3185,-5.2791,0.0,0.0,-4.3139,-4.5086,-4.7573,-4.9728,-5.045,-5.1579,-5.237,-5.2066,-5.1573,-5.1114,-5.0857,-5.1683,-5.2766,-5.383,-5.5592,-5.7079,-5.7886,-5.7776,-5.7414,-5.6888,-5.6622,0.0,-5.4651,-5.5231,0.0,-5.5684,-5.6393,-5.712,-5.7848,-5.8609,-5.9353,-6.008,-6.0892,-6.1653,-6.2381,-6.2381,-6.2381,-6.2381,-6.2381,-6.2381,-6.2381,-6.2381,-6.2381,-6.2347,-6.162,-6.1459,-6.1679,-6.0687,-6.0487,-6.079,-6.1075,-6.0879,-6.0353,-6.0055,-5.9427,-5.8633,-5.8082,-5.7729,-5.7442,-5.6968,-5.6139,-5.5243,-5.4735,-5.4076,-5.3501,-5.3501,-5.3865,-5.4296,-5.4544,-5.5355,-5.6249,-5.6765,-5.7259,-5.7703,-5.795,-5.7997,-5.7997,-5.7997,-5.7997,-5.7997,-5.7997,-5.7997,-5.7997,-5.7997,-5.7997,-5.7997,-5.7997,-5.7299,-5.6602,-5.6051,-5.481,-5.3912,-5.3657,-5.3123,-5.2831,-5.2831,-5.3063,-5.3185,-5.3185,-5.3185,-5.3185,-5.3185,-5.3185,-5.3185,-5.3185,-5.3185,-5.3185,-5.3203,-5.3757,-5.3851,-4.1894,-4.3996,-4.5509,-4.7971,-5.0008,-5.1455,-5.1643,-5.2243,-5.2454,-5.1334,-5.0233,-4.9407,-4.9169,-4.9499,-5.0563,-5.2839,-5.4509,-5.6106,-5.7776,-5.7758,-5.7483,-5.7262,-5.7255,-5.6786,0.0,0.0,0.0,-5.5736,-5.6393,-5.7239,-5.8237,-5.8998,-5.9742,-6.0503,-6.1281,-6.1924,-6.2381,-6.2381,-6.2559,-6.2855,-6.2855,-6.2855,-6.2855,-6.2559,-6.2381,-6.2364,-6.189,-6.206,-6.2543,-6.1534,-6.1477,-6.2028,-6.2022,-6.1715,-6.1218,-6.0909,-6.0287,-5.941,-5.8298,-5.7881,-5.7814,-5.734,-5.6697,-5.597,-5.5226,-5.4482,-5.389,-5.3867,-5.4232,-5.4743,-5.5279,-5.6167,-5.6964,-5.7234,-5.7679,-5.7997,-5.7997,-5.7997,-5.7997,-5.7997,-5.7997,-5.7997,-5.7997,-5.7997,-5.7997,-5.7997,-5.7997,-5.7997,-5.7997,-5.7556,-5.7134,-5.684,-5.5868,-5.5133,-5.484,-5.4087,-5.3628,-5.3628,-5.3371,-5.3185,-5.3185,-5.3185,-5.3185,-5.3185,-5.3185,-5.3185,-5.3185,-5.3185,-5.3353,-5.3647,-5.4161,-5.4546,-4.4237,-4.6231,-4.8229,-4.9717,-5.1112,-5.1889,-5.1089,-5.1391,-5.1371,-4.9609,-4.8012,-4.7113,-4.7755,0.0,-4.7407,-5.2179,-5.3112,-5.4381,-5.7556,-5.7391,-5.7207,0.0,0.0,0.0,0.0,0.0,0.0,-5.5941,0.0,-5.7492,-5.893,-5.9742,-6.0541,-6.1341,-6.207,-6.2459,-6.2459,-6.2459,-6.2893,-6.3719,-6.3755,-6.3738,-6.3683,-6.2855,-6.2459,-6.2381,-6.2381,-6.2504,-6.2718,-6.2644,-6.2722,-6.2936,-6.2844,-6.278,-6.2686,-6.1897,-6.1084,-6.0166,-5.8528,-5.7918,-5.7881,-5.7881,-5.7391,-5.6681,-5.5987,-5.5244,-5.4652,-5.4664,-5.4686,-5.5059,-5.6536,-5.6938,-5.7134,-5.7839,-5.7997,-5.7997,-5.7997,-5.7997,-5.7997,-5.7997,-5.7997,-5.7997,-5.7997,-5.7997,-5.7997,-5.7997,-5.7997,-5.7997,-5.7997,-5.7997,-5.7703,-5.695,-5.6822,-5.6492,-5.5721,-5.4913,-5.4454,-5.4454,-5.372,-5.3259,-5.3259,-5.3203,-5.3185,-5.3185,-5.3243,-5.3259,-5.3259,-5.3316,-5.372,-5.4454,-5.4509,-5.4932,-4.6044,-4.8503,-5.0363,-5.1341,-5.1801,-5.1822,-5.0997,-5.0499,-4.9408,-4.6526,-4.5131,-4.392,-4.2341,0.0,0.0,-4.9058,-5.2105,0.0,-5.7629,-5.8345,0.0,-5.8877,0.0,-5.9263,-5.7923,-5.8473,0.0,0.0,-5.7509,-5.8017,-5.8964,-6.0283,-6.1371,-6.2251,-6.2992,-6.3388,-6.3388,-6.3388,-6.3481,-6.3719,-6.4357,-6.4323,-6.3683,-6.3481,-6.3011,-6.2381,-6.2381,-6.3174,-6.4311,-6.3067,-6.3412,-6.4526,-6.3298,-6.278,-6.2686,-6.1897,-6.1084,-6.026,-5.9162,-5.8406,-5.7881,-5.7881,-5.7391,-5.6765,-5.6579,-5.5996,-5.5413,-5.5412,-5.5854,-5.6412,-5.6791,-5.7327,-5.7774,-5.7973,-5.7997,-5.7997,-5.7997,-5.7997,-5.7997,-5.7997,-5.7997,-5.7997,-5.7997,-5.7997,-5.7997,-5.7997,-5.7997,-5.7997,-5.7997,-5.7997,-5.7923,-5.7721,-5.7171,-5.673,-5.651,-5.5757,-5.528,-5.528,-5.4546,-5.4087,-5.4087,-5.3537,-5.3185,-5.3185,-5.3794,-5.4087,-5.4106,-5.4693,-5.5078,-5.5299,-5.5904,-5.6308,-4.8418,-5.0525,-5.2057,-5.249,-5.2294,-5.1499,-4.9609,-4.8545,-4.6838,-4.2892,-4.1717,0.0,-3.8689,-4.0946,0.0,0.0,0.0,0.0,-5.7079,-5.8474,-5.9184,0.0,-6.0236,0.0,-5.8757,-5.9269,-5.9356,0.0,-5.8389,-5.8863,-5.9962,-6.1173,-6.224,-6.3061,-6.3869,-6.4253,-6.4253,-6.4684,-6.4886,-6.4886,-6.5361,-6.5148,-6.4271,-6.3864,-6.3219,-6.2381,-6.2381,-6.3408,-6.4875,-6.3253,-6.3675,-6.5136,-6.3441,-6.278,-6.2755,-6.2298,-6.1389,-6.0322,-5.9832,-5.8892,-5.7881,-5.7881,-5.7611,-5.7222,-5.69,-5.6525,-5.618,-5.6226,-5.656,-5.6964,-5.7284,-5.7703,-5.7997,-5.7997,-5.7997,-5.7997,-5.7997,-5.7997,-5.7997,-5.7997,-5.7997,-5.7997,-5.7997,-5.7997,-5.7997,-5.7997,-5.7997,-5.7997,-5.7997,-5.7997,-5.7997,-5.7997,-5.7593,-5.7336,-5.7336,-5.6583,-5.6124,-5.6124,-5.5372,-5.4932,-5.4932,-5.4491,-5.4252,-5.4252,-5.4693,-5.4932,-5.4932,-5.5372,-5.5776,-5.6143,-5.6602,-5.6987,-5.0705,-5.2149,-5.3167,-5.3078,-5.2362,-5.082,-4.7516,-4.5975,-4.392,-3.9184,0.0,-3.7588,-3.6083,-3.845,-4.1754,-4.5186,0.0,-5.2876,-5.6326,-5.8175,-5.9239,-5.9349,-6.0695,-6.1014,-5.9508,-5.9973,-6.003,-5.9194,-5.9252,-5.9894,-6.1231,-6.2226,-6.3169,-6.4025,-6.4783,-6.5181,-6.5181,-6.5966,-6.6404,-6.6404,-6.6523,-6.6028,-6.4966,-6.4236,-6.3351,-6.2398,-6.252,-6.3501,-6.4875,-6.3382,-6.3763,-6.5136,-6.3441,-6.278,-6.278,-6.278,-6.1788,-6.0414,-6.0414,-5.9313,-5.7881,-5.7881,-5.7881,-5.7763,-5.7137,-5.6953,-5.6958,-5.7028,-5.7055,-5.7184,-5.7839,-5.7997,-5.7997,-5.7997,-5.7997,-5.7997,-5.7997,-5.7997,-5.7997,-5.7997,-5.7997,-5.7997,-5.7997,-5.7997,-5.7997,-5.7997,-5.7997,-5.7997,-5.7997,-5.7997,-5.7997,-5.7997,-5.7997,-5.7997,-5.7997,-5.7373,-5.6969,-5.6969,-5.6198,-5.5757,-5.5757,-5.5669,-5.5614,-5.5614,-5.5684,-5.5757,-5.5757,-5.589,-5.6271,-5.6969,-5.6969,-5.7336,-5.1271,-5.2501,-5.3041,-5.2362,-5.1096,-4.917,-4.5883,-4.3462,0.0,0.0,0.0,-3.4357,-3.3408,-3.5917,0.0,-4.4176,0.0,0.0,0.0,0.0,-5.9441,0.0,0.0,0.0,0.0,0.0,0.0,0.0,-6.0537,-6.1028,-6.1298,-6.2687,-6.4252,-6.5891,-6.6095,-6.6156,-6.6156,-6.6325,-6.6404,-6.6404,-6.7127,-6.6623,-6.4999,-6.4833,-6.39,-6.2459,-6.3145,0.0,-6.4941,-6.4056,-6.4307,-6.5136,-6.3441,-6.278,-6.278,-6.278,-6.1788,-6.0414,-6.0414,-5.9313,-5.7881,-5.7881,-5.7881,-5.7865,-5.7746,-5.7736,-5.7792,-5.7818,-5.781,-5.7839,-5.7973,-5.7997,-5.7997,-5.7997,-5.7997,-5.7997,-5.7997,-5.7997,-5.7997,-5.7997,-5.7997,-5.7997,-5.7997,-5.7997,-5.7997,-5.7997,-5.7997,-5.7997,-5.7997,-5.7997,-5.7997,-5.7997,-5.7997,-5.7997,-5.7997,-5.7868,-5.7795,-5.7795,-5.7042,-5.6602,-5.6602,-5.5941,-5.5614,-5.5614,-5.6253,-5.6602,-5.6602,-5.7262,-5.7648,-5.7795,-5.7795,-5.7868,-5.1988,-5.2913,-5.3023,-5.2197,-5.0747,-4.8361,-4.3847,0.0,0.0,0.0,-3.2197,-3.1678,-3.0876,0.0,0.0,0.0,0.0,0.0,0.0,0.0,0.0,0.0,0.0,0.0,0.0,0.0,0.0,0.0,0.0,-6.2144,-6.2538,-6.4165,-6.5716,-6.7043,-6.7071,-6.7071,-6.7071,-6.7071,-6.7071,-6.7071,-6.7488,-6.7024,-6.573,-6.573,-6.5001,-6.3793,-6.4201,-6.4637,-6.4979,-6.4213,-6.4211,-6.4549,-6.3301,-6.278,-6.278,-6.278,-6.1788,-6.0414,-6.0414,-5.9313,-5.7881,-5.7881,-5.7881,-5.7881,-5.7881,-5.794,-5.8007,-5.8007,-5.7998,-5.7997,-5.7997,-5.7997,-5.7997,-5.7997,-5.7997,-5.7997,-5.7997,-5.7997,-5.7997,-5.7997,-5.7997,-5.7997,-5.7997,-5.7997,-5.7997,-5.7997,-5.7997,-5.7997,-5.7997,-5.7997,-5.7997,-5.7997,-5.7997,-5.7997,-5.7997,-5.7997,-5.7997,-5.7997,-5.7648,-5.7428,-5.7428,-5.7042,-5.684,-5.684,-5.7226,-5.7428,-5.7428,-5.7813,-5.7997,-5.7997,-5.7997,-5.7997,-5.2325,-5.3057,-5.2986,-5.1977,-5.0472,-4.7774,-4.2139,-3.8982,0.0,0.0,-3.0063,-2.9794,-2.9335,0.0,0.0,0.0,0.0,0.0,0.0,0.0,0.0,0.0,0.0,0.0,0.0,0.0,0.0,0.0,0.0,-6.3676,-6.4253,-6.5621,-6.6794,-6.7687,-6.7687,-6.7687,-6.7687,-6.7687,-6.7687,-6.7687,-6.7687,-6.723,-6.6404,-6.6404,-6.5904,-6.4981,-6.5019,-6.5037,-6.5032,-6.4256,-6.4003,-6.3998,-6.3154,-6.278,-6.278,-6.278,-6.1788,-6.0414,-6.0414,-5.9313,-5.7881,-5.7881,-5.7881,-5.7918,-5.8101,-5.8089,-5.8036,-5.8213,-5.8129,-5.7997,-5.7997,-5.7997,-5.7997,-5.7997,-5.7997,-5.7997,-5.7997,-5.7997,-5.7997,-5.7997,-5.7997,-5.7997,-5.7997,-5.7997,-5.7997,-5.7997,-5.7997,-5.7997,-5.7997,-5.7997,-5.7997,-5.7997,-5.7997,-5.7997,-5.7997,-5.7997,-5.7997,-5.7997,-5.7997,-5.7997,-5.7997,-5.7997,-5.7997,-5.7997,-5.7997,-5.7997,-5.7997,-5.7997,-5.7997,-5.7997,-5.7997,-5.7997,-5.1646,-5.2637,-5.2839,-5.1298,-4.9646,-4.6948,-4.1295,0.0,0.0,-3.1054,-2.961,-2.9317,-2.9971,-3.1054,0.0,0.0,0.0,0.0,0.0,0.0,0.0,0.0,0.0,0.0,0.0,0.0,0.0,0.0,0.0,-6.6084,-6.6156,-6.6295,-6.6794,-6.7687,-6.7687,-6.7687,-6.7687,-6.7687,-6.7687,-6.7687,-6.7687,-6.723,-6.6404,-6.6404,-6.5904,-6.4979,-6.5049,-6.5088,0.0,-6.4365,-6.4094,-6.3998,-6.3154,-6.278,-6.278,-6.278,-6.1788,-6.0414,-6.0414,-5.9313,-5.7881,-5.7881,-5.7881,-5.8046,-5.8772,-5.8541,-5.8155,-5.8878,-5.8551,-5.7997,-5.7997,-5.7997,-5.7997,-5.7997,-5.7997,-5.7997,-5.7997,-5.7997,-5.7997,-5.7997,-5.7997,-5.7997,-5.7997,-5.7997,-5.7997,-5.7997,-5.7997,-5.7997,-5.7997,-5.7997,-5.7997,-5.7997,-5.7997,-5.7997,-5.7997,-5.7997,-5.7997,-5.7997,-5.7997,-5.7997,-5.7997,-5.7997,-5.7997,-5.7997,-5.7997,-5.7997,-5.7997,-5.7997,-5.7997,-5.7997,-5.7997,-5.7997,-5.0563,-5.1867,-5.2215,-5.1077,-4.9554,-4.6709,-4.0579,0.0,-3.4362,-3.0308,-2.8851,-2.8521,-2.9335,-3.0136,-3.1953,0.0,-3.7004,-3.9976,0.0,0.0,0.0,0.0,0.0,0.0,0.0,0.0,0.0,0.0,0.0,-6.663,-6.7127,-6.7174,-6.7332,-6.7687,-6.7687,-6.7687,-6.7687,-6.7687,-6.7687,-6.7687,-6.7687,-6.7533,-6.7156,-6.6682,-6.6258,-6.5891,-6.5431,-6.4968,0.0,-6.4226,-6.3778,-6.3282,-6.2952,-6.278,-6.273,-6.2271,-6.1379,-6.0304,-5.98,-5.8858,-5.7881,-5.7881,-5.8227,-5.8686,-5.8993,-5.8587,-5.8184,-5.8978,-5.8601,-5.7997,-5.7997,-5.7997,-5.7997,-5.7997,-5.7997,-5.7997,-5.7997,-5.7997,-5.7997,-5.7997,-5.7997,-5.7997,-5.7997,-5.7997,-5.7997,-5.7997,-5.7997,-5.7997,-5.7997,-5.7997,-5.7997,-5.7997,-5.7997,-5.7997,-5.7997,-5.7997,-5.7997,-5.7997,-5.7997,-5.7997,-5.7997,-5.7997,-5.7997,-5.7997,-5.7997,-5.7997,-5.7997,-5.7997,-5.7997,-5.7997,-5.7997,-5.7997,-4.882,-5.0472,-5.1077,-5.027,-4.882,-4.5975,0.0,0.0,-3.3867,-2.9831,-2.8546,-2.8338,-2.8895,-2.9647,-3.1097,0.0,-3.5114,-3.8031,-4.4617,0.0,0.0,0.0,0.0,0.0,0.0,0.0,0.0,0.0,-6.6649,-6.7043,-6.7687,-6.7687,-6.7687,-6.7687,-6.7687,-6.7687,-6.7687,-6.7687,-6.7687,-6.7687,-6.7448,-6.7338,-6.7302,-6.6512,-6.6145,-6.6109,-6.5301,-6.4622,0.0,-6.3815,-6.3356,-6.278,-6.278,-6.278,-6.2686,-6.1897,-6.1084,-6.0291,-5.941,-5.8564,-5.7881,-5.7881,-5.8441,-5.9144,-5.941,-5.8963,-5.8513,-5.932,-5.8811,-5.7997,-5.7997,-5.7997,-5.7997,-5.7997,-5.7997,-5.7997,-5.7997,-5.7997,-5.7997,-5.7997,-5.7997,-5.7997,-5.7997,-5.7997,-5.7997,-5.7997,-5.7997,-5.7997,-5.7997,-5.7997,-5.7997,-5.7997,-5.7997,-5.7997,-5.7997,-5.7997,-5.7997,-5.7997,-5.7997,-5.7997,-5.7997,-5.7997,-5.7997,-5.7997,-5.7997,-5.7997,-5.7997,-5.7997,-5.7997,-5.7997,-5.7997,-5.7997,-4.625,-4.8361,-4.9427,-4.8545,-4.7131,-4.4452,0.0,-3.6211,-3.3867,-2.9831,-2.8987,-2.8987,-2.9005,-2.9647,-3.0742,-3.2362,-3.5349,-3.9182,-4.403,0.0,0.0,0.0,0.0,0.0,0.0,0.0,0.0,0.0,-6.7247,0.0,-6.7687,-6.7687,-6.7687,-6.7687,-6.7687,-6.7687,-6.7687,-6.7687,-6.7687,-6.7687,-6.688,-6.6512,-6.6494,-6.5687,-6.5319,-6.5283,-6.4457,-6.409,0.0,-6.3172,-6.2798,-6.278,-6.278,-6.278,-6.2686,-6.1897,-6.1084,-6.0291,-5.941,-5.8564,-5.7881,-5.7881,-5.8441,-5.9278,-6.0117,-5.982,-5.9347,-6.017,-5.9245,-5.7997,-5.7997,-5.7997,-5.7997,-5.7997,-5.7997,-5.7997,-5.7997,-5.7997,-5.7997,-5.7997,-5.7997,-5.7997,-5.7997,-5.7997,-5.7997,-5.7997,-5.7997,-5.7997,-5.7997,-5.7997,-5.7997,-5.7997,-5.7997,-5.7997,-5.7997,-5.7997,-5.7997,-5.7997,-5.7997,-5.7997,-5.7997,-5.7997,-5.7997,-5.7997,-5.7997,-5.7997,-5.7997,-5.7997,-5.7997,-5.7997,-5.7997,-5.7997,-4.1754,-4.3369,-4.4268,-4.2892,-4.2176,-4.0598,-3.6009,-3.4559,-3.3201,-2.9721,-2.9005,-2.9005,-2.9005,-2.9207,-3.0821,-3.522,-3.6813,0.0,0.0,0.0,0.0,0.0,0.0,0.0,0.0,0.0,0.0,0.0,-6.5925,-6.6054,-6.6054,-6.6054,-6.6549,-6.765,-6.7687,-6.7687,-6.7687,-6.7136,-6.688,-6.6861,-6.6054,-6.5687,-6.565,-6.4842,-6.4475,-6.442,-6.3576,-6.3209,-6.3191,-6.289,-6.278,-6.278,-6.278,-6.278,-6.2636,-6.1275,-6.0628,-6.0198,-5.8755,-5.8101,-5.7974,-5.8529,-5.9295,-6.0043,-6.0313,-5.9833,-5.9156,-5.8835,-5.8382,-5.7997,-5.7997,-5.7997,-5.7997,-5.7997,-5.7997,-5.7997,-5.7997,-5.7997,-5.7997,-5.7997,-5.7997,-5.7997,-5.7997,-5.7997,-5.7997,-5.7997,-5.7997,-5.7997,-5.7997,-5.7997,-5.7997,-5.7997,-5.7997,-5.7997,-5.7997,-5.7997,-5.7997,-5.7997,-5.7997,-5.7997,-5.7997,-5.7997,-5.7997,-5.7997,-5.7997,-5.7997,-5.7997,-5.7997,-5.7997,-5.7997,-5.7997,-5.7997,0.0,-3.9239,-4.0249,-3.9237,-3.8778,-3.7624,-3.4137,-3.3109,-3.2155,-2.9537,-2.9005,-2.9005,-2.9005,-2.95,-3.1164,-3.5018,-3.6945,0.0,0.0,0.0,0.0,0.0,0.0,0.0,0.0,0.0,0.0,-6.4806,-6.5136,-6.5319,-6.5319,-6.5319,-6.576,-6.6751,-6.6788,-6.6788,-6.6788,-6.6292,-6.6054,-6.6035,-6.5228,-6.4861,-6.4824,-6.3998,-6.3613,-6.3576,-6.3044,-6.278,0.0,-6.278,-6.278,-6.278,-6.278,-6.278,-6.2636,-6.1332,-6.0849,-6.067,-5.9313,-5.8841,-5.8926,-5.941,-5.9968,-6.0396,-6.0394,-5.9844,-5.9037,-5.8229,-5.7997,-5.7997,-5.7997,-5.7997,-5.7997,-5.7997,-5.7997,-5.7997,-5.7997,-5.7997,-5.7997,-5.7997,-5.7997,-5.7997,-5.7997,-5.7997,-5.7997,-5.7997,-5.7997,-5.7997,-5.7997,-5.7997,-5.7997,-5.7997,-5.7997,-5.7997,-5.7997,-5.7997,-5.7997,-5.7997,-5.7997,-5.7997,-5.7997,-5.7997,-5.7997,-5.7997,-5.7997,-5.7997,-5.7997,-5.7997,-5.7997,-5.7997,-5.7997,-5.7997,0.0,-3.5587,-3.6886,-3.6813,-3.6299,-3.5183,-3.2858,-3.1806,0.0,-2.9317,-2.9005,-2.906,-2.9225,-3.043,-3.1806,-3.3078,0.0,0.0,0.0,0.0,0.0,0.0,0.0,0.0,0.0,-6.2658,-6.3998,-6.3998,-6.4695,-6.5136,-6.5136,-6.5136,-6.5136,-6.5136,-6.5136,-6.5191,-6.5319,-6.5246,-6.5209,-6.5209,-6.4383,-6.3998,-6.398,-6.3172,-6.278,0.0,-6.278,-6.278,-6.278,-6.278,-6.278,-6.278,-6.278,-6.278,-6.2686,-6.1897,-6.1586,-6.1474,-6.067,-6.0414,-6.0397,-6.0405,-6.0389,-6.0376,-6.0335,-5.9771,-5.9019,-5.8235,-5.7997,-5.7997,-5.7997,-5.7997,-5.7997,-5.7997,-5.7997,-5.7997,-5.7997,-5.7997,-5.7997,-5.7997,-5.7997,-5.7997,-5.7997,-5.7997,-5.7997,-5.7997,-5.7997,-5.7997,-5.7997,-5.7997,-5.7997,-5.7997,-5.7997,-5.7997,-5.7997,-5.7997,-5.7997,-5.7997,-5.7997,-5.7997,-5.7997,-5.7997,-5.7997,-5.7997,-5.7997,-5.7997,-5.7997,-5.7997,-5.7997,-5.7997,-5.7997,-5.7997,-2.7437,0.0,-3.0852,-3.0228,-3.0393,-3.0564,0.0,-3.0191,-3.021,-2.9207,0.0,-2.9555,-3.1408,-3.1568,-3.3293,-3.9074,0.0,0.0,0.0,0.0,0.0,0.0,0.0,-6.2254,-6.2254,-6.2768,-6.3117,-6.3117,-6.3301,-6.3411,-6.3411,-6.3411,-6.3411,-6.3411,-6.3411,-6.4016,-6.5301,-6.4695,-6.4383,-6.4365,-6.3521,-6.3117,-6.3099,-6.2872,-6.278,-6.278,-6.278,-6.278,-6.278,-6.278,-6.278,-6.278,-6.278,-6.278,-6.2686,-6.1897,-6.1586,-6.1474,-6.067,-6.0414,-6.04,-6.0404,-6.0412,-6.0292,-5.9674,-5.9349,-5.9019,-5.8235,-5.7997,-5.7997,-5.7997,-5.7997,-5.7997,-5.7997,-5.7997,-5.7997,-5.7997,-5.7997,-5.7997,-5.7997,-5.7997,-5.7997,-5.7997,-5.7997,-5.7997,-5.7997,-5.7997,-5.7997,-5.7997,-5.7997,-5.7997,-5.7997,-5.7997,-5.7997,-5.7997,-5.7997,-5.7997,-5.7997,-5.7997,-5.7997,-5.7997,-5.7997,-5.7997,-5.7997,-5.7997,-5.7997,-5.7997,-5.7997,-5.7997,-5.7997,-5.7997,-5.7997,-2.4871,-2.742,-3.0008,-2.9561,-3.0063,-3.0656,-3.0656,0.0,0.0,0.0,0.0,-3.0051,-3.1751,-3.2596,-3.4724,0.0,-4.1882,0.0,0.0,0.0,0.0,0.0,0.0,0.0,0.0,0.0,-6.278,-6.278,-6.278,-6.278,-6.278,-6.278,-6.278,-6.278,-6.278,-6.322,-6.4145,-6.3723,-6.3503,-6.3503,-6.3044,-6.278,-6.278,-6.278,-6.278,-6.278,-6.278,-6.278,-6.278,-6.278,-6.278,-6.278,-6.278,-6.278,-6.2755,-6.2298,-6.2148,-6.2094,-6.1632,-6.1258,-6.0963,-6.0943,-6.0455,-5.9777,-5.9313,-5.8927,-5.8565,-5.8125,-5.7997,-5.7997,-5.7997,-5.7997,-5.7997,-5.7997,-5.7997,-5.7997,-5.7997,-5.7997,-5.7997,-5.7997,-5.7997,-5.7997,-5.7997,-5.7997,-5.7997,-5.7997,-5.7997,-5.7997,-5.7997,-5.7997,-5.7997,-5.7997,-5.7997,-5.7997,-5.7997,-5.7997,-5.7997,-5.7997,-5.7997,-5.7997,-5.7997,-5.7997,-5.7997,-5.7997,-5.7997,-5.7997,-5.7997,-5.7997,-5.7997,-5.7997,-5.7997,-5.7997,-2.4795,-2.8282,-3.1617,-3.1011,-3.1825,-3.2748,-3.2619,0.0,0.0,0.0,0.0,0.0,0.0,-3.4302,0.0,0.0,0.0,0.0,0.0,0.0,0.0,0.0,0.0,0.0,-6.278,-6.278,-6.278,-6.278,-6.278,-6.278,-6.278,-6.278,-6.278,-6.278,-6.278,-6.278,-6.278,-6.278,-6.278,-6.278,-6.278,-6.278,-6.278,-6.278,-6.278,-6.278,-6.278,0.0,-6.278,-6.278,-6.278,-6.278,-6.278,-6.278,-6.278,-6.278,-6.278,-6.2762,-6.2677,-6.2089,-6.1392,-6.1263,-6.0309,-5.9166,-5.9038,-5.8547,-5.7997,-5.7997,-5.7997,-5.7997,-5.7997,-5.7997,-5.7997,-5.7997,-5.7997,-5.7997,-5.7997,-5.7997,-5.7997,-5.7997,-5.7997,-5.7997,-5.7997,-5.7997,-5.7997,-5.7997,-5.7997,-5.7997,-5.7997,-5.7997,-5.7997,-5.7997,-5.7997,-5.7997,-5.7997,-5.7997,-5.7997,-5.7997,-5.7997,-5.7997,-5.7997,-5.7997,-5.7997,-5.7997,-5.7997,-5.7997,-5.7997,-5.7997,-5.7997,-5.7997,-5.7997,-5.7997,-2.7519,-3.0797,-3.2614,-2.92,-3.0999,-3.344,-3.2748,0.0,0.0,0.0,0.0,0.0,0.0,-3.8432,-4.0616,0.0,0.0,-5.2546,0.0,0.0,-5.9496,-6.0309,0.0,-6.278,-6.278,-6.278,-6.278,-6.278,-6.278,-6.278,-6.278,-6.278,-6.278,-6.278,-6.278,-6.278,-6.278,-6.278,-6.278,-6.278,-6.278,-6.278,-6.278,-6.278,-6.278,-6.278,0.0,-6.278,-6.278,-6.278,-6.278,-6.278,-6.278,-6.278,-6.278,-6.278,-6.278,-6.2688,-6.2016,-6.1263,-6.0474,-5.9771,-5.9386,-5.9056,-5.84,-5.8107,-5.7997,-5.7997,-5.7997,-5.7997,-5.7997,-5.7997,-5.7997,-5.7997,-5.7997,-5.7997,-5.7997,-5.7997,-5.7997,-5.7997,-5.7997,-5.7997,-5.7997,-5.7997,-5.7997,-5.7997,-5.7997,-5.7997,-5.7997,-5.7997,-5.7997,-5.7997,-5.7997,-5.7997,-5.7997,-5.7997,-5.7997,-5.7997,-5.7997,-5.7997,-5.7997,-5.7997,-5.7997,-5.7997,-5.7997,-5.7997,-5.7997,-5.7997,-5.7997,-5.7997,-5.7997,-5.7997,-2.6521,-2.9714,-3.2155,-3.076,-3.377,-3.7,-3.6633,0.0,0.0,0.0,0.0,0.0,0.0,0.0,-4.3571,-4.8893,0.0,-5.4913,-5.6088,-5.796,-5.9331,0.0,0.0,-6.2144,-6.2144,-6.2548,-6.278,-6.278,-6.278,-6.278,-6.278,-6.278,-6.278,-6.278,-6.278,-6.278,-6.278,-6.278,-6.278,-6.278,-6.278,-6.278,-6.278,-6.278,-6.278,-6.278,0.0,-6.278,-6.278,-6.278,-6.278,-6.278,-6.278,-6.278,-6.2743,-6.231,-6.1887,-6.1465,-6.108,-6.0419,-5.9703,-5.9313,-5.8891,-5.8492,-5.8107,-5.7997,-5.7997,-5.7997,-5.7997,-5.7997,-5.7997,-5.7997,-5.7997,-5.7997,-5.7997,-5.7997,-5.7997,-5.7997,-5.7997,-5.7997,-5.7997,-5.7997,-5.7997,-5.7997,-5.7997,-5.7997,-5.7997,-5.7997,-5.7997,-5.7997,-5.7997,-5.7997,-5.7997,-5.7997,-5.7997,-5.7997,-5.7997,-5.7997,-5.7997,-5.7997,-5.7997,-5.7997,-5.7997,-5.7997,-5.7997,-5.7997,-5.7997,-5.7997,-5.7997,-5.7997,-5.7997,-5.7997,-2.5923,-2.8798,-3.174,-3.3156,-3.6456,-3.9549,-4.0286,-3.8891,0.0,0.0,0.0,0.0,0.0,0.0,0.0,-5.2032,-5.4693,-5.6381,-5.6987,-5.8285,-5.9184,-5.9184,-6.0456,-6.1318,-6.1318,-6.1887,-6.2254,-6.2254,-6.2254,-6.2254,-6.2254,-6.2254,-6.2328,-6.2511,-6.2346,-6.2346,-6.253,-6.2346,-6.2438,-6.278,-6.278,-6.278,-6.278,-6.278,-6.278,-6.278,-6.278,-6.278,-6.278,-6.278,-6.2695,-6.253,-6.253,-6.2401,-6.2163,-6.1557,-6.0805,-6.0126,-6.0126,-5.9593,-5.8933,-5.8933,-5.851,-5.7997,-5.7997,-5.7997,-5.7997,-5.7997,-5.7997,-5.7997,-5.7997,-5.7997,-5.7997,-5.7997,-5.7997,-5.7997,-5.7997,-5.7997,-5.7997,-5.7997,-5.7997,-5.7997,-5.7997,-5.7997,-5.7997,-5.7997,-5.7997,-5.7997,-5.7997,-5.7997,-5.7997,-5.7997,-5.7997,-5.7997,-5.7997,-5.7997,-5.7997,-5.7997,-5.7997,-5.7997,-5.7997,-5.7997,-5.7997,-5.7997,-5.7997,-5.7997,-5.7997,-5.7997,-5.7997,-5.7997,-5.7997,-5.7997,-2.8137,-3.0182,-3.2182,-3.5412,-3.6948,0.0,-4.1442,-4.1423,0.0,-4.4599,0.0,0.0,0.0,0.0,0.0,0.0,-5.673,-5.785,-5.7905,0.0,-5.9184,-5.9184,-5.996,-6.0493,-6.0493,-6.0548,-6.0566,-6.0566,-6.0566,-6.0566,-6.0566,-6.0566,-6.0915,-6.1649,-6.097,-6.0933,-6.1667,-6.0951,-6.1337,-6.278,-6.278,-6.278,-6.278,-6.278,-6.278,-6.278,-6.278,-6.278,-6.278,-6.278,-6.2365,-6.1686,-6.1686,-6.1227,-6.0566,-6.0511,-5.9997,-5.9276,-5.9276,-5.8767,-5.8088,-5.8088,-5.8052,-5.7997,-5.7997,-5.7997,-5.7997,-5.7997,-5.7997,-5.7997,-5.7997,-5.7997,-5.7997,-5.7997,-5.7997,-5.7997,-5.7997,-5.7997,-5.7997,-5.7997,-5.7997,-5.7997,-5.7997,-5.7997,-5.7997,-5.7997,-5.7997,-5.7997,-5.7997,-5.7997,-5.7997,-5.7997,-5.7997,-5.7997,-5.7997,-5.7997,-5.7997,-5.7997,-5.7997,-5.7997,-5.7997,-5.7997,-5.7997,-5.7997,-5.7997,-5.7997,-5.7997,-5.7997,-5.7997,-5.7997,-5.7997,-5.7997,-2.7003,-2.9839,-3.2842,-3.5676,-3.768,0.0,0.0,-4.3975,-4.5461,-4.7737,-4.86,0.0,0.0,0.0,0.0,0.0,-5.695,-5.7997,-5.7997,-5.8253,-5.8455,-5.8455,-5.9171,-5.9643,-5.9643,-6.0126,-6.0401,-6.0401,-6.0401,-6.0401,-6.0401,-6.0401,-6.0548,-6.0841,-6.0566,-6.0548,-6.086,-6.0548,-6.0713,-6.1318,-6.1318,-6.1318,-6.1318,-6.1318,-6.1318,-6.1318,-6.1318,-6.1318,-6.1318,-6.1318,-6.1135,-6.086,-6.086,-6.0364,-5.9643,-5.9643,-5.9153,-5.8455,-5.8455,-5.8253,-5.7997,-5.7997,-5.7997,-5.7997,-5.7997,-5.7997,-5.7997,-5.7997,-5.7997,-5.7997,-5.7997,-5.7997,-5.7997,-5.7997,-5.7997,-5.7997,-5.7997,-5.7997,-5.7997,-5.7997,-5.7997,-5.7997,-5.7997,-5.7997,-5.7997,-5.7997,-5.7997,-5.7997,-5.7997,-5.7997,-5.7997,-5.7997,-5.7997,-5.7997,-5.7997,-5.7997,-5.7997,-5.7997,-5.7997,-5.7997,-5.7997,-5.7997,-5.7997,-5.7997,-5.7997,-5.7997,-5.7997,-5.7997,-5.7997,-5.7997,-5.7997,-5.7997,-2.6761,-2.9956,-3.3526,-3.5795,0.0,0.0,-4.4342,-4.6104,-4.7846,-5.0545,-5.1151,-5.1573,-5.2876,0.0,0.0,0.0,-5.7116,-5.7997,-5.7997,-5.7997,-5.7997,-5.7997,-5.8492,-5.8822,-5.8822,-5.9318,-5.9648,-5.9648,-5.9648,-5.9648,-5.9648,-5.9648,-5.9758,-6.0015,-5.9777,-5.9758,-6.0034,-5.9777,-5.9648,-5.9648,-5.9648,-5.9924,-6.0401,-6.0401,-6.0401,-6.0401,-6.0401,-6.0401,-6.0401,-6.0401,-6.0254,-6.0015,-5.974,-5.9318,-5.8822,-5.8822,-5.8474,-5.7997,-5.7997,-5.7997,-5.7997,-5.7997,-5.7997,-5.7997,-5.7997,-5.7997,-5.7997,-5.7997,-5.7997,-5.7997,-5.7997,-5.7997,-5.7997,-5.7997,-5.7997,-5.7997,-5.7997,-5.7997,-5.7997,-5.7997,-5.7997,-5.7997,-5.7997,-5.7997,-5.7997,-5.7997,-5.7997,-5.7997,-5.7997,-5.7997,-5.7997,-5.7997,-5.7997,-5.7997,-5.7997,-5.7997,-5.7997,-5.7997,-5.7997,-5.7997,-5.7997,-5.7997,-5.7997,-5.7997,-5.7997,-5.7997,-5.7997,-5.7997,-5.7997,-5.7997,-5.7997,-5.7997,-2.8056,-3.0907,-3.4246,0.0,0.0,0.0,-4.7425,-4.7718,-4.8525,-5.3427,0.0,-5.2766,-5.5152,-5.4308,0.0,-5.6418,-5.7464,-5.7997,-5.7997,-5.7997,-5.7997,-5.7997,-5.7997,-5.7997,-5.7997,-5.7997,-5.7997,-5.7997,-5.7997,-5.7997,-5.7997,-5.7997,-5.8364,-5.9148,-5.8419,-5.8382,-5.9166,-5.84,-5.7997,-5.7997,-5.7997,-5.8822,-6.0382,-6.0382,-6.0382,-6.0382,-6.0382,-6.0382,-6.0382,-6.0382,-5.9924,-5.9093,-5.8309,-5.7997,-5.7997,-5.7997,-5.7997,-5.7997,-5.7997,-5.7997,-5.7997,-5.7997,-5.7997,-5.7997,-5.7997,-5.7997,-5.7997,-5.7997,-5.7997,-5.7997,-5.7997,-5.7997,-5.7997,-5.7997,-5.7997,-5.7997,-5.7997,-5.7997,-5.7997,-5.7997,-5.7997,-5.7997,-5.7997,-5.7997,-5.7997,-5.7997,-5.7997,-5.7997,-5.7997,-5.7997,-5.7997,-5.7997,-5.7997,-5.7997,-5.7997,-5.7997,-5.7997,-5.7997,-5.7997,-5.7997,-5.7997,-5.7997,-5.7997,-5.7997,-5.7997,-5.7997,-5.7997,-5.7997,-5.7997,-5.7997,-5.7997,-5.7997,-2.8942,-3.2188,0.0,-3.9038,0.0,0.0,0.0,-5.1169,0.0,0.0,-5.6106,-5.5611,-5.6308,0.0,0.0,-5.7124,-5.7965,-5.8484,-5.8484,-5.8484,-5.8372,-5.8024,-5.7997,-5.7997,-5.7997,-5.7997,-5.7997,-5.7997,-5.7997,-5.7997,-5.7997,-5.7997,-5.8107,-5.8345,-5.8125,-5.8107,-5.8345,-5.8125,-5.7997,-5.7997,-5.7997,-5.8253,-5.8712,-5.8712,-5.8712,-5.8712,-5.8712,-5.8712,-5.8712,-5.8712,-5.8565,-5.8327,-5.8088,-5.7997,-5.7997,-5.7997,-5.7997,-5.7997,-5.7997,-5.7997,-5.7997,-5.7997,-5.7997,-5.7997,-5.7997,-5.7997,-5.7997,-5.7997,-5.7997,-5.7997,-5.7997,-5.7997,-5.7997,-5.7997,-5.7997,-5.7997,-5.7997,-5.7997,-5.7997,-5.7997,-5.7997,-5.7997,-5.7997,-5.7997,-5.7997,-5.7997,-5.7997,-5.7997,-5.7997,-5.7997,-5.7997,-5.7997,-5.7997,-5.7997,-5.7997,-5.7997,-5.7997,-5.7997,-5.7997,-5.7997,-5.7997,-5.7997,-5.7997,-5.7997,-5.7997,-5.7997,-5.7997,-5.7997,-5.7997,-5.7997,-5.7997,-5.7997,-3.176,-3.5073,0.0,-4.2213,-4.592,-4.9682,-5.3115,0.0,0.0,0.0,0.0,-5.6528,-5.7171,-5.6912,0.0,-5.7835,-5.8537,-5.8913,-5.8735,-5.8694,-5.8526,-5.8047,-5.7997,-5.7997,-5.7997,-5.7997,-5.7997,-5.7997,-5.7997,-5.7997,-5.7997,-5.7997,-5.7997,-5.7997,-5.7997,-5.7997,-5.7997,-5.7997,-5.7997,-5.7997,-5.7997,-5.7997,-5.7997,-5.7997,-5.7997,-5.7997,-5.7997,-5.7997,-5.7997,-5.7997,-5.7997,-5.7997,-5.7997,-5.7997,-5.7997,-5.7997,-5.7997,-5.7997,-5.7997,-5.7997,-5.7997,-5.7997,-5.7997,-5.7997,-5.7997,-5.7997,-5.7997,-5.7997,-5.7997,-5.7997,-5.7997,-5.7997,-5.7997,-5.7997,-5.7997,-5.7997,-5.7997,-5.7997,-5.7997,-5.7997,-5.7997,-5.7997,-5.7997,-5.7997,-5.7997,-5.7997,-5.7997,-5.7997,-5.7997,-5.7997,-5.7997,-5.7997,-5.7997,-5.7997,-5.7997,-5.7997,-5.7997,-5.7997,-5.7997,-5.7997,-5.7997,-5.7997,-5.7997,-5.7997,-5.7997,-5.7997,-5.7997,-5.7997,-5.7997,-5.7997,-5.7997,-5.7997,-3.5331,0.0,0.0,0.0,0.0,0.0,-5.5868,-5.6914,-5.7134,-5.785,0.0,-5.6253,-5.7721,-5.7193,-5.7001,-5.8532,-5.9121,-5.9248,-5.8815,-5.8735,-5.8526,-5.8047,-5.7997,-5.7997,-5.7997,-5.7997,-5.7997,-5.7997,-5.7997,-5.7997,-5.7997,-5.7997,-5.7997,-5.7997,-5.7997,-5.7997,-5.7997,-5.7997,-5.7997,-5.7997,-5.7997,-5.7997,-5.7997,-5.7997,-5.7997,-5.7997,-5.7997,-5.7997,-5.7997,-5.7997,-5.7997,-5.7997,-5.7997,-5.7997,-5.7997,-5.7997,-5.7997,-5.7997,-5.7997,-5.7997,-5.7997,-5.7997,-5.7997,-5.7997,-5.7997,-5.7997,-5.7997,-5.7997,-5.7997,-5.7997,-5.7997,-5.7997,-5.7997,-5.7997,-5.7997,-5.7997,-5.7997,-5.7997,-5.7997,-5.7997,-5.7997,-5.7997,-5.7997,-5.7997,-5.7997,-5.7997,-5.7997,-5.7997,-5.7997,-5.7997,-5.7997,-5.7997,-5.7997,-5.7997,-5.7997,-5.7997,-5.7997,-5.7997,-5.7997,-5.7997,-5.7997,-5.7997,-5.7997,-5.7997,-5.7997,-5.7997,-5.7997,-5.7997,-5.7997,-5.7997,-5.7997,-5.7997,0.0,-3.7771,0.0,0.0,0.0,0.0,0.0,-5.774,-5.7795,-5.796,-5.7721,-5.7593,-5.7941,-5.8098,-5.8405,-5.9119,-5.9337,-5.9354,-5.9248,-5.8914,-5.8526,-5.8047,-5.7997,-5.7997,-5.7997,-5.7997,-5.7997,-5.7997,-5.7997,-5.7997,-5.7997,-5.7997,-5.7997,-5.7997,-5.7997,-5.7997,-5.7997,-5.7997,-5.7997,-5.7997,-5.7997,-5.7997,-5.7997,-5.7997,-5.7997,-5.7997,-5.7997,-5.7997,-5.7997,-5.7997,-5.7997,-5.7997,-5.7997,-5.7997,-5.7997,-5.7997,-5.7997,-5.7997,-5.7997,-5.7997,-5.7997,-5.7997,-5.7997,-5.7997,-5.7997,-5.7997,-5.7997,-5.7997,-5.7997,-5.7997,-5.7997,-5.7997,-5.7997,-5.7997,-5.7997,-5.7997,-5.7997,-5.7997,-5.7997,-5.7997,-5.7997,-5.7997,-5.7997,-5.7997,-5.7997,-5.7997,-5.7997,-5.7997,-5.7997,-5.7997,-5.7997,-5.7997,-5.7997,-5.7997,-5.7997,-5.7997,-5.7997,-5.7997,-5.7997,-5.7997,-5.7997,-5.7997,-5.7997,-5.7997,-5.7997,-5.7997,-5.7997,-5.7997,-5.7997,-5.7997,-5.7997,-5.7997,0.0,0.0,0.0,0.0,0.0,0.0,0.0,0.0,0.0,-5.7997,-5.7997,-5.807,-5.8286,-5.8715,-5.9195,-5.9661,-5.9725,-5.9661,-5.9424,-5.899,-5.8526,-5.8047,-5.7997,-5.7997,-5.7997,-5.7997,-5.7997,-5.7997,-5.7997,-5.7997,-5.7997,-5.7997,-5.7997,-5.7997,-5.7997,-5.7997,-5.7997,-5.7997,-5.7997,-5.7997,-5.7997,-5.7997,-5.7997,-5.7997,-5.7997,-5.7997,-5.7997,-5.7997,-5.7997,-5.7997,-5.7997,-5.7997,-5.7997,-5.7997,-5.7997,-5.7997,-5.7997,-5.7997,-5.7997,-5.7997,-5.7997,-5.7997,-5.7997,-5.7997,-5.7997,-5.7997,-5.7997,-5.7997,-5.7997,-5.7997,-5.7997,-5.7997,-5.7997,-5.7997,-5.7997,-5.7997,-5.7997,-5.7997,-5.7997,-5.7997,-5.7997,-5.7997,-5.7997,-5.7997,-5.7997,-5.7997,-5.7997,-5.7997,-5.7997,-5.7997,-5.7997,-5.7997,-5.7997,-5.7997,-5.7997,-5.7997,-5.7997,-5.7997,-5.7997,-5.7997,-5.7997,-5.7997,-5.7997,-5.7997,-5.7997,-5.7997,-5.7997,-5.7997,-5.7997,-5.7997,-5.7997,-5.7997,0.0,0.0,0.0,0.0,0.0,0.0,0.0,0.0,0.0,0.0,0.0,-5.8142,-5.8611,-5.9084,-5.9543,-6.0025,-6.0103,-5.9931,-5.9477,-5.899,-5.8526,-5.8047,-5.7997,-5.7997,-5.7997,-5.7997,-5.7997,-5.7997,-5.7997,-5.7997,-5.7997,-5.7997,-5.7997,-5.7997,-5.7997,-5.7997,-5.7997,-5.7997,-5.7997,-5.7997,-5.7997,-5.7997,-5.7997,-5.7997,-5.7997,-5.7997,-5.7997,-5.7997,-5.7997,-5.7997,-5.7997,-5.7997,-5.7997,-5.7997,-5.7997,-5.7997,-5.7997,-5.7997,-5.7997,-5.7997,-5.7997,-5.7997,-5.7997,-5.7997,-5.7997,-5.7997,-5.7997,-5.7997,-5.7997,-5.7997,-5.7997,-5.7997,-5.7997,-5.7997,-5.7997,-5.7997,-5.7997,-5.7997,-5.7997,-5.7997,-5.7997,-5.7997,-5.7997,-5.7997,-5.7997,-5.7997,-5.7997,-5.7997,-5.7997,-5.7997,-5.7997,-5.7997,-5.7997,-5.7997,-5.7997,-5.7997,-5.7997,-5.7997,-5.7997,-5.7997,-5.7997,-5.7997,-5.7997,-5.7997,-5.7997,-5.7997,-5.7997,-5.7997,-5.7997,-5.7997,-5.7997,-5.7997,0.0,0.0,0.0,0.0,0.0,0.0,0.0,0.0,0.0,0.0,0.0,0.0,-5.8611,-5.9084,-5.9543,-6.0025,-6.0103,-5.9931,-5.9477,-5.899,-5.8526,-5.8047,-5.7997,-5.7997,-5.7997,-5.7997,-5.7997,-5.7997,-5.7997,-5.7997,-5.7997,-5.7997,-5.7997,-5.7997,-5.7997,-5.7997,-5.7997,-5.7997,-5.7997,-5.7997,-5.7997,-5.7997,-5.7997,-5.7997,-5.7997,-5.7997,-5.7997,-5.7997,-5.7997,-5.7997,-5.7997,-5.7997,-5.7997,-5.7997,-5.7997,-5.7997,-5.7997,-5.7997,-5.7997,-5.7997,-5.7997,-5.7997,-5.7997,-5.7997,-5.7997,-5.7997,-5.7997,-5.7997,-5.7997,-5.7997,-5.7997,-5.7997,-5.7997,-5.7997,-5.7997,-5.7997,-5.7997,-5.7997,-5.7997,-5.7997,-5.7997,-5.7997,-5.7997,-5.7997,-5.7997,-5.7997,-5.7997,-5.7997,-5.7997,-5.7997,-5.7997,-5.7997,-5.7997,-5.7997,-5.7997,-5.7997,-5.7997,-5.7997,-5.7997,-5.7997,-5.7997,-5.7997,-5.7997,-5.7997,-5.7997,-5.7997,-5.7997,-5.7997,-5.7997,-5.7997,-5.7997,-5.7997,0.0,0.0,0.0,0.0,0.0,0.0,0.0,0.0,0.0,0.0,0.0,0.0,0.0,0.0,-5.9965,-6.0411,-6.0264,-6.0025,-5.9823,-5.9158,-5.8632,-5.8418,-5.8164,-5.7997,-5.7997,-5.7997,-5.7997,-5.7997,-5.7997,-5.7997,-5.7997,-5.7997,-5.7997,-5.7997,-5.7997,-5.7997,-5.7997,-5.7997,-5.7997,-5.7997,-5.7997,-5.7997,-5.7997,-5.7997,-5.7997,-5.7997,-5.7997,-5.7997,-5.7997,-5.7997,-5.7997,-5.7997,-5.7997,-5.7997,-5.7997,-5.7997,-5.7997,-5.7997,-5.7997,-5.7997,-5.7997,-5.7997,-5.7997,-5.7997,-5.7997,-5.7997,-5.7997,-5.7997,-5.7997,-5.7997,-5.7997,-5.7997,-5.7997,-5.7997,-5.7997,-5.7997,-5.7997,-5.7997,-5.7997,-5.7997,-5.7997,-5.7997,-5.7997,-5.7997,-5.7997,-5.7997,-5.7997,-5.7997,-5.7997,-5.7997,-5.7997,-5.7997,-5.7997,-5.7997,-5.7997,-5.7997,-5.7997,-5.7997,-5.7997,-5.7997,-5.7997,-5.7997,-5.7997,-5.7997,-5.7997,-5.7997,-5.7997,-5.7997,-5.7997,-5.7997,-5.7997,-5.7997,0.0,0.0,0.0,0.0,0.0,0.0,0.0,0.0,0.0,0.0,0.0,0.0,0.0,0.0,0.0,-6.0695,-6.0411,-6.0055,-5.9931,-5.9231,-5.8673,-5.8547,-5.8213,-5.7997,-5.7997,-5.7997,-5.7997,-5.7997,-5.7997,-5.7997,-5.7997,-5.7997,-5.7997,-5.7997,-5.7997,-5.7997,-5.7997,-5.7997,-5.7997,-5.7997,-5.7997,-5.7997,-5.7997,-5.7997,-5.7997,-5.7997,-5.7997,-5.7997,-5.7997,-5.7997,-5.7997,-5.7997,-5.7997,-5.7997,-5.7997,-5.7997,-5.7997,-5.7997,-5.7997,-5.7997,-5.7997,-5.7997,-5.7997,-5.7997,-5.7997,-5.7997,-5.7997,-5.7997,-5.7997,-5.7997,-5.7997,-5.7997,-5.7997,-5.7997,-5.7997,-5.8024,-5.8146,-5.8168,-5.8213,-5.8329,-5.826,-5.8168,-5.8168,-5.8092,-5.7997,-5.7997,-5.7997,-5.7997,-5.7997,-5.7997,-5.7997,-5.7997,-5.7997,-5.7997,-5.7997,-5.7997,-5.7997,-5.7997,-5.7997,-5.7997,-5.7997,-5.7997,-5.7997,-5.7997,-5.7997,-5.7997,-5.7997,-5.7997,-5.7997,-5.7997,-5.7997,-5.7997,0.0,0.0,0.0,0.0,0.0,0.0,0.0,0.0,0.0,0.0,0.0,0.0,0.0,0.0,0.0,0.0,0.0,-5.9931,-5.9492,-5.9009,-5.8528,-5.8092,-5.8001,-5.7997,-5.7997,-5.7997,-5.7997,-5.7997,-5.7997,-5.7997,-5.7997,-5.7997,-5.7997,-5.7997,-5.7997,-5.7997,-5.7997,-5.7997,-5.7997,-5.7997,-5.7997,-5.7997,-5.7997,-5.7997,-5.7997,-5.7997,-5.7997,-5.7997,-5.7997,-5.7997,-5.7997,-5.7997,-5.7997,-5.7997,-5.7997,-5.7997,-5.7997,-5.7997,-5.7997,-5.7997,-5.7997,-5.7997,-5.7997,-5.7997,-5.7997,-5.7997,-5.7997,-5.7997,-5.7997,-5.7997,-5.7997,-5.7997,-5.7997,-5.7997,-5.7997,-5.8119,-5.857,-5.8654,-5.8814,-5.923,-5.8971,-5.8654,-5.8654,-5.8286,-5.7997,-5.7997,-5.7997,-5.7997,-5.7997,-5.7997,-5.7997,-5.7997,-5.7997,-5.7997,-5.7997,-5.7997,-5.7997,-5.7997,-5.7997,-5.7997,-5.7997,-5.7997,-5.7997,-5.7997,-5.7997,-5.7997,-5.7997,-5.7997,-5.7997,-5.7997,-5.7997,-5.7997,0.0,0.0,0.0,0.0,0.0,0.0,0.0,0.0,0.0,0.0,0.0,0.0,0.0,0.0,0.0,0.0,0.0,0.0,-5.8255,-5.7633,-5.7109,-5.6926,-5.6642,-5.6455,-5.6455,-5.6688,-5.6734,-5.6481,-5.671,-5.6734,-5.6459,-5.695,-5.7226,-5.7226,-5.7721,-5.7997,-5.7997,-5.7997,-5.7997,-5.7997,-5.7997,-5.7997,-5.7997,-5.7997,-5.7997,-5.7997,-5.7997,-5.7997,-5.7997,-5.7997,-5.7997,-5.7997,-5.7997,-5.7997,-5.7997,-5.7997,-5.7997,-5.7997,-5.7997,-5.7997,-5.7997,-5.7997,-5.7997,-5.7997,-5.7997,-5.7997,-5.7997,-5.7997,-5.7997,-5.7997,-5.7997,-5.7997,-5.807,-5.8394,-5.8235,-5.8213,-5.8971,-5.8913,-5.8755,-5.8932,-5.9065,-5.9047,-5.8755,-5.8549,-5.8351,-5.8047,-5.7997,-5.7997,-5.7997,-5.7997,-5.7997,-5.7997,-5.7997,-5.7997,-5.7997,-5.7997,-5.7997,-5.7997,-5.7997,-5.7997,-5.7997,-5.7997,-5.7997,-5.7997,-5.7997,-5.7997,-5.7997,-5.7997,-5.7997,-5.7997,-5.7997,-5.7997,-2.8361,0.0,0.0,0.0,0.0,0.0,0.0,0.0,0.0,0.0,0.0,0.0,0.0,0.0,0.0,0.0,0.0,0.0,0.0,-5.6608,-5.6073,-5.6073,-5.5797,-5.5662,-5.5797,-5.6054,-5.6096,-5.5821,-5.6054,0.0,-5.5618,-5.6106,-5.64,-5.64,-5.7171,-5.7593,-5.7593,-5.7868,-5.7997,-5.7997,-5.7997,-5.7997,-5.7997,-5.7997,-5.7997,-5.7997,-5.7997,-5.7997,-5.7997,-5.7997,-5.7997,-5.7997,-5.7997,-5.7997,-5.7997,-5.7997,-5.7997,-5.7997,-5.7997,-5.7997,-5.7997,-5.7997,-5.7997,-5.7997,-5.7997,-5.7997,-5.7997,-5.7997,-5.7997,-5.7997,-5.7997,-5.7997,-5.8119,-5.8591,-5.8463,-5.8461,-5.923,-5.9158,-5.8971,-5.914,-5.9407,-5.9494,-5.9009,-5.8796,-5.8547,-5.807,-5.7997,-5.7997,-5.7997,-5.7997,-5.7997,-5.7997,-5.7997,-5.7997,-5.7997,-5.7997,-5.7997,-5.7997,-5.7997,-5.7997,-5.7997,-5.7997,-5.7997,-5.7997,-5.7997,-5.7997,-5.7997,-5.7997,-5.7997,-5.7997,-5.7997,-5.7997,0.0,0.0,0.0,0.0,0.0,0.0,0.0,0.0,0.0,0.0,0.0,0.0,0.0,0.0,0.0,0.0,0.0,0.0,0.0,0.0,-5.5563,-5.5563,-5.5563,-5.5702,-5.6102,-5.616,-5.616,-5.6121,-5.6141,-5.596,-5.5544,-5.5559,-5.5596,-5.5614,-5.6363,-5.6767,-5.6767,-5.7538,-5.7941,-5.796,-5.796,-5.7978,-5.7997,-5.7997,-5.7997,-5.7997,-5.7997,-5.7997,-5.7997,-5.7997,-5.7997,-5.7997,-5.7997,-5.7997,-5.7997,-5.7997,-5.7997,-5.7997,-5.7997,-5.7997,-5.7997,-5.7997,-5.7997,-5.7997,-5.7997,-5.7997,-5.7997,-5.7997,-5.7997,-5.7997,-5.7997,-5.7997,-5.8119,-5.8611,-5.8715,-5.8835,-5.932,-5.9407,-5.9561,-6.001,-6.0118,-5.9981,-5.9475,-5.9028,-5.8568,-5.807,-5.7997,-5.7997,-5.7997,-5.7997,-5.7997,-5.7997,-5.7997,-5.7997,-5.7997,-5.7997,-5.7997,-5.7997,-5.7997,-5.7997,-5.7997,-5.7997,-5.7997,-5.7997,-5.7997,-5.7997,-5.7997,-5.7997,-5.7997,-5.7997,-5.7997,-5.7997,-2.6928,0.0,0.0,0.0,0.0,0.0,0.0,0.0,0.0,0.0,0.0,0.0,0.0,0.0,0.0,0.0,0.0,0.0,0.0,0.0,0.0,-5.4292,-5.4292,-5.4485,-5.4933,-5.5224,-5.5142,0.0,-5.4775,-5.4651,-5.3891,-5.4418,-5.4987,-5.5596,-5.5812,-5.5923,-5.5923,-5.6143,-5.6547,-5.7134,-5.7134,-5.7446,-5.7997,-5.7997,-5.7997,-5.7997,-5.7997,-5.7997,-5.7997,-5.7997,-5.7997,-5.7997,-5.7997,-5.7997,-5.7997,-5.7997,-5.7997,-5.7997,-5.7997,-5.7997,-5.7997,-5.7997,-5.7997,-5.7997,-5.7997,-5.7997,-5.7997,-5.7997,-5.7997,-5.7997,-5.7997,-5.7997,-5.8213,-5.9009,-5.8951,-5.8932,-5.9725,-5.9901,-5.9931,-6.0069,-6.0365,-6.0351,-5.9545,-5.9284,-5.8914,-5.8119,-5.7997,-5.7997,-5.7997,-5.7997,-5.7997,-5.7997,-5.7997,-5.7997,-5.7997,-5.7997,-5.7997,-5.7997,-5.7997,-5.7997,-5.7997,-5.7997,-5.7997,-5.7997,-5.7997,-5.7997,-5.7997,-5.7997,-5.7997,-5.7997,-5.7997,-5.7997,-2.9179,-2.9448,-3.0333,-3.0929,0.0,0.0,0.0,-3.5695,0.0,0.0,0.0,0.0,0.0,0.0,0.0,0.0,0.0,0.0,0.0,0.0,0.0,0.0,-5.3088,-5.3472,-5.3905,-5.4653,-5.489,-5.4366,-5.4436,-5.4121,-5.3248,-5.3801,-5.4283,-5.4583,-5.4913,-5.5097,-5.5097,-5.5449,-5.5831,-5.6308,-5.6308,-5.673,-5.7501,-5.7501,-5.7685,-5.7997,-5.7997,-5.7997,-5.7997,-5.7997,-5.7997,-5.7997,-5.7997,-5.7997,-5.7997,-5.7997,-5.7997,-5.7997,-5.7997,-5.7997,-5.7997,-5.7997,-5.7997,-5.7997,-5.7997,-5.7997,-5.7997,-5.7997,-5.7997,-5.8047,-5.8238,-5.8304,-5.8526,-5.9458,-5.9475,-5.9475,-6.0236,-6.0397,-6.0338,-6.0146,-6.0482,-6.0565,-5.9823,-5.9693,-5.9372,-5.8439,-5.8304,-5.8235,-5.8042,-5.7997,-5.7997,-5.7997,-5.7997,-5.7997,-5.7997,-5.7997,-5.7997,-5.7997,-5.7997,-5.7997,-5.7997,-5.7997,-5.7997,-5.7997,-5.7997,-5.7997,-5.7997,-5.7997,-5.7997,-5.7997,-5.7997,-5.7997,-3.2699,-3.2333,-3.2891,-3.4865,-3.2433,0.0,-3.6631,-3.5741,-3.522,0.0,0.0,0.0,0.0,0.0,0.0,0.0,0.0,0.0,0.0,0.0,0.0,0.0,-5.2042,-5.2679,-5.3097,-5.4196,-5.4861,-5.4821,-5.4526,-5.4023,-5.3251,-5.3587,-5.3624,-5.3293,-5.3907,-5.4271,-5.4271,-5.4968,-5.5372,-5.5464,-5.5464,-5.5886,-5.6675,-5.6702,-5.7187,-5.7923,-5.7941,-5.7978,-5.807,-5.802,-5.7997,-5.7997,-5.7997,-5.7997,-5.7997,-5.7997,-5.7997,-5.7997,-5.7997,-5.7997,-5.7997,-5.7997,-5.7997,-5.7997,-5.7997,-5.7997,-5.7997,-5.7997,-5.7997,-5.8097,-5.857,-5.8694,-5.8951,-5.9885,-6.0103,-6.0236,-6.069,-6.08,-6.0678,-6.025,-6.0508,-6.0647,-6.0175,-6.0103,-5.9773,-5.8835,-5.8694,-5.8526,-5.807,-5.7997,-5.7997,-5.7997,-5.7997,-5.7997,-5.7997,-5.7997,-5.7997,-5.7997,-5.7997,-5.7997,-5.7997,-5.7997,-5.7997,-5.7997,-5.7997,-5.7997,-5.7997,-5.7997,-5.7997,-5.7997,-5.7997,-5.7997,-3.6007,-3.6238,-3.6392,-3.4834,-3.4326,0.0,-3.3241,-3.3063,-3.3799,0.0,0.0,0.0,0.0,0.0,0.0,0.0,0.0,0.0,0.0,0.0,0.0,0.0,0.0,-5.2281,-5.2677,-5.3238,-5.343,-5.3105,-5.3322,-5.3373,-5.3209,-5.3587,-5.3758,-5.3701,-5.3527,-5.3424,-5.3424,-5.3592,-5.3995,-5.4638,-5.4638,-5.506,-5.5853,-5.6171,-5.6802,-5.7583,-5.7544,-5.7934,-5.8547,-5.8164,-5.7997,-5.7997,-5.7997,-5.7997,-5.7997,-5.7997,-5.7997,-5.7997,-5.7997,-5.7997,-5.7997,-5.7997,-5.7997,-5.7997,-5.7997,-5.7997,-5.7997,-5.7997,-5.7997,-5.8097,-5.857,-5.8694,-5.8951,-5.9885,-6.0103,-6.0236,-6.069,-6.08,-6.0769,-6.069,-6.0746,-6.0647,-6.0175,-6.0103,-5.9773,-5.8835,-5.8694,-5.8526,-5.807,-5.7997,-5.7997,-5.7997,-5.7997,-5.7997,-5.7997,-5.7997,-5.7997,-5.7997,-5.7997,-5.7997,-5.7997,-5.7997,-5.7997,-5.7997,-5.7997,-5.7997,-5.7997,-5.7997,-5.7997,-5.7997,-5.7997,-5.7997,-3.9585,-3.9258,-3.8938,-3.7668,-3.6411,0.0,0.0,-3.3526,-3.3757,-3.6776,0.0,0.0,0.0,0.0,0.0,0.0,0.0,0.0,0.0,0.0,0.0,0.0,0.0,-5.0412,-5.1036,-5.1986,-5.2576,-5.2609,-5.2965,-5.3014,-5.2582,-5.3149,-5.3396,-5.3162,-5.3382,-5.3485,-5.3485,-5.3485,-5.3689,-5.4095,-5.3902,-5.4328,-5.5318,-5.5523,-5.6201,-5.721,-5.7338,-5.7649,-5.8057,-5.8024,-5.7997,-5.7997,-5.7997,-5.7997,-5.7997,-5.7997,-5.7997,-5.7997,-5.7997,-5.7997,-5.7997,-5.7997,-5.7997,-5.7997,-5.7997,-5.7997,-5.7997,-5.7997,-5.8168,-5.8461,-5.8932,-5.9212,-5.9578,-6.0278,-6.0437,-6.0508,-6.0746,-6.08,-6.08,-6.08,-6.08,-6.0734,-6.0495,-6.025,-5.987,-5.9158,-5.8855,-5.8526,-5.807,-5.7997,-5.7997,-5.7997,-5.7997,-5.7997,-5.7997,-5.7997,-5.7997,-5.7997,-5.7997,-5.7997,-5.7997,-5.7997,-5.7997,-5.7997,-5.7997,-5.7997,-5.7997,-5.7997,-5.7997,-5.7997,-5.7997,-5.7997,-4.2951,-4.2143,-4.1535,-4.0708,-3.8834,-3.7019,0.0,0.0,0.0,-3.745,0.0,0.0,0.0,0.0,0.0,0.0,0.0,0.0,0.0,0.0,0.0,0.0,0.0,-4.812,-4.8889,-4.9862,-5.0813,-5.1665,-5.1894,-5.1893,-5.1684,-5.2492,-5.286,-5.2636,-5.3255,-5.3646,-5.3796,-5.3796,-5.3796,-5.3796,-5.3381,-5.3754,-5.4764,-5.4876,-5.5595,-5.6833,-5.7095,-5.7229,-5.7319,-5.7547,-5.7702,-5.7776,-5.7941,-5.7997,-5.7997,-5.7997,-5.7997,-5.7997,-5.7997,-5.7997,-5.7997,-5.7997,-5.7997,-5.7997,-5.7997,-5.7997,-5.802,-5.8097,-5.8397,-5.8835,-5.9389,-5.9823,-6.0222,-6.069,-6.08,-6.08,-6.08,-6.08,-6.08,-6.08,-6.0734,-6.0678,-6.0678,-6.0351,-5.9901,-5.9337,-5.8933,-5.8526,-5.807,-5.7997,-5.7997,-5.7997,-5.7997,-5.7997,-5.7997,-5.7997,-5.7997,-5.7997,-5.7997,-5.7997,-5.7997,-5.7997,-5.7997,-5.7997,-5.7997,-5.7997,-5.7997,-5.8074,-5.8092,-5.7997,-5.7997,-5.7997,-4.5432,-4.5663,-4.5259,-4.1458,-4.1912,-4.1739,-3.5841,0.0,-3.5776,-3.3987,0.0,0.0,0.0,0.0,0.0,0.0,0.0,0.0,0.0,0.0,0.0,0.0,0.0,-4.624,-4.6632,-4.5754,-4.6126,-4.8443,-4.7991,-4.8558,-5.0727,-5.1652,-5.2435,-5.3091,-5.2872,-5.3087,-5.3777,-5.3796,-5.3796,-5.3796,-5.3381,-5.3477,-5.3944,-5.4371,-5.5246,-5.6463,-5.6431,-5.6629,-5.6933,-5.6555,-5.6612,-5.7024,-5.7721,-5.7997,-5.7997,-5.7997,-5.7997,-5.7997,-5.7997,-5.7997,-5.7997,-5.7997,-5.7997,-5.7997,-5.7997,-5.7997,-5.8092,-5.8505,-5.8673,-5.8894,-5.9789,-6.0055,-6.0222,-6.069,-6.08,-6.08,-6.08,-6.08,-6.08,-6.08,-6.045,-6.0175,-6.0175,-6.0132,-5.9808,-5.8913,-5.8735,-5.8526,-5.807,-5.7997,-5.7997,-5.7997,-5.7997,-5.7997,-5.7997,-5.7997,-5.7997,-5.7997,-5.7997,-5.7997,-5.7997,-5.7997,-5.7997,-5.7997,-5.7997,-5.7997,-5.7997,-5.8418,-5.8397,-5.7997,-5.7997,-5.7997,-4.5845,-4.6586,-4.6701,-4.2931,-4.2816,-4.2335,-3.7507,-3.6199,-3.5981,-3.5872,0.0,0.0,0.0,0.0,0.0,0.0,-3.5827,0.0,0.0,0.0,0.0,0.0,0.0,0.0,-4.426,-4.4371,-4.5163,-4.7259,-4.6144,-4.6721,-4.9779,-5.0517,-5.1334,-5.2416,-5.3002,-5.3601,-5.4204,-5.4449,-5.4541,-5.456,-5.3869,-5.3777,-5.4204,-5.4404,-5.4924,-5.5674,-5.6104,-5.6407,-5.6539,-5.6577,-5.6555,-5.6564,-5.765,-5.8204,-5.8397,-5.8397,-5.8397,-5.8397,-5.8397,-5.8235,-5.7997,-5.7997,-5.7997,-5.7997,-5.7997,-5.819,-5.8461,-5.8634,-5.9103,-5.9611,-5.9996,-6.0311,-6.0553,-6.0757,-6.08,-6.08,-6.08,-6.08,-6.08,-6.08,-6.0634,-6.0338,-5.9792,-5.9477,-5.9139,-5.8775,-5.8482,-5.8216,-5.8042,-5.7997,-5.7997,-5.7997,-5.8238,-5.8397,-5.8397,-5.8673,-5.8694,-5.8418,-5.8397,-5.8282,-5.802,-5.8526,-5.8674,-5.8418,-5.8674,-5.8815,-5.8815,-5.9009,-5.9009,-5.8815,-5.8815,-5.8673,-4.6374,-4.7182,-4.749,-4.3393,-4.2566,-4.1797,-3.8142,-3.6911,-3.6757,-3.7488,-3.6719,0.0,0.0,0.0,0.0,0.0,0.0,-3.4947,0.0,0.0,0.0,0.0,0.0,0.0,0.0,-4.2085,-4.2893,-4.5308,-4.3682,-4.4259,-4.8144,-4.8971,-4.9949,-5.1338,-5.2751,-5.3734,-5.4296,-5.4818,-5.5088,-5.5088,-5.4352,-5.4238,-5.4655,-5.4655,-5.4876,-5.5288,-5.5887,-5.607,-5.5982,-5.6285,-5.6274,-5.6145,-5.7085,-5.7838,-5.8447,-5.8783,-5.8894,-5.8874,-5.8755,-5.8397,-5.7997,-5.7997,-5.8092,-5.819,-5.819,-5.8526,-5.8932,-5.9047,-5.9559,-6.0132,-6.025,-6.0553,-6.08,-6.08,-6.08,-6.08,-6.08,-6.08,-6.08,-6.08,-6.069,-6.0397,-5.9709,-5.9194,-5.8796,-5.8547,-5.8235,-5.7997,-5.7997,-5.7997,-5.7997,-5.7997,-5.8418,-5.8694,-5.8694,-5.914,-5.9213,-5.8735,-5.8694,-5.8547,-5.8213,-5.8835,-5.9121,-5.8894,-5.9231,-5.9389,-5.9389,-5.9545,-5.9595,-5.9595,-5.9458,-5.9231,-4.775,-4.8086,-4.7952,-4.2055,-4.1219,-4.0731,-3.6538,-3.745,-3.87,-3.7084,-3.8642,-4.0073,-3.9361,-3.7796,-3.6365,-3.5577,0.0,0.0,0.0,0.0,0.0,0.0,0.0,0.0,0.0,-3.768,-3.75,0.0,-3.9623,-4.0392,-4.546,-4.6887,-4.8329,-5.0012,-5.1732,-5.3022,-5.3823,-5.4674,-5.5088,-5.5088,-5.4671,-5.4686,-5.5075,-5.5075,-5.5306,-5.5673,-5.5712,-5.5504,-5.5145,-5.5151,-5.5369,-5.5734,-5.5753,-5.6538,-5.7777,-5.8959,-5.9372,-5.9302,-5.8855,-5.8397,-5.7997,-5.7997,-5.8326,-5.8674,-5.8674,-5.9009,-5.9458,-5.9916,-6.0089,-6.0189,-6.0647,-6.08,-6.08,-6.08,-6.08,-6.08,-6.08,-6.08,-6.08,-6.08,-6.0424,-6.0118,-6.0069,-5.9693,-5.9065,-5.8164,-5.802,-5.7997,-5.7997,-5.7997,-5.7997,-5.7997,-5.8418,-5.8694,-5.8694,-5.914,-5.9213,-5.8735,-5.8694,-5.8694,-5.8674,-5.8694,-5.8932,-5.9354,-5.9389,-5.9389,-5.9389,-5.9855,-6.0069,-6.0069,-5.9611,-5.9389,-4.9721,-5.0644,-5.0625,-4.5229,-4.4094,-4.3066,-3.8257,-3.8277,-3.8815,-3.7065,-3.8719,-4.0073,-3.8681,-3.7488,-3.6442,-3.5635,0.0,0.0,0.0,0.0,0.0,0.0,0.0,0.0,0.0,0.0,0.0,0.0,-3.9027,0.0,-4.5364,-4.706,-4.8537,-4.996,-5.1389,-5.2663,-5.3798,-5.4405,-5.4983,-5.5489,-5.5088,-5.4966,-5.5088,-5.5088,-5.5173,-5.5319,-5.5588,-5.561,-5.5501,-5.5501,-5.5422,-5.5399,-5.6236,-5.6664,-5.6924,-5.7866,-5.8547,-5.9014,-5.9131,-5.9065,-5.8932,-5.8932,-5.9028,-5.9158,-5.9158,-5.9475,-5.9901,-6.0055,-6.0324,-6.061,-6.0757,-6.08,-6.08,-6.08,-6.08,-6.08,-6.08,-6.08,-6.08,-6.08,-6.0678,-6.045,-6.0146,-5.9981,-5.9543,-5.8611,-5.8463,-5.8351,-5.8024,-5.7997,-5.8119,-5.8439,-5.8894,-5.9284,-5.9611,-5.9773,-5.9661,-5.9176,-5.9441,-5.9337,-5.8735,-5.9576,-6.0025,-5.987,-6.0161,-6.0324,-6.0324,-6.0482,-6.0565,-6.0565,-6.0411,-6.0161,-5.1375,-5.2145,-5.2125,-4.7605,-4.649,-4.524,-4.045,-4.0489,-4.095,-3.8931,-4.0065,-4.1285,-4.0796,-3.9027,-3.7353,0.0,0.0,0.0,0.0,-2.8646,0.0,0.0,0.0,0.0,0.0,0.0,-3.5442,-3.7815,-3.7969,0.0,0.0,-4.6586,-4.8193,-4.9296,-5.1005,-5.2436,-5.3573,-5.4183,-5.4895,-5.5703,-5.5435,-5.5306,-5.5306,-5.5306,-5.5306,-5.5319,-5.5588,-5.5703,-5.5703,-5.5703,-5.5554,-5.5389,-5.6214,-5.638,-5.6295,-5.7417,-5.8064,-5.8444,-5.9001,-5.9091,-5.8993,-5.9295,-5.9509,-5.9644,-5.9644,-5.9981,-6.0351,-6.0351,-6.0565,-6.08,-6.08,-6.08,-6.08,-6.08,-6.08,-6.08,-6.08,-6.08,-6.08,-6.08,-6.08,-6.0702,-6.0411,-6.0351,-5.9962,-5.8874,-5.8694,-5.8526,-5.807,-5.8142,-5.8354,-5.8673,-5.9285,-5.9839,-6.0311,-6.0351,-6.0146,-5.9677,-5.9931,-5.9839,-5.9212,-6.0069,-6.0495,-6.0351,-6.0647,-6.08,-6.08,-6.08,-6.08,-6.08,-6.08,-6.0634]},{"header":{"parameterUnit":"m.s-1","parameterCategory":1,"la1":30.6,"la2":29.2853,"lo1":-89.7004,"lo2":-87.6739,"dy":0.0162,"dx":0.0183,"nx":112,"ny":82,"refTime":"2024-06-28T06:00:00:Z","depth":0,"parameterNumber":3,"parameterNumberName":"V-component_of_WINDS"},"data":[0.0,0.0,0.0,0.0,0.0,0.0,0.0,0.0,0.0,0.0,0.0,0.0,0.0,0.0,0.0,0.0,0.0,0.0,0.0,0.0,0.0,0.0,0.0,0.0,0.0,0.0,0.0,0.0,0.0,0.0,0.0,0.0,0.0,0.0,0.0,0.0,0.0,0.0,0.0,0.0,0.0,0.0,0.0,0.0,0.0,0.0,0.0,0.0,0.0,0.0,0.0,0.0,0.0,0.0,0.0,0.0,0.0,0.0,0.0,0.0,0.0,0.0,0.0,0.0,0.0,0.0,0.0,0.0,0.0,0.0,0.0,0.0,0.0,0.0,0.0,0.0,0.0,0.0,0.0,0.0,0.0,0.0,0.0,0.0,0.0,0.0,0.0,0.0,0.0,0.0,-2.0586,-2.2871,-2.5518,-2.6943,-2.6523,-2.6025,-2.4085,-2.0361,0.0,0.0,0.0,0.0,0.0,0.0,0.0,0.0,0.0,0.0,0.0,0.0,0.0,0.0,0.0,0.0,0.0,0.0,0.0,0.0,0.0,0.0,0.0,0.0,0.0,0.0,0.0,0.0,0.0,0.0,0.0,0.0,0.0,0.0,0.0,0.0,0.0,0.0,0.0,0.0,0.0,0.0,0.0,0.0,0.0,0.0,0.0,0.0,0.0,0.0,0.0,0.0,0.0,0.0,0.0,0.0,0.0,0.0,0.0,0.0,0.0,0.0,0.0,0.0,0.0,0.0,0.0,0.0,0.0,0.0,0.0,0.0,0.0,0.0,0.0,0.0,0.0,0.0,0.0,0.0,0.0,0.0,0.0,0.0,0.0,0.0,0.0,0.0,0.0,0.0,0.0,0.0,0.0,0.0,0.0,0.0,0.0,0.0,0.0,0.0,0.0,0.0,0.0,0.0,-2.0586,-2.5303,-2.6855,-2.7393,-2.6963,-2.6191,-2.4348,-2.119,0.0,0.0,0.0,0.0,0.0,0.0,0.0,0.0,0.0,0.0,0.0,0.0,0.0,0.0,0.0,0.0,0.0,0.0,0.0,0.0,0.0,0.0,0.0,0.0,0.0,0.0,0.0,0.0,0.0,0.0,0.0,0.0,0.0,0.0,0.0,0.0,0.0,0.0,0.0,0.0,0.0,0.0,0.0,0.0,0.0,0.0,0.0,0.0,0.0,0.0,0.0,0.0,0.0,0.0,0.0,0.0,0.0,0.0,0.0,0.0,0.0,0.0,0.0,0.0,0.0,0.0,0.0,0.0,0.0,0.0,0.0,0.0,0.0,0.0,0.0,0.0,0.0,0.0,0.0,0.0,0.0,0.0,0.0,0.0,0.0,0.0,0.0,0.0,0.0,0.0,0.0,0.0,0.0,0.0,0.0,0.0,0.0,0.0,0.0,0.0,0.0,0.0,0.0,-2.0449,-2.2487,-2.6328,-2.75,-2.7744,-2.707,-2.6181,-2.43,-2.1084,-1.9248,0.0,0.0,0.0,0.0,0.0,0.0,0.0,0.0,0.0,0.0,0.0,0.0,0.0,0.0,0.0,0.0,0.0,0.0,0.0,0.0,0.0,0.0,0.0,0.0,0.0,0.0,0.0,0.0,0.0,0.0,0.0,0.0,0.0,0.0,0.0,0.0,0.0,0.0,0.0,0.0,0.0,0.0,0.0,0.0,0.0,0.0,0.0,0.0,0.0,0.0,0.0,0.0,0.0,0.0,0.0,0.0,0.0,0.0,0.0,0.0,0.0,0.0,0.0,0.0,0.0,0.0,0.0,0.0,0.0,0.0,0.0,0.0,0.0,0.0,0.0,0.0,0.0,0.0,0.0,0.0,0.0,0.0,0.0,0.0,0.0,0.0,0.0,0.0,0.0,0.0,0.0,0.0,0.0,0.0,0.0,0.0,0.0,0.0,0.0,0.0,0.0,0.0,-2.2935,-2.4543,-2.6777,-2.7783,-2.7949,-2.709,-2.5947,-2.3926,-2.0811,-1.8672,0.0,0.0,0.0,0.0,0.0,0.0,0.0,0.0,0.0,0.0,0.0,0.0,0.0,0.0,0.0,0.0,0.0,0.0,0.0,0.0,0.0,0.0,0.0,0.0,0.0,0.0,0.0,0.0,0.0,0.0,0.0,0.0,0.0,0.0,0.0,0.0,0.0,0.0,0.0,0.0,0.0,0.0,0.0,0.0,0.0,0.0,0.0,0.0,0.0,0.0,0.0,0.0,0.0,0.0,0.0,0.0,0.0,0.0,0.0,0.0,0.0,0.0,0.0,0.0,0.0,0.0,0.0,0.0,0.0,0.0,0.0,0.0,0.0,0.0,0.0,0.0,0.0,0.0,0.0,0.0,0.0,0.0,0.0,0.0,0.0,0.0,0.0,0.0,0.0,0.0,0.0,0.0,0.0,0.0,0.0,0.0,0.0,0.0,0.0,0.0,0.0,0.0,-2.3247,-2.5879,-2.6914,-2.7783,-2.7949,-2.709,-2.5117,-2.2969,-2.0752,-1.7846,0.0,0.0,0.0,0.0,0.0,0.0,0.0,0.0,0.0,0.0,0.0,0.0,0.0,0.0,0.0,0.0,0.0,0.0,0.0,0.0,0.0,0.0,0.0,0.0,0.0,0.0,0.0,0.0,0.0,0.0,0.0,0.0,0.0,0.0,0.0,0.0,0.0,0.0,0.0,0.0,0.0,0.0,0.0,0.0,0.0,0.0,0.0,0.0,0.0,0.0,0.0,0.0,0.0,0.0,0.0,0.0,0.0,0.0,0.0,0.0,0.0,0.0,0.0,0.0,0.0,0.0,0.0,0.0,0.0,0.0,0.0,0.0,0.0,0.0,0.0,0.0,0.0,0.0,0.0,0.0,0.0,0.0,0.0,0.0,0.0,0.0,0.0,0.0,0.0,0.0,0.0,0.0,0.0,0.0,0.0,0.0,0.0,0.0,0.0,0.0,0.0,0.0,-2.2959,-2.5273,-2.7217,-2.7939,-2.7949,-2.709,-2.5781,-2.373,-2.0791,0.0,0.0,0.0,0.0,0.0,0.0,0.0,0.0,0.0,0.0,0.0,0.0,0.0,0.0,0.0,0.0,0.0,0.0,0.0,0.0,0.0,0.0,0.0,0.0,0.0,0.0,0.0,0.0,0.0,0.0,0.0,0.0,0.0,0.0,0.0,0.0,0.0,0.0,0.0,0.0,0.0,0.0,0.0,0.0,0.0,0.0,0.0,0.0,0.0,0.0,0.0,0.0,0.0,0.0,0.0,0.0,0.0,0.0,0.0,0.0,0.0,0.0,0.0,0.0,0.0,0.0,0.0,0.0,0.0,0.0,0.0,0.0,0.0,0.0,0.0,0.0,0.0,0.0,0.0,0.0,0.0,0.0,0.0,0.0,0.0,0.0,0.0,0.0,0.0,0.0,0.0,0.0,0.0,0.0,0.0,0.0,0.0,0.0,0.0,0.0,0.0,0.0,-2.08,-2.3052,-2.5244,-2.7483,-2.8047,-2.7949,-2.709,-2.585,-2.376,-2.0595,0.0,0.0,0.0,0.0,0.0,0.0,0.0,0.0,0.0,0.0,0.0,0.0,0.0,0.0,0.0,0.0,0.0,0.0,0.0,0.0,0.0,0.0,0.0,0.0,0.0,0.0,0.0,0.0,0.0,0.0,0.0,0.0,0.0,0.0,0.0,0.0,0.0,0.0,0.0,0.0,0.0,0.0,0.0,0.0,0.0,0.0,0.0,0.0,0.0,0.0,0.0,0.0,0.0,0.0,0.0,0.0,0.0,0.0,0.0,0.0,0.0,0.0,0.0,0.0,0.0,0.0,0.0,0.0,0.0,0.0,0.0,0.0,0.0,0.0,0.0,0.0,0.0,0.0,0.0,0.0,0.0,0.0,0.0,0.0,0.0,0.0,0.0,0.0,0.0,0.0,0.0,0.0,0.0,0.0,0.0,0.0,0.0,0.0,0.0,0.0,0.0,0.0,-2.0927,-2.3832,-2.624,-2.7539,-2.8047,-2.7949,-2.709,-2.5049,-2.2695,0.0,0.0,0.0,0.0,0.0,0.0,0.0,0.0,0.0,0.0,0.0,0.0,0.0,0.0,0.0,0.0,0.0,0.0,0.0,0.0,0.0,0.0,0.0,0.0,0.0,0.0,0.0,0.0,0.0,0.0,0.0,0.0,0.0,0.0,0.0,0.0,0.0,0.0,0.0,0.0,0.0,0.0,0.0,0.0,0.0,0.0,0.0,0.0,0.0,0.0,0.0,0.0,0.0,0.0,0.0,0.0,0.0,0.0,0.0,0.0,0.0,0.0,0.0,0.0,0.0,0.0,0.0,0.0,0.0,0.0,0.0,0.0,0.0,0.0,0.0,0.0,0.0,0.0,0.0,0.0,0.0,0.0,0.0,0.0,0.0,0.0,0.0,0.0,0.0,0.0,0.0,0.0,0.0,0.0,0.0,0.0,0.0,0.0,0.0,0.0,0.0,0.0,0.0,-2.1377,-2.4062,-2.6298,-2.7939,-2.8223,-2.7949,-2.709,-2.5879,-2.3789,-2.0576,0.0,0.0,0.0,0.0,0.0,0.0,0.0,0.0,0.0,0.0,0.0,0.0,0.0,0.0,0.0,0.0,0.0,0.0,0.0,0.0,0.0,0.0,0.0,0.0,0.0,0.0,0.0,0.0,0.0,0.0,0.0,0.0,0.0,0.0,0.0,0.0,0.0,0.0,0.0,0.0,0.0,0.0,0.0,0.0,0.0,0.0,0.0,0.0,0.0,0.0,0.0,0.0,0.0,0.0,0.0,0.0,0.0,0.0,0.0,0.0,0.0,0.0,0.0,0.0,0.0,0.0,0.0,0.0,0.0,0.0,0.0,0.0,0.0,0.0,0.0,0.0,0.0,0.0,0.0,0.0,0.0,0.0,0.0,0.0,0.0,0.0,0.0,0.0,0.0,0.0,0.0,0.0,0.0,0.0,0.0,0.0,0.0,0.0,0.0,0.0,0.0,0.0,-2.1797,-2.4394,-2.6592,-2.8125,-2.8291,-2.7949,-2.709,-2.6181,-2.4258,-2.082,0.0,0.0,0.0,0.0,0.0,0.0,0.0,0.0,0.0,0.0,0.0,0.0,0.0,0.0,0.0,0.0,0.0,0.0,0.0,0.0,0.0,0.0,0.0,0.0,0.0,0.0,0.0,0.0,0.0,0.0,0.0,0.0,0.0,0.0,0.0,0.0,0.0,0.0,0.0,0.0,0.0,0.0,0.0,0.0,0.0,0.0,0.0,0.0,0.0,0.0,0.0,0.0,0.0,0.0,0.0,0.0,0.0,0.0,0.0,0.0,0.0,0.0,0.0,0.0,0.0,0.0,0.0,0.0,0.0,0.0,0.0,0.0,0.0,0.0,0.0,0.0,0.0,0.0,0.0,0.0,0.0,0.0,0.0,0.0,0.0,0.0,0.0,0.0,0.0,0.0,0.0,0.0,0.0,0.0,0.0,0.0,0.0,0.0,0.0,0.0,0.0,0.0,-2.2178,-2.4775,-2.6875,-2.8154,-2.8291,-2.7949,-2.709,-2.622,-2.4355,-2.0997,0.0,0.0,0.0,0.0,0.0,0.0,0.0,0.0,0.0,0.0,0.0,0.0,0.0,0.0,0.0,0.0,0.0,0.0,0.0,0.0,0.0,0.0,0.0,0.0,0.0,0.0,0.0,0.0,0.0,0.0,0.0,0.0,0.0,0.0,0.0,0.0,0.0,0.0,0.0,0.0,0.0,0.0,0.0,0.0,0.0,0.0,0.0,0.0,0.0,0.0,0.0,0.0,0.0,0.0,0.0,0.0,0.0,0.0,0.0,0.0,-1.7266,-1.6171,0.0,0.0,0.0,0.0,0.0,0.0,0.0,0.0,0.0,0.0,0.0,0.0,0.0,0.0,0.0,0.0,0.0,0.0,0.0,0.0,0.0,0.0,0.0,0.0,0.0,0.0,0.0,0.0,0.0,0.0,0.0,0.0,0.0,0.0,0.0,0.0,0.0,0.0,0.0,0.0,-2.2178,-2.4775,-2.6875,-2.8154,-2.8291,-2.7949,-2.709,-2.6543,-2.5059,-2.2275,-1.9633,0.0,0.0,0.0,0.0,0.0,0.0,0.0,0.0,0.0,0.0,0.0,0.0,0.0,0.0,0.0,0.0,0.0,0.0,0.0,0.0,0.0,0.0,0.0,0.0,0.0,0.0,0.0,0.0,0.0,0.0,0.0,0.0,0.0,0.0,0.0,0.0,0.0,0.0,0.0,0.0,0.0,0.0,0.0,0.0,0.0,0.0,0.0,0.0,0.0,0.0,0.0,0.0,0.0,0.0,0.0,0.0,0.0,0.0,0.0,-1.9853,-1.8588,0.0,0.0,0.0,0.0,0.0,0.0,0.0,0.0,0.0,0.0,0.0,0.0,0.0,0.0,0.0,0.0,0.0,0.0,0.0,0.0,0.0,0.0,0.0,0.0,0.0,0.0,0.0,0.0,0.0,0.0,0.0,0.0,0.0,0.0,0.0,0.0,0.0,0.0,0.0,0.0,-2.2793,-2.5215,-2.71,-2.8174,-2.8291,-2.7949,-2.709,-2.6631,-2.5121,-2.2111,-1.9747,0.0,0.0,0.0,0.0,0.0,0.0,0.0,0.0,0.0,0.0,0.0,0.0,0.0,0.0,0.0,0.0,0.0,0.0,0.0,0.0,0.0,0.0,0.0,0.0,0.0,0.0,0.0,0.0,0.0,0.0,0.0,0.0,0.0,0.0,0.0,0.0,0.0,0.0,0.0,0.0,0.0,0.0,0.0,0.0,0.0,0.0,0.0,0.0,0.0,0.0,0.0,0.0,0.0,-2.3422,-2.4228,-2.459,-2.4932,-2.5527,-2.6064,-2.2803,-2.1777,-2.2285,-2.0216,0.0,0.0,0.0,0.0,0.0,0.0,0.0,0.0,0.0,0.0,0.0,0.0,0.0,0.0,0.0,0.0,0.0,0.0,0.0,0.0,0.0,0.0,-2.2754,-2.3105,-2.3935,-2.3789,-2.0625,0.0,0.0,0.0,0.0,0.0,0.0,0.0,0.0,0.0,0.0,0.0,-2.3584,-2.5791,-2.7432,-2.8213,-2.8291,-2.7949,-2.709,-2.6699,-2.5081,-2.1798,-1.9731,-1.7442,0.0,0.0,0.0,0.0,0.0,0.0,0.0,0.0,0.0,0.0,0.0,0.0,0.0,0.0,0.0,0.0,0.0,0.0,0.0,0.0,0.0,0.0,0.0,0.0,0.0,0.0,0.0,0.0,0.0,0.0,0.0,0.0,-1.2613,-1.3568,0.0,0.0,0.0,0.0,0.0,0.0,0.0,0.0,0.0,0.0,0.0,0.0,0.0,-2.2168,-2.3643,-2.4961,-2.583,-2.626,-2.7178,-2.7646,-2.7705,-2.7754,-2.8047,-2.8447,-2.7568,0.0,-2.4587,-2.3125,0.0,0.0,0.0,0.0,0.0,0.0,0.0,0.0,0.0,0.0,0.0,0.0,0.0,0.0,0.0,0.0,0.0,0.0,0.0,0.0,0.0,0.0,-2.581,-2.5859,-2.5713,-2.5479,-2.54,-2.2705,-2.0067,-1.9053,-1.8311,-1.7637,0.0,0.0,0.0,0.0,0.0,0.0,-2.4102,-2.623,-2.7816,-2.8242,-2.8291,-2.7949,-2.709,-2.6963,-2.575,-2.2943,-2.0856,-1.8733,-1.6556,-1.3968,0.0,0.0,0.0,0.0,0.0,0.0,0.0,0.0,0.0,0.0,0.0,0.0,0.0,0.0,0.0,0.0,0.0,0.0,0.0,0.0,0.0,0.0,0.0,0.0,0.0,0.0,0.0,0.0,0.0,-1.2313,-1.418,-1.4747,-1.5098,-1.5098,0.0,0.0,0.0,0.0,0.0,0.0,0.0,0.0,0.0,-2.31,-2.418,-2.5244,-2.623,-2.7285,-2.79,-2.8096,-2.8955,-2.9365,-2.9375,-2.9629,-2.9853,-3.0019,-2.9834,-2.9072,-2.7812,-2.6045,-2.4443,-2.3061,0.0,0.0,0.0,0.0,-2.2217,-2.2344,-2.3574,-2.3682,-2.3223,-2.291,0.0,0.0,0.0,0.0,0.0,0.0,0.0,-2.375,-2.4502,-2.6064,-2.7519,-2.7754,-2.7851,-2.7871,-2.7822,-2.6094,-2.4059,-2.2178,-2.1514,-2.0664,-1.8779,-1.8652,0.0,0.0,0.0,-2.3169,-2.4894,-2.6621,-2.7822,-2.8252,-2.8291,-2.7949,-2.709,-2.6317,-2.4776,-2.2166,-2.0231,-1.834,-1.632,-1.4643,-1.3386,0.0,0.0,0.0,0.0,0.0,0.0,0.0,0.0,0.0,0.0,0.0,0.0,0.0,0.0,0.0,0.0,0.0,0.0,0.0,0.0,0.0,0.0,0.0,0.0,0.0,0.0,0.0,0.0,-1.4228,-1.5605,-1.6025,-1.6943,-1.7126,0.0,0.0,0.0,0.0,0.0,0.0,-2.1711,-2.3359,-2.4785,-2.5859,-2.7041,-2.7871,-2.8364,-2.9053,-2.9424,-2.9434,-3.0068,-3.0371,-3.0391,-3.0732,-3.0889,-3.0889,-3.0889,-3.0693,-3.0225,-2.8301,-2.6865,-2.584,-2.5293,-2.4697,-2.4277,-2.539,-2.5527,-2.5498,-2.7226,-2.7334,-2.6641,-2.6201,-2.54,-2.4336,-2.2875,0.0,0.0,0.0,0.0,-2.5664,-2.6758,-2.7822,-2.8701,-2.9014,-2.9336,-2.9482,-2.915,-2.8594,-2.7503,-2.5078,-2.4443,-2.3535,-2.1172,-2.1025,0.0,-2.123,-2.2793,-2.4426,-2.583,-2.71,-2.7949,-2.8262,-2.8291,-2.7949,-2.709,-2.5773,-2.3932,-2.137,-1.9652,-1.7867,-1.6006,-1.517,-1.4369,-1.3561,0.0,0.0,0.0,0.0,0.0,0.0,0.0,0.0,0.0,0.0,0.0,0.0,0.0,0.0,0.0,0.0,0.0,0.0,0.0,0.0,0.0,0.0,0.0,0.0,0.0,0.0,0.0,0.0,0.0,-1.7832,-1.8994,0.0,0.0,0.0,0.0,-2.0351,-2.2353,-2.3935,-2.4842,-2.6544,-2.7646,-2.8115,-2.8984,-2.9639,-3.0068,-3.0547,-3.0791,-3.0791,-3.083,-3.0859,-3.0859,-3.0879,-3.0889,-3.0889,-3.0889,-3.0879,-3.0752,-2.9385,-2.8545,-2.8047,-2.7217,-2.6855,-2.6875,-2.7353,-2.7571,-2.7578,-2.8086,-2.7969,-2.7725,-2.8476,-2.7871,-2.6904,-2.7217,-2.6445,0.0,0.0,-2.7402,-2.8203,-2.8672,-2.915,-2.9567,-2.9531,-2.9551,-2.956,-2.9597,-2.9502,-2.8955,-2.7197,-2.6152,-2.5449,-2.492,0.0,-2.4851,-2.4851,-2.5615,-2.6406,-2.6885,-2.7715,-2.8271,-2.8291,-2.8291,-2.7949,-2.709,-2.5773,-2.3932,-2.137,-1.9652,-1.7969,-1.6357,-1.5671,-1.507,-1.4469,-1.3926,0.0,0.0,0.0,0.0,0.0,0.0,0.0,0.0,0.0,0.0,0.0,0.0,0.0,0.0,0.0,0.0,0.0,0.0,0.0,0.0,0.0,0.0,0.0,0.0,0.0,0.0,0.0,0.0,-2.042,-2.1631,0.0,-2.1346,-2.2334,-2.3178,-2.3482,-2.5262,-2.6533,-2.7109,-2.8305,-2.9082,-2.9502,-3.0107,-3.0625,-3.1045,-3.1211,-3.1435,-3.1719,-3.1719,-3.1719,-3.1719,-3.1719,-3.1719,-3.1719,-3.1719,-3.1719,-3.168,-3.1201,-3.042,-2.9482,-2.918,-2.8896,-2.8711,-2.9141,-2.9297,-2.9355,-2.9814,-2.9668,-2.9297,-2.9326,-2.8838,-2.8271,-2.8428,-2.8154,-2.7799,-2.8154,-2.8857,-2.9551,-2.9707,-3.0078,-3.042,-3.042,-3.042,-3.042,-3.042,-3.0185,-2.9795,-2.918,-2.8154,-2.7158,-2.6445,-2.6094,-2.5517,-2.4266,-2.5605,-2.6567,-2.6057,-2.7318,-2.8291,-2.8291,-2.8291,-2.7949,-2.709,-2.4802,-2.2749,-2.1304,-1.8675,-1.6905,-1.6321,-1.5885,-1.5404,-1.4816,-1.4076,-1.2835,0.0,0.0,0.0,0.0,0.0,0.0,0.0,0.0,0.0,0.0,0.0,0.0,0.0,0.0,0.0,0.0,0.0,0.0,0.0,0.0,0.0,0.0,0.0,0.0,0.0,0.0,-2.1378,-2.2207,-2.3701,-2.4434,-2.3848,-2.5098,-2.6055,-2.6192,-2.7542,-2.8496,-2.8906,-2.9619,-3.0205,-3.0625,-3.0937,-3.1309,-3.1728,-3.1738,-3.1885,-3.2229,-3.2229,-3.2229,-3.2229,-3.2229,-3.2229,-3.2229,-3.2229,-3.2229,-3.2229,-3.2229,-3.165,-3.085,-3.0703,-3.0391,-3.0049,-3.0322,-3.043,-3.0478,-3.0781,-3.0693,-3.0381,-3.0107,-2.9824,-2.958,-2.958,-2.958,-2.958,-2.958,-2.999,-3.043,-3.043,-3.0664,-3.0889,-3.0889,-3.0889,-3.0889,-3.0889,-3.0644,-3.043,-3.043,-2.9512,-2.8545,-2.7978,-2.7646,-2.6985,-2.554,-2.6645,-2.7319,-2.6514,-2.75,-2.8291,-2.8291,-2.8291,-2.7781,-2.6435,-2.3988,-2.1892,-2.0433,-1.7786,-1.6226,-1.6126,-1.5838,-1.5504,-1.5117,-1.4099,-1.3153,-1.2226,0.0,0.0,0.0,0.0,0.0,0.0,0.0,0.0,0.0,0.0,0.0,0.0,0.0,0.0,0.0,0.0,0.0,0.0,0.0,0.0,0.0,0.0,0.0,-1.9385,-2.0889,-2.2314,-2.3237,-2.5213,-2.6123,-2.5331,-2.6799,-2.7963,-2.832,-2.9131,-2.9785,-3.0195,-3.0654,-3.1094,-3.1504,-3.1533,-3.1748,-3.2187,-3.2248,-3.2258,-3.2268,-3.2268,-3.2268,-3.2268,-3.2268,-3.2268,-3.2268,-3.2268,-3.2268,-3.2268,-3.2268,-3.2207,-3.2148,-3.1709,-3.1279,-3.0908,-3.0908,-3.0898,-3.0889,-3.0889,-3.0889,-3.0889,-3.0889,-3.0889,-3.0889,-3.0889,-3.0889,-3.0889,-3.0889,-3.0889,-3.0889,-3.0889,-3.0889,-3.0889,-3.0889,-3.0889,-3.0889,-3.0889,-3.0889,-3.0889,-3.0889,-3.0195,-2.9665,-2.959,-2.9636,-2.9424,-2.8949,-2.8871,0.0,-2.8315,-2.8301,-2.8291,-2.8291,-2.8237,-2.7328,-2.5197,-2.3401,-2.1377,-1.8856,-1.719,-1.6126,-1.5791,-1.5558,-1.545,-1.5437,-1.4285,-1.4017,-1.4673,0.0,0.0,0.0,0.0,0.0,0.0,0.0,0.0,0.0,0.0,0.0,0.0,0.0,0.0,0.0,0.0,0.0,0.0,0.0,0.0,0.0,-1.8939,-2.0628,-2.1498,-2.3105,-2.4793,-2.63,-2.7226,-2.792,-2.8291,-2.9043,-2.9551,-2.9668,-3.0205,-3.0576,-3.0693,-3.1113,-3.1396,-3.1514,-3.1826,-3.2197,-3.2617,-3.2627,-3.2773,-3.3076,-3.3076,-3.3076,-3.3076,-3.3076,-3.3076,-3.3076,-3.3076,-3.3076,-3.3076,-3.3076,-3.29,-3.2578,-3.2158,-3.1728,-3.1348,-3.1348,-3.1152,-3.0889,-3.0889,-3.0889,-3.0889,-3.0889,-3.0889,-3.0889,-3.0889,-3.0889,-3.0889,-3.0889,-3.0889,-3.0889,-3.0889,-3.0889,-3.0889,-3.0889,-3.0889,-3.0889,-3.0889,-3.0889,-3.0889,-3.0889,-3.0693,-3.042,-3.0078,-2.9766,-2.9176,-2.7902,-2.8374,-2.8484,-2.7298,-2.7809,-2.8291,-2.8291,-2.733,-2.6223,-2.5093,-2.2266,-2.0002,-1.8792,-1.6939,-1.5912,-1.5784,-1.5752,-1.6011,-1.6677,-1.5555,-1.5486,0.0,0.0,0.0,0.0,0.0,0.0,0.0,0.0,0.0,0.0,0.0,0.0,0.0,0.0,0.0,0.0,0.0,0.0,0.0,0.0,0.0,0.0,-2.0418,-2.2373,-2.4375,-2.5527,-2.6652,-2.7793,-2.8613,-2.9287,-2.9785,-3.0225,-3.0488,-3.0488,-3.0898,-3.1152,-3.1152,-3.1562,-3.1865,-3.2051,-3.2305,-3.2627,-3.3057,-3.3057,-3.3184,-3.3418,-3.3418,-3.3418,-3.3418,-3.3418,-3.3418,-3.3418,-3.3418,-3.3418,-3.3418,-3.3418,-3.3281,-3.3018,0.0,0.0,0.0,0.0,-3.1367,-3.1133,-3.0957,-3.0889,-3.0889,-3.0889,-3.0889,-3.0889,-3.0889,-3.0889,-3.0889,-3.0889,-3.0889,-3.0889,-3.0889,-3.0889,-3.0889,-3.0889,-3.0889,-3.0889,-3.0889,-3.0889,-3.0889,-3.0889,-3.0889,0.0,-3.0537,-3.0283,-2.9755,-2.869,-2.8885,-2.8615,-2.6909,-2.7094,-2.7114,-2.6499,-2.5663,-2.4634,-2.3488,-2.1307,0.0,0.0,0.0,-1.5905,-1.5658,-1.6139,0.0,0.0,0.0,0.0,0.0,0.0,0.0,0.0,-1.8969,-1.9342,0.0,0.0,0.0,0.0,0.0,0.0,0.0,0.0,0.0,0.0,0.0,0.0,0.0,0.0,0.0,0.0,-2.168,-2.4122,-2.7083,-2.7641,-2.7927,-2.8467,-2.9502,-3.0215,-3.0273,-3.0644,-3.0908,-3.0957,-3.1309,-3.1543,-3.1592,0.0,0.0,0.0,0.0,-3.3047,-3.3418,-3.3418,-3.3418,-3.3418,-3.3418,-3.3418,-3.3418,-3.3418,-3.3418,-3.3418,-3.3418,-3.3418,-3.3418,-3.3418,-3.3418,-3.3379,-3.2959,-3.2568,-3.2187,-3.1758,-3.1592,-3.1533,-3.1103,0.0,0.0,-3.0908,-3.0889,-3.0889,-3.0889,-3.0889,-3.0889,-3.0889,-3.0889,-3.0889,-3.0889,-3.0889,-3.0889,-3.0889,-3.0889,-3.0889,-3.0889,-3.0889,-3.0889,-3.0889,-3.0889,-3.0889,-3.0889,-3.0889,-3.0694,-3.0093,-2.9676,-2.868,-2.6776,-2.614,-2.5368,-2.3941,0.0,0.0,-2.1226,-2.0478,-1.9396,-1.7707,-1.6787,-1.6086,-1.5565,-1.6706,-1.7371,-1.7371,-1.8945,-2.0468,-2.1812,-2.2198,-2.231,-2.2242,-1.9634,-1.982,0.0,0.0,0.0,0.0,0.0,0.0,0.0,0.0,0.0,0.0,0.0,0.0,0.0,0.0,0.0,-1.8532,-2.1481,-2.4153,-2.6154,-2.7186,-2.8284,-2.9645,-3.0049,-3.0342,-3.0723,-3.084,-3.1035,-3.1367,-3.1475,-3.167,-3.2021,-3.2441,-3.2715,-3.2793,-3.3125,-3.334,-3.3418,-3.3418,-3.3418,-3.3418,0.0,0.0,-3.3418,-3.3418,-3.3418,-3.3418,-3.3418,-3.3418,-3.3418,-3.3418,-3.3418,-3.3379,-3.2959,-3.2744,-3.2627,-3.2197,-3.2041,-3.1982,-3.1543,-3.1396,-3.1338,-3.0996,-3.0889,-3.0889,-3.0889,-3.0889,0.0,-3.0889,-3.0889,-3.0889,-3.0889,-3.0889,-3.0889,-3.0889,-3.0889,-3.0889,-3.0889,-3.0889,-3.0889,-3.0889,-3.0889,-3.0889,-3.0889,-3.0889,-3.0421,-2.8987,-2.8394,-2.7463,-2.5483,-2.4891,-2.4434,-2.3855,-2.2758,-2.1782,-2.1241,-1.9734,-1.8483,-1.7668,-1.6974,-1.6573,-1.646,-1.7692,-1.8364,-1.8268,-1.9662,-2.0539,-2.071,-2.0785,-2.1119,-2.167,-2.1585,-2.1375,0.0,0.0,0.0,0.0,0.0,0.0,0.0,0.0,0.0,0.0,0.0,-1.4458,-1.4902,0.0,-1.7096,-1.9539,-2.2097,-2.4535,-2.6679,-2.747,-2.8073,-2.8903,-2.9197,-2.9404,-2.963,-3.0401,-3.1064,-3.1484,-3.1719,-3.2031,-3.2461,-3.2881,-3.3105,-3.3105,-3.331,-3.3525,-3.375,-3.375,-3.3857,-3.4062,-3.4062,-3.4062,-3.4062,-3.4062,-3.4062,-3.4053,-3.3838,-3.375,-3.373,-3.3516,-3.3418,-3.3398,-3.3193,-3.3105,-3.3057,-3.2637,-3.248,-3.2422,-3.1992,-3.1699,-3.1484,-3.1269,-3.1064,-3.0889,-3.0889,-3.0889,-3.0889,-3.0889,-3.0889,-3.0889,-3.0889,-3.0889,-3.0889,-3.0889,-3.0889,-3.0889,-3.0889,-3.0889,-3.0645,-2.9835,-2.9648,-2.9403,-2.8614,-2.8426,-2.8426,-2.8417,-2.7357,-2.5906,-2.4031,-2.3441,-2.2751,-2.1695,-2.0931,-2.0751,-2.1361,-2.0444,-1.9249,-1.7903,-1.7395,-1.7081,-1.6934,-1.801,-1.8632,-1.8753,-2.0234,-2.1098,-2.1128,-2.1366,-2.1285,-2.0995,-2.132,-2.1503,0.0,0.0,0.0,0.0,0.0,0.0,0.0,0.0,-1.6691,-1.6951,-1.6609,-1.6381,-1.6572,-1.7288,-1.8516,-2.0514,-2.2533,-2.4563,-2.6579,-2.6955,-2.7116,-2.7411,-2.7745,-2.8051,-2.8358,-2.9724,-3.0877,-3.1552,-3.2051,-3.2471,-3.2891,-3.3242,-3.3457,-3.3545,-3.3545,-3.376,-3.4189,-3.4189,-3.4365,-3.4697,-3.4697,-3.4697,-3.4697,-3.4697,-3.4697,-3.4678,-3.4258,-3.4072,-3.4033,-3.3603,-3.3418,-3.3418,-3.3418,-3.3418,-3.3379,-3.3037,-3.292,-3.2861,-3.2441,-3.2012,-3.1631,-3.1543,-3.123,-3.0889,-3.0889,-3.0889,-3.0889,-3.0889,-3.0889,-3.0889,-3.0889,-3.0889,-3.083,-3.0518,-3.0392,-3.0333,-3.003,-2.9962,-2.953,-2.8179,-2.7931,-2.7503,-2.6219,-2.5741,-2.5984,-2.7271,-2.6037,-2.4348,-2.255,-2.1913,-2.1073,-1.9654,-1.9457,-1.9982,-2.1472,-2.1279,-2.038,-1.8721,-1.8084,-1.7708,-1.7474,-1.8382,-1.8911,-1.8876,-2.0498,-2.1283,-2.1254,-2.1545,-2.1186,-2.0172,-2.0172,-2.0922,-1.5907,-1.6892,-1.7842,-1.8652,-1.8926,-1.9389,0.0,0.0,-1.8734,-1.8742,-1.803,-1.7506,-1.7776,-1.8357,-1.8948,-1.954,-2.1625,-2.3308,-2.3596,-2.3871,-2.4601,-2.604,-2.6263,-2.6832,-2.8239,-2.8932,-3.0121,-3.2,-3.249,-3.291,-3.333,-3.3398,-3.3603,-3.3994,-3.4004,-3.4199,-3.4629,-3.4629,-3.4658,-3.4697,-3.4697,-3.4697,-3.4697,-3.4697,-3.4697,-3.4678,-3.4258,-3.4072,-3.4033,-3.3603,-3.3418,-3.3418,-3.3418,-3.3418,-3.3418,-3.3369,-3.335,-3.3291,-3.2871,-3.2441,-3.2031,-3.1641,-3.123,-3.0889,-3.0889,-3.0889,-3.0889,-3.0889,-3.0889,-3.0889,-3.0889,-3.0889,-3.0518,-2.903,-2.8664,-2.8298,-2.6832,-2.653,-2.647,-2.628,-2.6288,-2.6219,-2.6037,-2.484,-2.3938,-2.4124,-2.3962,-2.3093,-2.1149,-2.0605,-2.0247,-1.978,-1.9519,-1.9982,-2.1472,-2.1279,-2.1,-2.0766,-1.9299,-1.8377,-1.8343,-1.9571,-1.9726,-1.855,-1.9907,-2.0044,-1.8865,-1.8954,-1.9001,-1.909,-1.909,-1.9906,-1.8695,-1.9424,0.0,0.0,-2.1271,-2.1147,-2.1867,-2.0521,-1.9227,-1.9494,-1.8877,-1.8404,-1.8475,-1.9038,-1.9533,0.0,-2.1686,-2.314,-2.3335,-2.3484,-2.3801,-2.426,-2.4469,-2.5627,-2.8179,-2.9647,-3.094,-3.2129,-3.2559,-3.2978,-3.3398,-3.3418,-3.3623,-3.4062,-3.4072,-3.4404,-3.5098,-3.5107,-3.5225,-3.5469,-3.5469,-3.5469,-3.5469,-3.5469,-3.5332,-3.5078,-3.4629,-3.4297,-3.4033,-3.3603,-3.3418,-3.3292,-3.231,-3.2511,-3.3418,-3.3418,-3.3418,-3.3398,-3.3223,-3.2891,-3.2461,-3.2031,-3.1601,-3.1211,-3.0967,-3.0889,-3.0889,-3.0889,-3.0889,-3.0889,-3.0889,-3.0206,-2.9285,-2.8545,-2.7683,-2.6832,-2.6158,-2.5976,-2.5741,-2.4778,-2.4594,-2.4286,-2.3303,-2.2577,-2.216,-2.216,-2.216,-2.1804,-2.0832,-2.0568,-2.0314,-1.9853,-2.0329,-2.0587,-2.0314,-2.0964,-2.1046,-2.0174,-1.9231,-1.8744,-1.8744,-1.9112,-1.9154,-1.8738,-1.9277,-1.9367,-1.9005,-1.9005,-1.9065,-1.9185,-1.9185,-2.001,-2.0303,0.0,0.0,-2.3061,-2.3056,-2.2611,-2.2263,-2.0883,-1.9636,-1.9614,-1.9216,-1.8951,-1.9032,-1.9392,-1.9806,-2.0113,-2.1432,-2.2526,-2.2853,-2.2824,-2.2893,-2.3169,-2.3342,-2.4737,-2.8101,-2.9895,-3.119,-3.2139,-3.2559,-3.2978,-3.3398,-3.3535,-3.3799,-3.4228,-3.4375,-3.4805,-3.5557,-3.5566,-3.5723,-3.6016,-3.6016,-3.6016,-3.6016,-3.6016,-3.585,-3.5537,-3.5088,-3.4639,-3.4209,-3.3248,-3.2797,-3.2502,-3.0734,-3.0872,-3.2036,-3.2502,-3.2956,-3.3418,-3.3418,-3.3144,-3.2744,-3.2441,-3.1973,-3.1465,-3.1152,-3.0986,-3.0889,-3.0889,-3.0889,-3.0772,-3.0333,-2.9285,-2.8179,-2.7271,-2.6175,-2.52,-2.4763,-2.464,-2.4278,-2.3139,-2.2897,-2.2529,-2.1292,-2.1109,-2.1109,-2.1109,-2.1109,-2.1036,-2.0822,-2.0728,-2.0448,-1.986,-2.0959,-2.124,-2.0097,-2.0981,-2.1145,-2.009,-1.9388,-1.9045,-1.9045,-1.8844,-1.8831,-1.9038,-1.9045,-1.9152,-1.9424,-1.9424,-1.9424,-1.9424,-1.9424,-2.0199,0.0,0.0,-2.3701,-2.376,-2.3906,-2.3706,-2.2422,-2.1441,-2.0507,-1.9224,-1.8911,-1.9011,-1.9299,-1.9424,-1.9573,-2.014,-2.0542,-2.0837,-2.1125,-2.0924,-2.1458,-2.3336,-2.3282,-2.4537,-2.8075,-2.8847,-3.0004,-3.2068,-3.2559,-3.2978,-3.3398,-3.3828,-3.4238,-3.4668,-3.5117,-3.5566,-3.5996,-3.6006,-3.6006,-3.6016,-3.6016,-3.6016,-3.6016,-3.6016,-3.6016,-3.5976,-3.5557,-3.5107,-3.4508,-3.2337,-3.1206,-3.0707,-2.8952,-2.8303,-2.8558,-3.0254,-3.1963,-3.3418,-3.3418,-3.3144,-3.2793,-3.2783,-3.2207,-3.1514,-3.1504,-3.1211,-3.0889,-3.0889,-3.0889,-3.0518,-2.8911,-2.8417,-2.7632,-2.4479,-2.3698,-2.3201,-2.1601,-2.1229,-2.1229,-2.1172,-2.1172,-2.1172,-2.1109,-2.1109,-2.1109,-2.1109,-2.1109,-2.1109,-2.1096,-2.0848,-2.0448,-1.986,-2.1094,-2.1864,-2.1559,-2.1586,-2.1586,-2.1529,-2.0192,-1.9352,-1.9352,-1.9403,-1.9403,-1.9352,-1.9352,-1.9417,-1.9424,-1.9424,-1.9424,-1.9424,-1.9424,-2.0199,0.0,0.0,-2.2998,-2.4162,-2.3203,-2.1946,-2.1806,-2.0774,-1.9711,-1.9015,-1.8771,-1.8604,-1.851,-1.8811,-1.9205,-1.9593,-2.0234,-2.0775,-2.1069,-2.1029,-2.111,-2.1624,-2.2733,0.0,-2.6287,-2.8066,0.0,-3.2068,-3.2559,-3.2978,-3.3398,-3.3838,-3.4267,-3.4687,-3.5156,-3.5596,-3.6016,-3.6016,-3.6016,-3.6016,-3.6016,-3.6016,-3.6016,-3.6016,-3.6016,-3.5996,-3.5576,-3.4595,-3.3142,-3.1929,-3.0571,-2.9158,-2.7193,-2.7105,-2.8303,-2.8886,-3.0198,-3.1835,-3.3029,-3.333,-3.3164,-3.2891,-3.2412,-3.1894,-3.1601,-3.1221,-3.0889,-3.0889,-3.0089,-2.9098,-2.8545,-2.6849,-2.497,-2.3876,-2.2772,-2.179,-2.1235,-2.1109,-2.1109,-2.1109,-2.1109,-2.1109,-2.1109,-2.1109,-2.1109,-2.1109,-2.1109,-2.1109,-2.1109,-2.0855,-2.0601,-2.0401,-2.0493,-2.0493,-2.0396,-2.0259,-2.0148,-2.0148,-1.9642,-1.9424,-1.9424,-1.9424,-1.9424,-1.9424,-1.9424,-1.9424,-1.9424,-1.9424,-1.9424,-1.943,-1.9566,-1.9933,-2.3163,-2.2964,-2.2443,-2.3852,-2.2659,-2.1182,-2.1391,-2.0316,-1.9092,-1.8684,-1.8283,-1.7983,-1.7896,-1.8016,-1.8404,-1.9232,-1.984,-2.0421,-2.1029,-2.1022,-2.0922,-2.0842,-2.1978,-2.3522,0.0,0.0,0.0,-3.2017,-3.2559,-3.3047,-3.3623,-3.4062,-3.4492,-3.4932,-3.5381,-3.5752,-3.6016,-3.6016,-3.5665,-3.5021,-3.5021,-3.5021,-3.5021,-3.5665,-3.6016,-3.6006,-3.5732,-3.4401,-3.2384,-3.1184,-2.9488,-2.7454,-2.5374,-2.5248,-2.638,-2.7039,-2.8353,-3.0189,-3.2565,-3.3418,-3.3379,-3.3105,-3.2734,-3.2314,-3.1885,-3.1455,-3.0957,-3.0244,-2.9216,-2.8119,-2.6961,-2.5154,-2.345,-2.2834,-2.1853,-2.1109,-2.1109,-2.1109,-2.1109,-2.1109,-2.1109,-2.1109,-2.1109,-2.1109,-2.1109,-2.1109,-2.1109,-2.1109,-2.1109,-2.0949,-2.0795,-2.0688,-2.0334,-2.0067,-1.996,-1.9686,-1.9519,-1.9519,-1.9426,-1.9424,-1.9424,-1.9424,-1.9424,-1.9424,-1.9424,-1.9424,-1.9424,-1.9424,-1.9419,-1.9526,-1.9713,-1.9853,-2.254,-2.2299,-2.2043,-2.292,-2.2291,-2.136,-2.1096,-1.992,-1.8698,-1.8056,-1.7475,-1.7206,-1.7382,0.0,-1.7255,-1.8991,-1.9397,-1.9793,-2.0949,-2.0889,-2.0822,0.0,0.0,0.0,0.0,0.0,0.0,-3.1973,0.0,-3.3193,-3.4023,-3.4492,-3.4866,-3.5237,-3.5656,-3.5879,-3.5879,-3.5879,-3.4952,-3.317,-3.3101,-3.3092,-3.324,-3.5021,-3.5879,-3.6016,-3.6016,-3.4647,-3.2215,-3.0216,-2.8008,-2.5668,-2.3653,-2.2928,-2.3126,-2.4851,-2.6639,-2.8698,-3.211,-3.3355,-3.3418,-3.3418,-3.3135,-3.2725,-3.2324,-3.1815,-3.1,-2.8989,-2.8316,-2.7452,-2.4363,-2.3512,-2.3084,-2.1481,-2.1109,-2.1109,-2.1109,-2.1109,-2.1109,-2.1109,-2.1109,-2.1109,-2.1109,-2.1109,-2.1109,-2.1109,-2.1109,-2.1109,-2.1109,-2.1109,-2.1002,-2.0728,-2.0681,-2.0561,-2.0281,-1.9987,-1.982,-1.982,-1.9553,-1.945,-1.945,-1.943,-1.9424,-1.9424,-1.9379,-1.945,-1.945,-1.9406,-1.9553,-1.982,-1.984,-1.9993,-2.2147,-2.1722,-2.1313,-2.1859,-2.0798,-1.9504,-1.9257,-1.8693,-1.7922,-1.6934,-1.6426,-1.5985,-1.5411,0.0,0.0,-1.7856,-1.8965,0.0,-2.0975,-2.1236,0.0,-2.143,0.0,-2.312,-2.6626,-2.7344,0.0,0.0,-3.3203,-3.3496,-3.4043,-3.4805,-3.4633,-3.3274,-3.367,-3.3882,-3.3882,-3.3882,-3.3665,-3.317,-3.1738,-3.1808,-3.324,-3.3665,-3.4659,-3.6016,-3.6016,-3.4033,-3.0761,-2.9829,-2.7408,-2.4286,-2.3274,-2.2928,-2.3126,-2.4851,-2.6639,-2.8501,-3.0716,-3.2292,-3.3418,-3.3418,-3.3135,-3.2773,-3.2666,-3.1279,-2.9619,-2.9077,-2.6941,-2.4602,-2.3814,-2.2654,-2.1601,-2.1172,-2.1109,-2.1109,-2.1109,-2.1109,-2.1109,-2.1109,-2.1109,-2.1109,-2.1109,-2.1109,-2.1109,-2.1109,-2.1109,-2.1109,-2.1109,-2.1109,-2.1082,-2.1009,-2.0808,-2.0648,-2.0568,-2.0294,-2.012,-2.012,-1.9853,-1.9686,-1.9686,-1.9486,-1.9424,-1.9424,-1.9579,-1.9686,-1.9693,-1.9907,-2.0047,-2.0127,-2.0347,-2.0494,-2.1431,-2.0928,-2.0309,-2.0544,-1.9747,-1.8744,-1.8056,-1.7669,-1.7048,-1.5611,-1.5184,0.0,-1.4082,-1.4903,0.0,0.0,0.0,0.0,-2.0775,-2.1283,-2.1614,0.0,-2.1924,0.0,-2.701,-2.7716,-2.9513,0.0,-3.3711,-3.3984,-3.4619,-3.4347,-3.3706,-3.2827,-3.2193,-3.1948,-3.1948,-3.1113,-3.0689,-3.0689,-2.9615,-3.0034,-3.1957,-3.2804,-3.4236,-3.6016,-3.6016,-3.3803,-3.0252,-2.9663,-2.7192,-2.3708,-2.3169,-2.2928,-2.2996,-2.3992,-2.5979,-2.8369,-2.9344,-3.1313,-3.3418,-3.3418,-3.3262,-3.3037,-3.2851,-3.1172,-2.9168,-2.8263,-2.585,-2.345,-2.2709,-2.179,-2.1109,-2.1109,-2.1109,-2.1109,-2.1109,-2.1109,-2.1109,-2.1109,-2.1109,-2.1109,-2.1109,-2.1109,-2.1109,-2.1109,-2.1109,-2.1109,-2.1109,-2.1109,-2.1109,-2.1109,-2.0962,-2.0869,-2.0869,-2.0595,-2.0428,-2.0428,-2.0154,-1.9993,-1.9993,-1.9833,-1.9746,-1.9746,-1.9907,-1.9993,-1.9993,-2.0154,-2.0301,-2.0434,-2.0601,-2.0742,-2.0486,-2.0018,-1.9417,-1.9319,-1.9058,-1.8497,-1.7353,-1.679,-1.5985,-1.4262,0.0,-1.3681,-1.3133,-1.3995,-1.5197,-1.6446,0.0,-1.9245,-2.0501,-2.1246,-2.1635,-2.1675,-2.2316,-2.4111,-2.7434,-2.8285,-3.0175,-3.3918,-3.4209,-3.458,-3.5351,-3.361,-3.2534,-3.2447,-3.0813,-2.9963,-2.9963,-2.8341,-2.7505,-2.7505,-2.7215,-2.8197,-3.038,-3.2027,-3.3951,-3.6025,-3.5733,-3.3586,-3.0252,-2.9387,-2.6984,-2.3708,-2.3169,-2.2928,-2.2928,-2.2928,-2.5121,-2.8172,-2.8172,-3.0466,-3.3418,-3.3418,-3.3418,-3.335,-3.2988,-3.1245,-2.9022,-2.7201,-2.5031,-2.2959,-2.1481,-2.1109,-2.1109,-2.1109,-2.1109,-2.1109,-2.1109,-2.1109,-2.1109,-2.1109,-2.1109,-2.1109,-2.1109,-2.1109,-2.1109,-2.1109,-2.1109,-2.1109,-2.1109,-2.1109,-2.1109,-2.1109,-2.1109,-2.1109,-2.1109,-2.0882,-2.0735,-2.0735,-2.0454,-2.0294,-2.0294,-2.0193,-2.0173,-2.0173,-2.0267,-2.0294,-2.0294,-2.0273,-2.0481,-2.0735,-2.0735,-2.0869,-1.9361,-1.9304,-1.9305,-1.9058,-1.8597,-1.7836,-1.67,-1.5872,0.0,0.0,0.0,-1.2505,-1.2201,-1.3073,0.0,-1.6079,0.0,0.0,0.0,0.0,-2.1708,0.0,0.0,0.0,0.0,0.0,0.0,0.0,-3.4951,-3.5234,-3.5391,-3.3948,-3.1686,-2.8565,-2.8141,-2.7996,-2.7996,-2.7643,-2.7505,-2.7505,-2.5852,-2.6917,-3.031,-3.0664,-3.2735,-3.5879,-3.4374,0.0,-3.011,-2.7936,-2.5819,-2.3708,-2.3169,-2.2928,-2.2928,-2.2928,-2.5121,-2.8172,-2.8172,-3.0466,-3.3418,-3.3418,-3.3418,-3.3408,-3.334,-3.0699,-2.7643,-2.7269,-2.4464,-2.1481,-2.1172,-2.1109,-2.1109,-2.1109,-2.1109,-2.1109,-2.1109,-2.1109,-2.1109,-2.1109,-2.1109,-2.1109,-2.1109,-2.1109,-2.1109,-2.1109,-2.1109,-2.1109,-2.1109,-2.1109,-2.1109,-2.1109,-2.1109,-2.1109,-2.1109,-2.1062,-2.1036,-2.1036,-2.0762,-2.0601,-2.0601,-2.0361,-2.0173,-2.0173,-2.0474,-2.0601,-2.0601,-2.0842,-2.0982,-2.1036,-2.1036,-2.1062,-1.9115,-1.9259,-1.9299,-1.8998,-1.847,-1.7602,-1.6013,0.0,0.0,0.0,-1.1759,-1.153,-1.1276,0.0,0.0,0.0,0.0,0.0,0.0,0.0,0.0,0.0,0.0,0.0,0.0,0.0,0.0,0.0,0.0,-3.4005,-3.4221,-3.173,-2.8916,-2.6071,-2.5998,-2.5998,-2.5998,-2.5998,-2.5998,-2.5998,-2.5065,-2.6064,-2.8836,-2.8836,-3.0397,-3.2943,-3.2097,-3.0485,-2.8507,-2.7174,-2.5374,-2.3494,-2.304,-2.2928,-2.2928,-2.2928,-2.5121,-2.8172,-2.8172,-3.0466,-3.3418,-3.3418,-3.3418,-3.3418,-3.3418,-3.0565,-2.728,-2.728,-2.432,-2.1109,-2.1109,-2.1109,-2.1109,-2.1109,-2.1109,-2.1109,-2.1109,-2.1109,-2.1109,-2.1109,-2.1109,-2.1109,-2.1109,-2.1109,-2.1109,-2.1109,-2.1109,-2.1109,-2.1109,-2.1109,-2.1109,-2.1109,-2.1109,-2.1109,-2.1109,-2.1109,-2.1109,-2.1109,-2.0982,-2.0902,-2.0902,-2.0762,-2.0688,-2.0688,-2.0828,-2.0902,-2.0902,-2.1042,-2.1109,-2.1109,-2.1109,-2.1109,-1.9045,-1.9377,-1.9285,-1.8918,-1.837,-1.7388,-1.5337,-1.4188,0.0,0.0,-1.0942,-1.0881,-1.0713,0.0,0.0,0.0,0.0,0.0,0.0,0.0,0.0,0.0,0.0,0.0,0.0,0.0,0.0,0.0,0.0,-3.1574,-3.1948,-2.9131,-2.6648,-2.4636,-2.4636,-2.4636,-2.4636,-2.4636,-2.4636,-2.4636,-2.4636,-2.5639,-2.7505,-2.7505,-2.8485,-3.0301,-2.9802,-2.8617,-2.6937,-2.6206,-2.4889,-2.3293,-2.2986,-2.2928,-2.2928,-2.2928,-2.5121,-2.8172,-2.8172,-3.0466,-3.3418,-3.3418,-3.3418,-3.3355,-3.2956,-3.0239,-2.7217,-2.6837,-2.4004,-2.1109,-2.1109,-2.1109,-2.1109,-2.1109,-2.1109,-2.1109,-2.1109,-2.1109,-2.1109,-2.1109,-2.1109,-2.1109,-2.1109,-2.1109,-2.1109,-2.1109,-2.1109,-2.1109,-2.1109,-2.1109,-2.1109,-2.1109,-2.1109,-2.1109,-2.1109,-2.1109,-2.1109,-2.1109,-2.1109,-2.1109,-2.1109,-2.1109,-2.1109,-2.1109,-2.1109,-2.1109,-2.1109,-2.1109,-2.1109,-2.1109,-2.1109,-2.1109,-1.8798,-1.9158,-1.9232,-1.8671,-1.807,-1.7088,-1.503,0.0,0.0,-1.1303,-1.0814,-1.0707,-1.0909,-1.1303,0.0,0.0,0.0,0.0,0.0,0.0,0.0,0.0,0.0,0.0,0.0,0.0,0.0,0.0,0.0,-2.7966,-2.7996,-2.7715,-2.6648,-2.4636,-2.4636,-2.4636,-2.4636,-2.4636,-2.4636,-2.4636,-2.4636,-2.5639,-2.7505,-2.7505,-2.8485,-3.0214,-2.82,-2.721,0.0,-2.4546,-2.3487,-2.3293,-2.2986,-2.2928,-2.2928,-2.2928,-2.5121,-2.8172,-2.8172,-3.0466,-3.3418,-3.3418,-3.3418,-3.3092,-3.1497,-2.9267,-2.6964,-2.5296,-2.3064,-2.1109,-2.1109,-2.1109,-2.1109,-2.1109,-2.1109,-2.1109,-2.1109,-2.1109,-2.1109,-2.1109,-2.1109,-2.1109,-2.1109,-2.1109,-2.1109,-2.1109,-2.1109,-2.1109,-2.1109,-2.1109,-2.1109,-2.1109,-2.1109,-2.1109,-2.1109,-2.1109,-2.1109,-2.1109,-2.1109,-2.1109,-2.1109,-2.1109,-2.1109,-2.1109,-2.1109,-2.1109,-2.1109,-2.1109,-2.1109,-2.1109,-2.1109,-2.1109,-1.8404,-1.8878,-1.9005,-1.8591,-1.8036,-1.7001,-1.477,0.0,-1.2549,-1.1069,-1.0501,-1.0381,-1.0713,-1.0969,-1.163,0.0,-1.3514,-1.4599,0.0,0.0,0.0,0.0,0.0,0.0,0.0,0.0,0.0,0.0,0.0,-2.7005,-2.5852,-2.5786,-2.5426,-2.4636,-2.4636,-2.4636,-2.4636,-2.4636,-2.4636,-2.4636,-2.4636,-2.4998,-2.5779,-2.5597,-2.5933,-2.6538,-2.5527,-2.4939,0.0,-2.3694,-2.3213,-2.3033,-2.2913,-2.2928,-2.3065,-2.406,-2.6054,-2.8361,-2.9409,-3.1378,-3.3418,-3.3418,-3.2692,-3.1698,-3.1038,-2.9131,-2.69,-2.5111,-2.2936,-2.1109,-2.1109,-2.1109,-2.1109,-2.1109,-2.1109,-2.1109,-2.1109,-2.1109,-2.1109,-2.1109,-2.1109,-2.1109,-2.1109,-2.1109,-2.1109,-2.1109,-2.1109,-2.1109,-2.1109,-2.1109,-2.1109,-2.1109,-2.1109,-2.1109,-2.1109,-2.1109,-2.1109,-2.1109,-2.1109,-2.1109,-2.1109,-2.1109,-2.1109,-2.1109,-2.1109,-2.1109,-2.1109,-2.1109,-2.1109,-2.1109,-2.1109,-2.1109,-1.7769,-1.837,-1.8591,-1.8297,-1.7769,-1.6734,0.0,0.0,-1.2368,-1.0894,-1.0425,-1.0314,-1.0553,-1.0827,-1.1357,0.0,-1.2824,-1.3889,-1.6239,0.0,0.0,0.0,0.0,0.0,0.0,0.0,0.0,0.0,-2.659,-2.6071,-2.4636,-2.4636,-2.4636,-2.4636,-2.4636,-2.4636,-2.4636,-2.4636,-2.4636,-2.4636,-2.4549,-2.4509,-2.4496,-2.4209,-2.4075,-2.4062,-2.3768,-2.3521,0.0,-2.3227,-2.306,-2.2928,-2.2928,-2.2928,-2.3126,-2.4851,-2.6639,-2.8435,-3.0189,-3.1963,-3.3418,-3.3418,-3.2228,-3.0707,-3.0189,-2.8361,-2.6128,-2.4344,-2.2502,-2.1109,-2.1109,-2.1109,-2.1109,-2.1109,-2.1109,-2.1109,-2.1109,-2.1109,-2.1109,-2.1109,-2.1109,-2.1109,-2.1109,-2.1109,-2.1109,-2.1109,-2.1109,-2.1109,-2.1109,-2.1109,-2.1109,-2.1109,-2.1109,-2.1109,-2.1109,-2.1109,-2.1109,-2.1109,-2.1109,-2.1109,-2.1109,-2.1109,-2.1109,-2.1109,-2.1109,-2.1109,-2.1109,-2.1109,-2.1109,-2.1109,-2.1109,-2.1109,-1.6891,-1.7602,-1.7929,-1.7669,-1.7154,-1.6179,0.0,-1.318,-1.2368,-1.0894,-1.0586,-1.0586,-1.0593,-1.0827,-1.1189,-1.1819,-1.2866,-1.4213,-1.6025,0.0,0.0,0.0,0.0,0.0,0.0,0.0,0.0,0.0,-2.4476,0.0,-2.4636,-2.4636,-2.4636,-2.4636,-2.4636,-2.4636,-2.4636,-2.4636,-2.4636,-2.4636,-2.4342,-2.4209,-2.4202,-2.3908,-2.3774,-2.3761,-2.346,-2.3327,0.0,-2.2993,-2.2934,-2.2928,-2.2928,-2.2928,-2.3126,-2.4851,-2.6639,-2.8435,-3.0189,-3.1963,-3.3418,-3.3418,-3.2228,-3.0448,-2.8755,-2.6555,-2.4279,-2.2497,-2.1563,-2.1109,-2.1109,-2.1109,-2.1109,-2.1109,-2.1109,-2.1109,-2.1109,-2.1109,-2.1109,-2.1109,-2.1109,-2.1109,-2.1109,-2.1109,-2.1109,-2.1109,-2.1109,-2.1109,-2.1109,-2.1109,-2.1109,-2.1109,-2.1109,-2.1109,-2.1109,-2.1109,-2.1109,-2.1109,-2.1109,-2.1109,-2.1109,-2.1109,-2.1109,-2.1109,-2.1109,-2.1109,-2.1109,-2.1109,-2.1109,-2.1109,-2.1109,-2.1109,-1.5197,-1.5785,-1.6112,-1.5611,-1.5351,-1.4776,-1.3106,-1.2579,-1.2084,-1.0854,-1.0593,-1.0593,-1.0593,-1.0667,-1.1256,-1.2819,-1.3353,0.0,0.0,0.0,0.0,0.0,0.0,0.0,0.0,0.0,0.0,0.0,-2.3995,-2.4042,-2.4042,-2.4042,-2.4222,-2.4623,-2.4636,-2.4636,-2.4636,-2.4436,-2.4342,-2.4335,-2.4042,-2.3908,-2.3895,-2.3601,-2.3467,-2.3447,-2.314,-2.3006,-2.2999,-2.2968,-2.2928,-2.2928,-2.2928,-2.2928,-2.3263,-2.6247,-2.771,-2.8632,-3.157,-3.2956,-3.3219,-3.2027,-3.0457,-2.8639,-2.6696,-2.5397,-2.4126,-2.1997,-2.1249,-2.1109,-2.1109,-2.1109,-2.1109,-2.1109,-2.1109,-2.1109,-2.1109,-2.1109,-2.1109,-2.1109,-2.1109,-2.1109,-2.1109,-2.1109,-2.1109,-2.1109,-2.1109,-2.1109,-2.1109,-2.1109,-2.1109,-2.1109,-2.1109,-2.1109,-2.1109,-2.1109,-2.1109,-2.1109,-2.1109,-2.1109,-2.1109,-2.1109,-2.1109,-2.1109,-2.1109,-2.1109,-2.1109,-2.1109,-2.1109,-2.1109,-2.1109,-2.1109,0.0,-1.4282,-1.4649,-1.4233,-1.4066,-1.3694,-1.2425,-1.2051,-1.1703,-1.0787,-1.0593,-1.0593,-1.0593,-1.0774,-1.1343,-1.2746,-1.3447,0.0,0.0,0.0,0.0,0.0,0.0,0.0,0.0,0.0,0.0,-2.3587,-2.3708,-2.3774,-2.3774,-2.3774,-2.3935,-2.4295,-2.4309,-2.4309,-2.4309,-2.4128,-2.4042,-2.4035,-2.3741,-2.3607,-2.3594,-2.3293,-2.3153,-2.314,-2.2946,-2.2928,0.0,-2.2928,-2.2928,-2.2928,-2.2928,-2.2928,-2.3263,-2.6113,-2.7172,-2.7569,-3.0466,-3.1451,-3.1249,-3.0189,-2.8523,-2.6653,-2.4554,-2.3724,-2.3107,-2.1554,-2.1109,-2.1109,-2.1109,-2.1109,-2.1109,-2.1109,-2.1109,-2.1109,-2.1109,-2.1109,-2.1109,-2.1109,-2.1109,-2.1109,-2.1109,-2.1109,-2.1109,-2.1109,-2.1109,-2.1109,-2.1109,-2.1109,-2.1109,-2.1109,-2.1109,-2.1109,-2.1109,-2.1109,-2.1109,-2.1109,-2.1109,-2.1109,-2.1109,-2.1109,-2.1109,-2.1109,-2.1109,-2.1109,-2.1109,-2.1109,-2.1109,-2.1109,-2.1109,-2.1109,0.0,-1.2953,-1.338,-1.3353,-1.3167,-1.2806,-1.2,-1.1577,0.0,-1.0707,-1.0593,-1.0613,-1.0673,-1.1076,-1.1577,-1.208,0.0,0.0,0.0,0.0,0.0,0.0,0.0,0.0,0.0,-2.2806,-2.3293,-2.3293,-2.3547,-2.3708,-2.3708,-2.3708,-2.3708,-2.3708,-2.3708,-2.3728,-2.3774,-2.3748,-2.3734,-2.3734,-2.3434,-2.3293,-2.3287,-2.2993,-2.2928,0.0,-2.2928,-2.2928,-2.2928,-2.2928,-2.2928,-2.2928,-2.2928,-2.2928,-2.3126,-2.4851,-2.551,-2.5778,-2.7569,-2.8172,-2.8163,-2.8007,-2.6572,-2.4547,-2.2558,-2.1829,-2.1554,-2.1196,-2.1109,-2.1109,-2.1109,-2.1109,-2.1109,-2.1109,-2.1109,-2.1109,-2.1109,-2.1109,-2.1109,-2.1109,-2.1109,-2.1109,-2.1109,-2.1109,-2.1109,-2.1109,-2.1109,-2.1109,-2.1109,-2.1109,-2.1109,-2.1109,-2.1109,-2.1109,-2.1109,-2.1109,-2.1109,-2.1109,-2.1109,-2.1109,-2.1109,-2.1109,-2.1109,-2.1109,-2.1109,-2.1109,-2.1109,-2.1109,-2.1109,-2.1109,-2.1109,-2.1109,-0.9817,0.0,-1.1229,-1.1002,-1.1062,-1.1162,0.0,-1.0989,-1.0995,-1.0667,0.0,-1.0794,-1.1471,-1.149,-1.2118,-1.4222,0.0,0.0,0.0,0.0,0.0,0.0,0.0,-2.2659,-2.2659,-2.2846,-2.2973,-2.2973,-2.304,-2.308,-2.308,-2.308,-2.308,-2.308,-2.308,-2.33,-2.3768,-2.3547,-2.3434,-2.3427,-2.312,-2.2973,-2.2966,-2.2961,-2.2928,-2.2928,-2.2928,-2.2928,-2.2928,-2.2928,-2.2928,-2.2928,-2.2928,-2.2928,-2.3126,-2.4851,-2.551,-2.5778,-2.7569,-2.8172,-2.7925,-2.6343,-2.4408,-2.2617,-2.1867,-2.1675,-2.1554,-2.1196,-2.1109,-2.1109,-2.1109,-2.1109,-2.1109,-2.1109,-2.1109,-2.1109,-2.1109,-2.1109,-2.1109,-2.1109,-2.1109,-2.1109,-2.1109,-2.1109,-2.1109,-2.1109,-2.1109,-2.1109,-2.1109,-2.1109,-2.1109,-2.1109,-2.1109,-2.1109,-2.1109,-2.1109,-2.1109,-2.1109,-2.1109,-2.1109,-2.1109,-2.1109,-2.1109,-2.1109,-2.1109,-2.1109,-2.1109,-2.1109,-2.1109,-2.1109,-2.1109,-2.1109,-0.893,-0.998,-1.0922,-1.0723,-1.0942,-1.1196,-1.1196,0.0,0.0,0.0,0.0,-1.0975,-1.1557,-1.1864,-1.2639,0.0,-1.5244,0.0,0.0,0.0,0.0,0.0,0.0,0.0,0.0,0.0,-2.2928,-2.2928,-2.2928,-2.2928,-2.2928,-2.2928,-2.2928,-2.2928,-2.2928,-2.3088,-2.3347,-2.3193,-2.3113,-2.3113,-2.2946,-2.2928,-2.2928,-2.2928,-2.2928,-2.2928,-2.2928,-2.2928,-2.2928,-2.2928,-2.2928,-2.2928,-2.2928,-2.2928,-2.2996,-2.3992,-2.4324,-2.446,-2.545,-2.5688,-2.533,-2.4237,-2.2904,-2.1757,-2.1661,-2.1521,-2.1316,-2.1156,-2.1109,-2.1109,-2.1109,-2.1109,-2.1109,-2.1109,-2.1109,-2.1109,-2.1109,-2.1109,-2.1109,-2.1109,-2.1109,-2.1109,-2.1109,-2.1109,-2.1109,-2.1109,-2.1109,-2.1109,-2.1109,-2.1109,-2.1109,-2.1109,-2.1109,-2.1109,-2.1109,-2.1109,-2.1109,-2.1109,-2.1109,-2.1109,-2.1109,-2.1109,-2.1109,-2.1109,-2.1109,-2.1109,-2.1109,-2.1109,-2.1109,-2.1109,-2.1109,-2.1109,-0.9025,-1.0294,-1.1469,-1.1249,-1.1583,-1.196,-1.1913,0.0,0.0,0.0,0.0,0.0,0.0,-1.2485,0.0,0.0,0.0,0.0,0.0,0.0,0.0,0.0,0.0,0.0,-2.2928,-2.2928,-2.2928,-2.2928,-2.2928,-2.2928,-2.2928,-2.2928,-2.2928,-2.2928,-2.2928,-2.2928,-2.2928,-2.2928,-2.2928,-2.2928,-2.2928,-2.2928,-2.2928,-2.2928,-2.2928,-2.2928,-2.2928,0.0,-2.2928,-2.2928,-2.2928,-2.2928,-2.2928,-2.2928,-2.2928,-2.2928,-2.2928,-2.2921,-2.2812,-2.2599,-2.2345,-2.2298,-2.1951,-2.1608,-2.1561,-2.1309,-2.1109,-2.1109,-2.1109,-2.1109,-2.1109,-2.1109,-2.1109,-2.1109,-2.1109,-2.1109,-2.1109,-2.1109,-2.1109,-2.1109,-2.1109,-2.1109,-2.1109,-2.1109,-2.1109,-2.1109,-2.1109,-2.1109,-2.1109,-2.1109,-2.1109,-2.1109,-2.1109,-2.1109,-2.1109,-2.1109,-2.1109,-2.1109,-2.1109,-2.1109,-2.1109,-2.1109,-2.1109,-2.1109,-2.1109,-2.1109,-2.1109,-2.1109,-2.1109,-2.1109,-2.1109,-2.1109,-1.005,-1.1209,-1.187,-1.0628,-1.1283,-1.2171,-1.196,0.0,0.0,0.0,0.0,0.0,0.0,-1.3988,-1.4783,0.0,0.0,-1.9125,0.0,0.0,-2.1728,-2.1951,0.0,-2.2928,-2.2928,-2.2928,-2.2928,-2.2928,-2.2928,-2.2928,-2.2928,-2.2928,-2.2928,-2.2928,-2.2928,-2.2928,-2.2928,-2.2928,-2.2928,-2.2928,-2.2928,-2.2928,-2.2928,-2.2928,-2.2928,-2.2928,0.0,-2.2928,-2.2928,-2.2928,-2.2928,-2.2928,-2.2928,-2.2928,-2.2928,-2.2928,-2.2928,-2.2894,-2.2572,-2.2298,-2.2011,-2.1829,-2.1688,-2.1568,-2.1256,-2.1149,-2.1109,-2.1109,-2.1109,-2.1109,-2.1109,-2.1109,-2.1109,-2.1109,-2.1109,-2.1109,-2.1109,-2.1109,-2.1109,-2.1109,-2.1109,-2.1109,-2.1109,-2.1109,-2.1109,-2.1109,-2.1109,-2.1109,-2.1109,-2.1109,-2.1109,-2.1109,-2.1109,-2.1109,-2.1109,-2.1109,-2.1109,-2.1109,-2.1109,-2.1109,-2.1109,-2.1109,-2.1109,-2.1109,-2.1109,-2.1109,-2.1109,-2.1109,-2.1109,-2.1109,-2.1109,-2.1109,-0.9653,-1.0815,-1.1703,-1.1196,-1.2291,-1.3467,-1.3333,0.0,0.0,0.0,0.0,0.0,0.0,0.0,-1.5858,-1.7796,0.0,-1.9987,-2.0414,-2.1096,-2.1668,0.0,0.0,-2.2619,-2.2619,-2.2766,-2.2928,-2.2928,-2.2928,-2.2928,-2.2928,-2.2928,-2.2928,-2.2928,-2.2928,-2.2928,-2.2928,-2.2928,-2.2928,-2.2928,-2.2928,-2.2928,-2.2928,-2.2928,-2.2928,-2.2928,0.0,-2.2928,-2.2928,-2.2928,-2.2928,-2.2928,-2.2928,-2.2928,-2.2914,-2.2679,-2.2525,-2.2372,-2.2231,-2.1991,-2.173,-2.1661,-2.1507,-2.1289,-2.1149,-2.1109,-2.1109,-2.1109,-2.1109,-2.1109,-2.1109,-2.1109,-2.1109,-2.1109,-2.1109,-2.1109,-2.1109,-2.1109,-2.1109,-2.1109,-2.1109,-2.1109,-2.1109,-2.1109,-2.1109,-2.1109,-2.1109,-2.1109,-2.1109,-2.1109,-2.1109,-2.1109,-2.1109,-2.1109,-2.1109,-2.1109,-2.1109,-2.1109,-2.1109,-2.1109,-2.1109,-2.1109,-2.1109,-2.1109,-2.1109,-2.1109,-2.1109,-2.1109,-2.1109,-2.1109,-2.1109,-2.1109,-0.918,-1.0304,-1.1474,-1.1863,-1.3134,-1.4346,-1.4663,-1.4155,0.0,0.0,0.0,0.0,0.0,0.0,0.0,-1.8938,-1.9907,-2.0521,-2.0742,-2.1286,-2.1614,-2.1614,-2.2004,-2.2318,-2.2318,-2.2525,-2.2659,-2.2659,-2.2659,-2.2659,-2.2659,-2.2659,-2.2686,-2.2752,-2.2692,-2.2692,-2.2759,-2.2692,-2.2726,-2.2928,-2.2928,-2.2928,-2.2928,-2.2928,-2.2928,-2.2928,-2.2928,-2.2928,-2.2928,-2.2928,-2.2819,-2.2759,-2.2759,-2.2712,-2.2625,-2.2405,-2.2131,-2.1884,-2.1884,-2.169,-2.145,-2.145,-2.1296,-2.1109,-2.1109,-2.1109,-2.1109,-2.1109,-2.1109,-2.1109,-2.1109,-2.1109,-2.1109,-2.1109,-2.1109,-2.1109,-2.1109,-2.1109,-2.1109,-2.1109,-2.1109,-2.1109,-2.1109,-2.1109,-2.1109,-2.1109,-2.1109,-2.1109,-2.1109,-2.1109,-2.1109,-2.1109,-2.1109,-2.1109,-2.1109,-2.1109,-2.1109,-2.1109,-2.1109,-2.1109,-2.1109,-2.1109,-2.1109,-2.1109,-2.1109,-2.1109,-2.1109,-2.1109,-2.1109,-2.1109,-2.1109,-2.1109,-0.9346,-1.0429,-1.1515,-1.1978,-1.2858,0.0,-1.5084,-1.5077,0.0,-1.6233,0.0,0.0,0.0,0.0,0.0,0.0,-2.0648,-2.1056,-2.1076,0.0,-2.1614,-2.1614,-2.1824,-2.2017,-2.2017,-2.2038,-2.2044,-2.2044,-2.2044,-2.2044,-2.2044,-2.2044,-2.2171,-2.2438,-2.2191,-2.2178,-2.2445,-2.2184,-2.2325,-2.2928,-2.2928,-2.2928,-2.2928,-2.2928,-2.2928,-2.2928,-2.2928,-2.2928,-2.2928,-2.2928,-2.2699,-2.2452,-2.2452,-2.2285,-2.2044,-2.2024,-2.1837,-2.1648,-2.1648,-2.139,-2.1142,-2.1142,-2.1129,-2.1109,-2.1109,-2.1109,-2.1109,-2.1109,-2.1109,-2.1109,-2.1109,-2.1109,-2.1109,-2.1109,-2.1109,-2.1109,-2.1109,-2.1109,-2.1109,-2.1109,-2.1109,-2.1109,-2.1109,-2.1109,-2.1109,-2.1109,-2.1109,-2.1109,-2.1109,-2.1109,-2.1109,-2.1109,-2.1109,-2.1109,-2.1109,-2.1109,-2.1109,-2.1109,-2.1109,-2.1109,-2.1109,-2.1109,-2.1109,-2.1109,-2.1109,-2.1109,-2.1109,-2.1109,-2.1109,-2.1109,-2.1109,-2.1109,-0.9463,-1.064,-1.1872,-1.259,-1.3482,0.0,0.0,-1.6005,-1.6603,-1.7375,-1.7689,0.0,0.0,0.0,0.0,0.0,-2.0728,-2.1109,-2.1109,-2.1203,-2.1276,-2.1276,-2.1537,-2.1782,-2.1782,-2.1884,-2.1984,-2.1984,-2.1984,-2.1984,-2.1984,-2.1984,-2.2038,-2.2144,-2.2044,-2.2038,-2.2151,-2.2038,-2.2098,-2.2318,-2.2318,-2.2318,-2.2318,-2.2318,-2.2318,-2.2318,-2.2318,-2.2318,-2.2318,-2.2318,-2.2251,-2.2151,-2.2151,-2.1971,-2.1782,-2.1782,-2.153,-2.1276,-2.1276,-2.1203,-2.1109,-2.1109,-2.1109,-2.1109,-2.1109,-2.1109,-2.1109,-2.1109,-2.1109,-2.1109,-2.1109,-2.1109,-2.1109,-2.1109,-2.1109,-2.1109,-2.1109,-2.1109,-2.1109,-2.1109,-2.1109,-2.1109,-2.1109,-2.1109,-2.1109,-2.1109,-2.1109,-2.1109,-2.1109,-2.1109,-2.1109,-2.1109,-2.1109,-2.1109,-2.1109,-2.1109,-2.1109,-2.1109,-2.1109,-2.1109,-2.1109,-2.1109,-2.1109,-2.1109,-2.1109,-2.1109,-2.1109,-2.1109,-2.1109,-2.1109,-2.1109,-2.1109,-0.9444,-1.0719,-1.2161,-1.272,0.0,0.0,-1.6139,-1.678,-1.7474,-1.8397,-1.8617,-1.8771,-1.9245,0.0,0.0,0.0,-2.0788,-2.1109,-2.1109,-2.1109,-2.1109,-2.1109,-2.1289,-2.141,-2.141,-2.159,-2.171,-2.171,-2.171,-2.171,-2.171,-2.171,-2.175,-2.1844,-2.1757,-2.175,-2.185,-2.1757,-2.171,-2.171,-2.171,-2.181,-2.1984,-2.1984,-2.1984,-2.1984,-2.1984,-2.1984,-2.1984,-2.1984,-2.1931,-2.1844,-2.1744,-2.159,-2.141,-2.141,-2.1283,-2.1109,-2.1109,-2.1109,-2.1109,-2.1109,-2.1109,-2.1109,-2.1109,-2.1109,-2.1109,-2.1109,-2.1109,-2.1109,-2.1109,-2.1109,-2.1109,-2.1109,-2.1109,-2.1109,-2.1109,-2.1109,-2.1109,-2.1109,-2.1109,-2.1109,-2.1109,-2.1109,-2.1109,-2.1109,-2.1109,-2.1109,-2.1109,-2.1109,-2.1109,-2.1109,-2.1109,-2.1109,-2.1109,-2.1109,-2.1109,-2.1109,-2.1109,-2.1109,-2.1109,-2.1109,-2.1109,-2.1109,-2.1109,-2.1109,-2.1109,-2.1109,-2.1109,-2.1109,-2.1109,-2.1109,-0.9217,-1.0604,-1.2296,0.0,0.0,0.0,-1.7261,-1.7427,-1.7722,-1.9446,0.0,-1.9205,-2.0074,-1.9766,0.0,-2.0535,-2.0915,-2.1109,-2.1109,-2.1109,-2.1109,-2.1109,-2.1109,-2.1109,-2.1109,-2.1109,-2.1109,-2.1109,-2.1109,-2.1109,-2.1109,-2.1109,-2.1243,-2.1601,-2.1263,-2.1249,-2.1608,-2.1256,-2.1109,-2.1109,-2.1109,-2.141,-2.1977,-2.1977,-2.1977,-2.1977,-2.1977,-2.1977,-2.1977,-2.1977,-2.181,-2.1581,-2.1223,-2.1109,-2.1109,-2.1109,-2.1109,-2.1109,-2.1109,-2.1109,-2.1109,-2.1109,-2.1109,-2.1109,-2.1109,-2.1109,-2.1109,-2.1109,-2.1109,-2.1109,-2.1109,-2.1109,-2.1109,-2.1109,-2.1109,-2.1109,-2.1109,-2.1109,-2.1109,-2.1109,-2.1109,-2.1109,-2.1109,-2.1109,-2.1109,-2.1109,-2.1109,-2.1109,-2.1109,-2.1109,-2.1109,-2.1109,-2.1109,-2.1109,-2.1109,-2.1109,-2.1109,-2.1109,-2.1109,-2.1109,-2.1109,-2.1109,-2.1109,-2.1109,-2.1109,-2.1109,-2.1109,-2.1109,-2.1109,-2.1109,-2.1109,-2.1109,-0.9334,-1.1083,0.0,-1.392,0.0,0.0,0.0,-1.8624,0.0,0.0,-2.0421,-2.0241,-2.0494,0.0,0.0,-1.9044,-1.9114,-1.9285,-1.9285,-1.9285,-1.9744,-2.0976,-2.1109,-2.1109,-2.1109,-2.1109,-2.1109,-2.1109,-2.1109,-2.1109,-2.1109,-2.1109,-2.1149,-2.1236,-2.1156,-2.1149,-2.1236,-2.1156,-2.1109,-2.1109,-2.1109,-2.1203,-2.137,-2.137,-2.137,-2.137,-2.137,-2.137,-2.137,-2.137,-2.1316,-2.1229,-2.1142,-2.1109,-2.1109,-2.1109,-2.1109,-2.1109,-2.1109,-2.1109,-2.1109,-2.1109,-2.1109,-2.1109,-2.1109,-2.1109,-2.1109,-2.1109,-2.1109,-2.1109,-2.1109,-2.1109,-2.1109,-2.1109,-2.1109,-2.1109,-2.1109,-2.1109,-2.1109,-2.1109,-2.1109,-2.1109,-2.1109,-2.1109,-2.1109,-2.1109,-2.1109,-2.1109,-2.1109,-2.1109,-2.1109,-2.1109,-2.1109,-2.1109,-2.1109,-2.1109,-2.1109,-2.1109,-2.1109,-2.1109,-2.1109,-2.1109,-2.1109,-2.1109,-2.1109,-2.1109,-2.1109,-2.1109,-2.1109,-2.1109,-2.1109,-2.1109,-1.0704,-1.242,0.0,-1.5364,-1.6714,-1.8083,-1.9332,0.0,0.0,0.0,0.0,-2.0575,-2.0808,-2.0084,0.0,-1.8374,-1.7827,-1.7731,-1.8378,-1.8506,-1.9158,-2.0912,-2.1109,-2.1109,-2.1109,-2.1109,-2.1109,-2.1109,-2.1109,-2.1109,-2.1109,-2.1109,-2.1109,-2.1109,-2.1109,-2.1109,-2.1109,-2.1109,-2.1109,-2.1109,-2.1109,-2.1109,-2.1109,-2.1109,-2.1109,-2.1109,-2.1109,-2.1109,-2.1109,-2.1109,-2.1109,-2.1109,-2.1109,-2.1109,-2.1109,-2.1109,-2.1109,-2.1109,-2.1109,-2.1109,-2.1109,-2.1109,-2.1109,-2.1109,-2.1109,-2.1109,-2.1109,-2.1109,-2.1109,-2.1109,-2.1109,-2.1109,-2.1109,-2.1109,-2.1109,-2.1109,-2.1109,-2.1109,-2.1109,-2.1109,-2.1109,-2.1109,-2.1109,-2.1109,-2.1109,-2.1109,-2.1109,-2.1109,-2.1109,-2.1109,-2.1109,-2.1109,-2.1109,-2.1109,-2.1109,-2.1109,-2.1109,-2.1109,-2.1109,-2.1109,-2.1109,-2.1109,-2.1109,-2.1109,-2.1109,-2.1109,-2.1109,-2.1109,-2.1109,-2.1109,-2.1109,-2.1109,-1.2511,0.0,0.0,0.0,0.0,0.0,-2.0334,-2.0715,-2.0795,-2.1056,0.0,-2.0474,-2.1009,-1.9206,-1.7836,-1.8175,-1.6953,-1.6431,-1.8052,-1.8378,-1.9158,-2.0912,-2.1109,-2.1109,-2.1109,-2.1109,-2.1109,-2.1109,-2.1109,-2.1109,-2.1109,-2.1109,-2.1109,-2.1109,-2.1109,-2.1109,-2.1109,-2.1109,-2.1109,-2.1109,-2.1109,-2.1109,-2.1109,-2.1109,-2.1109,-2.1109,-2.1109,-2.1109,-2.1109,-2.1109,-2.1109,-2.1109,-2.1109,-2.1109,-2.1109,-2.1109,-2.1109,-2.1109,-2.1109,-2.1109,-2.1109,-2.1109,-2.1109,-2.1109,-2.1109,-2.1109,-2.1109,-2.1109,-2.1109,-2.1109,-2.1109,-2.1109,-2.1109,-2.1109,-2.1109,-2.1109,-2.1109,-2.1109,-2.1109,-2.1109,-2.1109,-2.1109,-2.1109,-2.1109,-2.1109,-2.1109,-2.1109,-2.1109,-2.1109,-2.1109,-2.1109,-2.1109,-2.1109,-2.1109,-2.1109,-2.1109,-2.1109,-2.1109,-2.1109,-2.1109,-2.1109,-2.1109,-2.1109,-2.1109,-2.1109,-2.1109,-2.1109,-2.1109,-2.1109,-2.1109,-2.1109,-2.1109,0.0,-1.3283,0.0,0.0,0.0,0.0,0.0,-2.1015,-2.1036,-2.1096,-2.1009,-2.0962,-2.1089,-1.958,-1.7926,-1.6673,-1.6108,-1.6043,-1.6431,-1.7661,-1.9158,-2.0912,-2.1109,-2.1109,-2.1109,-2.1109,-2.1109,-2.1109,-2.1109,-2.1109,-2.1109,-2.1109,-2.1109,-2.1109,-2.1109,-2.1109,-2.1109,-2.1109,-2.1109,-2.1109,-2.1109,-2.1109,-2.1109,-2.1109,-2.1109,-2.1109,-2.1109,-2.1109,-2.1109,-2.1109,-2.1109,-2.1109,-2.1109,-2.1109,-2.1109,-2.1109,-2.1109,-2.1109,-2.1109,-2.1109,-2.1109,-2.1109,-2.1109,-2.1109,-2.1109,-2.1109,-2.1109,-2.1109,-2.1109,-2.1109,-2.1109,-2.1109,-2.1109,-2.1109,-2.1109,-2.1109,-2.1109,-2.1109,-2.1109,-2.1109,-2.1109,-2.1109,-2.1109,-2.1109,-2.1109,-2.1109,-2.1109,-2.1109,-2.1109,-2.1109,-2.1109,-2.1109,-2.1109,-2.1109,-2.1109,-2.1109,-2.1109,-2.1109,-2.1109,-2.1109,-2.1109,-2.1109,-2.1109,-2.1109,-2.1109,-2.1109,-2.1109,-2.1109,-2.1109,-2.1109,-2.1109,-2.1109,0.0,0.0,0.0,0.0,0.0,0.0,0.0,0.0,0.0,-2.1109,-2.1109,-2.0849,-1.9998,-1.8442,-1.6695,-1.4944,-1.4684,-1.4944,-1.5784,-1.7404,-1.9158,-2.0912,-2.1109,-2.1109,-2.1109,-2.1109,-2.1109,-2.1109,-2.1109,-2.1109,-2.1109,-2.1109,-2.1109,-2.1109,-2.1109,-2.1109,-2.1109,-2.1109,-2.1109,-2.1109,-2.1109,-2.1109,-2.1109,-2.1109,-2.1109,-2.1109,-2.1109,-2.1109,-2.1109,-2.1109,-2.1109,-2.1109,-2.1109,-2.1109,-2.1109,-2.1109,-2.1109,-2.1109,-2.1109,-2.1109,-2.1109,-2.1109,-2.1109,-2.1109,-2.1109,-2.1109,-2.1109,-2.1109,-2.1109,-2.1109,-2.1109,-2.1109,-2.1109,-2.1109,-2.1109,-2.1109,-2.1109,-2.1109,-2.1109,-2.1109,-2.1109,-2.1109,-2.1109,-2.1109,-2.1109,-2.1109,-2.1109,-2.1109,-2.1109,-2.1109,-2.1109,-2.1109,-2.1109,-2.1109,-2.1109,-2.1109,-2.1109,-2.1109,-2.1109,-2.1109,-2.1109,-2.1109,-2.1109,-2.1109,-2.1109,-2.1109,-2.1109,-2.1109,-2.1109,-2.1109,-2.1109,-2.1109,0.0,0.0,0.0,0.0,0.0,0.0,0.0,0.0,0.0,0.0,0.0,-2.0589,-1.8832,-1.7082,-1.5329,-1.3582,-1.3325,-1.3905,-1.5659,-1.7404,-1.9158,-2.0912,-2.1109,-2.1109,-2.1109,-2.1109,-2.1109,-2.1109,-2.1109,-2.1109,-2.1109,-2.1109,-2.1109,-2.1109,-2.1109,-2.1109,-2.1109,-2.1109,-2.1109,-2.1109,-2.1109,-2.1109,-2.1109,-2.1109,-2.1109,-2.1109,-2.1109,-2.1109,-2.1109,-2.1109,-2.1109,-2.1109,-2.1109,-2.1109,-2.1109,-2.1109,-2.1109,-2.1109,-2.1109,-2.1109,-2.1109,-2.1109,-2.1109,-2.1109,-2.1109,-2.1109,-2.1109,-2.1109,-2.1109,-2.1109,-2.1109,-2.1109,-2.1109,-2.1109,-2.1109,-2.1109,-2.1109,-2.1109,-2.1109,-2.1109,-2.1109,-2.1109,-2.1109,-2.1109,-2.1109,-2.1109,-2.1109,-2.1109,-2.1109,-2.1109,-2.1109,-2.1109,-2.1109,-2.1109,-2.1109,-2.1109,-2.1109,-2.1109,-2.1109,-2.1109,-2.1109,-2.1109,-2.1109,-2.1109,-2.1109,-2.1109,-2.1109,-2.1109,-2.1109,-2.1109,-2.1109,-2.1109,0.0,0.0,0.0,0.0,0.0,0.0,0.0,0.0,0.0,0.0,0.0,0.0,-1.8832,-1.7082,-1.5329,-1.3582,-1.3325,-1.3905,-1.5659,-1.7404,-1.9158,-2.0912,-2.1109,-2.1109,-2.1109,-2.1109,-2.1109,-2.1109,-2.1109,-2.1109,-2.1109,-2.1109,-2.1109,-2.1109,-2.1109,-2.1109,-2.1109,-2.1109,-2.1109,-2.1109,-2.1109,-2.1109,-2.1109,-2.1109,-2.1109,-2.1109,-2.1109,-2.1109,-2.1109,-2.1109,-2.1109,-2.1109,-2.1109,-2.1109,-2.1109,-2.1109,-2.1109,-2.1109,-2.1109,-2.1109,-2.1109,-2.1109,-2.1109,-2.1109,-2.1109,-2.1109,-2.1109,-2.1109,-2.1109,-2.1109,-2.1109,-2.1109,-2.1109,-2.1109,-2.1109,-2.1109,-2.1109,-2.1109,-2.1109,-2.1109,-2.1109,-2.1109,-2.1109,-2.1109,-2.1109,-2.1109,-2.1109,-2.1109,-2.1109,-2.1109,-2.1109,-2.1109,-2.1109,-2.1109,-2.1109,-2.1109,-2.1109,-2.1109,-2.1109,-2.1109,-2.1109,-2.1109,-2.1109,-2.1109,-2.1109,-2.1109,-2.1109,-2.1109,-2.1109,-2.1109,-2.1109,-2.1109,0.0,0.0,0.0,0.0,0.0,0.0,0.0,0.0,0.0,0.0,0.0,0.0,0.0,0.0,-1.3844,-1.2153,-1.2672,-1.3582,-1.4362,-1.6754,-1.8768,-1.9546,-2.0526,-2.1109,-2.1109,-2.1109,-2.1109,-2.1109,-2.1109,-2.1109,-2.1109,-2.1109,-2.1109,-2.1109,-2.1109,-2.1109,-2.1109,-2.1109,-2.1109,-2.1109,-2.1109,-2.1109,-2.1109,-2.1109,-2.1109,-2.1109,-2.1109,-2.1109,-2.1109,-2.1109,-2.1109,-2.1109,-2.1109,-2.1109,-2.1109,-2.1109,-2.1109,-2.1109,-2.1109,-2.1109,-2.1109,-2.1109,-2.1109,-2.1109,-2.1109,-2.1109,-2.1109,-2.1109,-2.1109,-2.1109,-2.1109,-2.1109,-2.1109,-2.1109,-2.1109,-2.1109,-2.1109,-2.1109,-2.1109,-2.1109,-2.1109,-2.1109,-2.1109,-2.1109,-2.1109,-2.1109,-2.1109,-2.1109,-2.1109,-2.1109,-2.1109,-2.1109,-2.1109,-2.1109,-2.1109,-2.1109,-2.1109,-2.1109,-2.1109,-2.1109,-2.1109,-2.1109,-2.1109,-2.1109,-2.1109,-2.1109,-2.1109,-2.1109,-2.1109,-2.1109,-2.1109,-2.1109,0.0,0.0,0.0,0.0,0.0,0.0,0.0,0.0,0.0,0.0,0.0,0.0,0.0,0.0,0.0,-1.0975,-1.2153,-1.3451,-1.3905,-1.6565,-1.864,-1.9094,-2.0329,-2.1109,-2.1109,-2.1109,-2.1109,-2.1109,-2.1109,-2.1109,-2.1109,-2.1109,-2.1109,-2.1109,-2.1109,-2.1109,-2.1109,-2.1109,-2.1109,-2.1109,-2.1109,-2.1109,-2.1109,-2.1109,-2.1109,-2.1109,-2.1109,-2.1109,-2.1109,-2.1109,-2.1109,-2.1109,-2.1109,-2.1109,-2.1109,-2.1109,-2.1109,-2.1109,-2.1109,-2.1109,-2.1109,-2.1109,-2.1109,-2.1109,-2.1109,-2.1109,-2.1109,-2.1109,-2.1109,-2.1109,-2.1109,-2.1109,-2.1109,-2.1109,-2.1109,-2.0976,-2.0519,-2.0456,-2.0329,-1.9871,-2.0132,-2.0456,-2.0456,-2.0786,-2.1109,-2.1109,-2.1109,-2.1109,-2.1109,-2.1109,-2.1109,-2.1109,-2.1109,-2.1109,-2.1109,-2.1109,-2.1109,-2.1109,-2.1109,-2.1109,-2.1109,-2.1109,-2.1109,-2.1109,-2.1109,-2.1109,-2.1109,-2.1109,-2.1109,-2.1109,-2.1109,-2.1109,0.0,0.0,0.0,0.0,0.0,0.0,0.0,0.0,0.0,0.0,0.0,0.0,0.0,0.0,0.0,0.0,0.0,-1.3905,-1.5524,-1.7339,-1.9088,-2.0786,-2.1039,-2.1109,-2.1109,-2.1109,-2.1109,-2.1109,-2.1109,-2.1109,-2.1109,-2.1109,-2.1109,-2.1109,-2.1109,-2.1109,-2.1109,-2.1109,-2.1109,-2.1109,-2.1109,-2.1109,-2.1109,-2.1109,-2.1109,-2.1109,-2.1109,-2.1109,-2.1109,-2.1109,-2.1109,-2.1109,-2.1109,-2.1109,-2.1109,-2.1109,-2.1109,-2.1109,-2.1109,-2.1109,-2.1109,-2.1109,-2.1109,-2.1109,-2.1109,-2.1109,-2.1109,-2.1109,-2.1109,-2.1109,-2.1109,-2.1109,-2.1109,-2.1109,-2.1109,-2.0652,-1.896,-1.8634,-1.8122,-1.6496,-1.7468,-1.8634,-1.8634,-1.9998,-2.1109,-2.1109,-2.1109,-2.1109,-2.1109,-2.1109,-2.1109,-2.1109,-2.1109,-2.1109,-2.1109,-2.1109,-2.1109,-2.1109,-2.1109,-2.1109,-2.1109,-2.1109,-2.1109,-2.1109,-2.1109,-2.1109,-2.1109,-2.1109,-2.1109,-2.1109,-2.1109,-2.1109,0.0,0.0,0.0,0.0,0.0,0.0,0.0,0.0,0.0,0.0,0.0,0.0,0.0,0.0,0.0,0.0,0.0,0.0,-1.3784,-1.6186,-1.8143,-1.8771,-1.985,-2.0548,-2.0548,-1.9658,-1.9466,-2.0418,-1.9596,-1.9466,-2.048,-2.0728,-2.0828,-2.0828,-2.1009,-2.1109,-2.1109,-2.1109,-2.1109,-2.1109,-2.1109,-2.1109,-2.1109,-2.1109,-2.1109,-2.1109,-2.1109,-2.1109,-2.1109,-2.1109,-2.1109,-2.1109,-2.1109,-2.1109,-2.1109,-2.1109,-2.1109,-2.1109,-2.1109,-2.1109,-2.1109,-2.1109,-2.1109,-2.1109,-2.1109,-2.1109,-2.1109,-2.1109,-2.1109,-2.1109,-2.1109,-2.1109,-2.0849,-1.968,-2.0265,-2.0329,-1.7468,-1.7731,-1.8314,-1.7667,-1.7146,-1.7211,-1.8314,-1.9024,-1.9807,-2.0912,-2.1109,-2.1109,-2.1109,-2.1109,-2.1109,-2.1109,-2.1109,-2.1109,-2.1109,-2.1109,-2.1109,-2.1109,-2.1109,-2.1109,-2.1109,-2.1109,-2.1109,-2.1109,-2.1109,-2.1109,-2.1109,-2.1109,-2.1109,-2.1109,-2.1109,-2.1109,-0.6255,0.0,0.0,0.0,0.0,0.0,0.0,0.0,0.0,0.0,0.0,0.0,0.0,0.0,0.0,0.0,0.0,0.0,0.0,-1.6433,-1.849,-1.849,-1.9485,-1.9985,-1.9485,-1.8484,-1.8294,-1.9357,-1.8484,0.0,-2.0106,-2.0421,-2.0528,-2.0528,-2.0808,-2.0962,-2.0962,-2.1062,-2.1109,-2.1109,-2.1109,-2.1109,-2.1109,-2.1109,-2.1109,-2.1109,-2.1109,-2.1109,-2.1109,-2.1109,-2.1109,-2.1109,-2.1109,-2.1109,-2.1109,-2.1109,-2.1109,-2.1109,-2.1109,-2.1109,-2.1109,-2.1109,-2.1109,-2.1109,-2.1109,-2.1109,-2.1109,-2.1109,-2.1109,-2.1109,-2.1109,-2.1109,-2.0652,-1.8896,-1.9349,-1.9419,-1.6496,-1.6824,-1.7468,-1.6888,-1.5848,-1.5594,-1.7339,-1.8116,-1.9094,-2.0849,-2.1109,-2.1109,-2.1109,-2.1109,-2.1109,-2.1109,-2.1109,-2.1109,-2.1109,-2.1109,-2.1109,-2.1109,-2.1109,-2.1109,-2.1109,-2.1109,-2.1109,-2.1109,-2.1109,-2.1109,-2.1109,-2.1109,-2.1109,-2.1109,-2.1109,-2.1109,0.0,0.0,0.0,0.0,0.0,0.0,0.0,0.0,0.0,0.0,0.0,0.0,0.0,0.0,0.0,0.0,0.0,0.0,0.0,0.0,-2.0086,-2.0086,-2.0086,-1.952,-1.7958,-1.7775,-1.7775,-1.7897,-1.7836,-1.8521,-2.0079,-2.0153,-2.0167,-2.0173,-2.0514,-2.0661,-2.0661,-2.0942,-2.1089,-2.1096,-2.1096,-2.1102,-2.1109,-2.1109,-2.1109,-2.1109,-2.1109,-2.1109,-2.1109,-2.1109,-2.1109,-2.1109,-2.1109,-2.1109,-2.1109,-2.1109,-2.1109,-2.1109,-2.1109,-2.1109,-2.1109,-2.1109,-2.1109,-2.1109,-2.1109,-2.1109,-2.1109,-2.1109,-2.1109,-2.1109,-2.1109,-2.1109,-2.0652,-1.8832,-1.8442,-1.7988,-1.6242,-1.5848,-1.5334,-1.3648,-1.3259,-1.3779,-1.5589,-1.7275,-1.903,-2.0849,-2.1109,-2.1109,-2.1109,-2.1109,-2.1109,-2.1109,-2.1109,-2.1109,-2.1109,-2.1109,-2.1109,-2.1109,-2.1109,-2.1109,-2.1109,-2.1109,-2.1109,-2.1109,-2.1109,-2.1109,-2.1109,-2.1109,-2.1109,-2.1109,-2.1109,-2.1109,-0.4748,0.0,0.0,0.0,0.0,0.0,0.0,0.0,0.0,0.0,0.0,0.0,0.0,0.0,0.0,0.0,0.0,0.0,0.0,0.0,0.0,-1.7903,-1.7903,-1.7244,-1.5687,-1.4475,-1.4711,0.0,-1.616,-1.6709,-1.9482,-1.9806,-2.0013,-2.0167,-2.0314,-2.0354,-2.0354,-2.0434,-2.0581,-2.0795,-2.0795,-2.0909,-2.1109,-2.1109,-2.1109,-2.1109,-2.1109,-2.1109,-2.1109,-2.1109,-2.1109,-2.1109,-2.1109,-2.1109,-2.1109,-2.1109,-2.1109,-2.1109,-2.1109,-2.1109,-2.1109,-2.1109,-2.1109,-2.1109,-2.1109,-2.1109,-2.1109,-2.1109,-2.1109,-2.1109,-2.1109,-2.1109,-2.0329,-1.7339,-1.7602,-1.7667,-1.4684,-1.4036,-1.3905,-1.3386,-1.2281,-1.2347,-1.5399,-1.6302,-1.7661,-2.0652,-2.1109,-2.1109,-2.1109,-2.1109,-2.1109,-2.1109,-2.1109,-2.1109,-2.1109,-2.1109,-2.1109,-2.1109,-2.1109,-2.1109,-2.1109,-2.1109,-2.1109,-2.1109,-2.1109,-2.1109,-2.1109,-2.1109,-2.1109,-2.1109,-2.1109,-2.1109,-0.5145,-0.5192,-0.5348,-0.5454,0.0,0.0,0.0,-0.8858,0.0,0.0,0.0,0.0,0.0,0.0,0.0,0.0,0.0,0.0,0.0,0.0,0.0,0.0,-1.6738,-1.6157,-1.457,-1.3058,-1.2988,-1.4886,-1.4777,-1.6031,-1.9249,-1.892,-1.9023,-1.9867,-1.9987,-2.0054,-2.0054,-2.0113,-2.0321,-2.0494,-2.0494,-2.0648,-2.0929,-2.0929,-2.0995,-2.1109,-2.1109,-2.1109,-2.1109,-2.1109,-2.1109,-2.1109,-2.1109,-2.1109,-2.1109,-2.1109,-2.1109,-2.1109,-2.1109,-2.1109,-2.1109,-2.1109,-2.1109,-2.1109,-2.1109,-2.1109,-2.1109,-2.1109,-2.1109,-2.0912,-2.0195,-2.0005,-1.9158,-1.5654,-1.5589,-1.5589,-1.2804,-1.2219,-1.2413,-1.3128,-1.1894,-1.1567,-1.4362,-1.4814,-1.5978,-1.9483,-2.0005,-2.0265,-2.0982,-2.1109,-2.1109,-2.1109,-2.1109,-2.1109,-2.1109,-2.1109,-2.1109,-2.1109,-2.1109,-2.1109,-2.1109,-2.1109,-2.1109,-2.1109,-2.1109,-2.1109,-2.1109,-2.1109,-2.1109,-2.1109,-2.1109,-2.1109,-0.5766,-0.5701,-0.58,-0.6187,-0.6341,0.0,-0.8205,-0.7801,-0.7526,0.0,0.0,0.0,0.0,0.0,0.0,0.0,0.0,0.0,0.0,0.0,0.0,0.0,-1.6222,-1.5604,-1.4041,-1.2699,-1.1974,-1.2154,-1.3658,-1.581,-1.8661,-1.767,-1.7683,-1.9068,-1.9554,-1.9753,-1.9753,-2.0007,-2.0154,-2.0187,-2.0187,-2.0341,-2.0628,-2.0498,-2.0532,-2.0796,-2.0803,-2.0816,-2.0849,-2.1046,-2.1109,-2.1109,-2.1109,-2.1109,-2.1109,-2.1109,-2.1109,-2.1109,-2.1109,-2.1109,-2.1109,-2.1109,-2.1109,-2.1109,-2.1109,-2.1109,-2.1109,-2.1109,-2.1109,-2.0716,-1.896,-1.8506,-1.7602,-1.4101,-1.3325,-1.2804,-1.1111,-1.0721,-1.1178,-1.2738,-1.1762,-1.124,-1.2997,-1.3325,-1.4488,-1.7988,-1.8506,-1.9158,-2.0849,-2.1109,-2.1109,-2.1109,-2.1109,-2.1109,-2.1109,-2.1109,-2.1109,-2.1109,-2.1109,-2.1109,-2.1109,-2.1109,-2.1109,-2.1109,-2.1109,-2.1109,-2.1109,-2.1109,-2.1109,-2.1109,-2.1109,-2.1109,-0.6349,-0.639,-0.6417,-0.6142,-0.6207,0.0,-0.6273,-0.6165,-0.6264,0.0,0.0,0.0,0.0,0.0,0.0,0.0,0.0,0.0,0.0,0.0,0.0,0.0,0.0,-1.3764,-1.2161,-1.0771,-1.0507,-1.1773,-1.348,-1.4739,-1.532,-1.6383,-1.7144,-1.7449,-1.8758,-1.9511,-1.9511,-1.9506,-1.9653,-1.9887,-1.9887,-2.004,-2.026,-1.8999,-1.8524,-1.871,-1.8767,-1.8894,-1.9094,-2.0526,-2.1109,-2.1109,-2.1109,-2.1109,-2.1109,-2.1109,-2.1109,-2.1109,-2.1109,-2.1109,-2.1109,-2.1109,-2.1109,-2.1109,-2.1109,-2.1109,-2.1109,-2.1109,-2.1109,-2.0716,-1.896,-1.8506,-1.7602,-1.4101,-1.3325,-1.2804,-1.1111,-1.0721,-1.0784,-1.1111,-1.0916,-1.124,-1.2997,-1.3325,-1.4488,-1.7988,-1.8506,-1.9158,-2.0849,-2.1109,-2.1109,-2.1109,-2.1109,-2.1109,-2.1109,-2.1109,-2.1109,-2.1109,-2.1109,-2.1109,-2.1109,-2.1109,-2.1109,-2.1109,-2.1109,-2.1109,-2.1109,-2.1109,-2.1109,-2.1109,-2.1109,-2.1109,-0.698,-0.6922,-0.6822,-0.66,-0.642,0.0,0.0,-0.5911,-0.5952,-0.6485,0.0,0.0,0.0,0.0,0.0,0.0,0.0,0.0,0.0,0.0,0.0,0.0,0.0,-1.3037,-1.2312,-1.0459,-0.9982,-1.1663,-1.1863,-1.2605,-1.4151,-1.5177,-1.607,-1.6826,-1.7732,-1.8221,-1.8221,-1.8221,-1.829,-1.8429,-1.922,-1.9305,-1.8778,-1.7973,-1.7317,-1.6879,-1.7872,-1.8315,-1.8514,-2.0334,-2.1109,-2.1109,-2.1109,-2.1109,-2.1109,-2.1109,-2.1109,-2.1109,-2.1109,-2.1109,-2.1109,-2.1109,-2.1109,-2.1109,-2.1109,-2.1109,-2.1109,-2.1109,-2.0456,-1.9419,-1.7667,-1.656,-1.5269,-1.2606,-1.2022,-1.1762,-1.0916,-1.0721,-1.0721,-1.0721,-1.0721,-1.0982,-1.1828,-1.2738,-1.4166,-1.6824,-1.7923,-1.9158,-2.0849,-2.1109,-2.1109,-2.1109,-2.1109,-2.1109,-2.1109,-2.1109,-2.1109,-2.1109,-2.1109,-2.1109,-2.1109,-2.1109,-2.1109,-2.1109,-2.1109,-2.1109,-2.1109,-2.1109,-2.1109,-2.1109,-2.1109,-2.1109,-0.7573,-0.7431,-0.7277,-0.7132,-0.6848,-0.6569,0.0,0.0,0.0,-0.6603,0.0,0.0,0.0,0.0,0.0,0.0,0.0,0.0,0.0,0.0,0.0,0.0,0.0,-1.2613,-1.253,-1.0315,-0.9532,-1.1041,-0.9911,-1.0322,-1.2946,-1.3881,-1.4908,-1.6218,-1.6663,-1.6915,-1.7026,-1.7026,-1.7026,-1.7026,-1.8642,-1.864,-1.7333,-1.6974,-1.6139,-1.4963,-1.6507,-1.7428,-1.7867,-1.9745,-2.0717,-2.1029,-2.1089,-2.1109,-2.1109,-2.1109,-2.1109,-2.1109,-2.1109,-2.1109,-2.1109,-2.1109,-2.1109,-2.1109,-2.1109,-2.1109,-2.1046,-2.0716,-1.961,-1.7988,-1.5913,-1.4362,-1.2869,-1.1111,-1.0721,-1.0721,-1.0721,-1.0721,-1.0721,-1.0721,-1.0982,-1.1178,-1.1178,-1.2347,-1.4036,-1.6108,-1.7597,-1.9158,-2.0849,-2.1109,-2.1109,-2.1109,-2.1109,-2.1109,-2.1109,-2.1109,-2.1109,-2.1109,-2.1109,-2.1109,-2.1109,-2.1109,-2.1109,-2.1109,-2.1109,-2.1109,-2.1109,-2.0779,-2.0786,-2.1109,-2.1109,-2.1109,-0.8011,-0.8052,-0.798,-0.7264,-0.739,-0.736,-0.6279,0.0,-0.6308,-0.5993,0.0,0.0,0.0,0.0,0.0,0.0,0.0,0.0,0.0,0.0,0.0,0.0,0.0,-1.1851,-1.082,-0.9049,-0.8237,-0.8814,-0.857,-0.8726,-0.9459,-1.2341,-1.4173,-1.4661,-1.5913,-1.6675,-1.702,-1.7026,-1.7026,-1.7026,-1.8642,-1.8544,-1.7009,-1.5591,-1.4159,-1.2776,-1.3093,-1.4185,-1.5789,-1.7561,-1.9217,-2.0755,-2.1009,-2.1109,-2.1109,-2.1109,-2.1109,-2.1109,-2.1109,-2.1109,-2.1109,-2.1109,-2.1109,-2.1109,-2.1109,-2.1109,-2.0786,-1.9221,-1.864,-1.7725,-1.4423,-1.3451,-1.2869,-1.1111,-1.0721,-1.0721,-1.0721,-1.0721,-1.0721,-1.0721,-1.1956,-1.2997,-1.2997,-1.3193,-1.4428,-1.7731,-1.8378,-1.9158,-2.0849,-2.1109,-2.1109,-2.1109,-2.1109,-2.1109,-2.1109,-2.1109,-2.1109,-2.1109,-2.1109,-2.1109,-2.1109,-2.1109,-2.1109,-2.1109,-2.1109,-2.1109,-2.1109,-1.9546,-1.961,-2.1109,-2.1109,-2.1109,-0.8032,-0.8214,-0.8235,-0.757,-0.755,-0.7465,-0.6614,-0.6383,-0.6385,-0.6325,0.0,0.0,0.0,0.0,0.0,0.0,-0.7861,0.0,0.0,0.0,0.0,0.0,0.0,0.0,-0.8854,-0.8174,-0.7963,-0.8333,-0.8136,-0.8238,-0.8777,-1.1084,-1.2978,-1.4167,-1.4016,-1.4425,-1.5607,-1.4653,-1.4232,-1.4237,-1.6791,-1.7149,-1.5607,-1.4896,-1.3758,-1.2279,-1.2502,-1.3023,-1.39,-1.5757,-1.7493,-1.8995,-1.8246,-1.8631,-1.961,-1.961,-1.961,-1.961,-1.961,-2.0265,-2.1109,-2.1109,-2.1109,-2.1109,-2.1109,-2.0392,-1.9419,-1.8698,-1.7017,-1.5139,-1.3713,-1.2545,-1.1633,-1.085,-1.0721,-1.0721,-1.0721,-1.0721,-1.0721,-1.0721,-1.1306,-1.2413,-1.4493,-1.5659,-1.6818,-1.825,-1.9355,-2.0259,-2.0982,-2.1109,-2.1109,-2.1109,-2.0195,-1.961,-1.961,-1.864,-1.8506,-1.9546,-1.961,-2.0068,-2.1046,-1.9158,-1.857,-1.9546,-1.857,-1.8052,-1.8052,-1.7339,-1.7339,-1.8052,-1.8052,-1.864,-0.8177,-0.8319,-0.8374,-0.7651,-0.7506,-0.737,-0.6725,-0.6508,-0.6481,-0.661,-0.6474,0.0,0.0,0.0,0.0,0.0,0.0,-0.7948,0.0,0.0,0.0,0.0,0.0,0.0,0.0,-0.7421,-0.7563,-0.804,-0.7702,-0.7804,-0.8489,-1.0186,-1.1819,-1.3277,-1.236,-1.2529,-1.3852,-1.2782,-1.2213,-1.2213,-1.5009,-1.5488,-1.3944,-1.3944,-1.3048,-1.1563,-1.1752,-1.211,-1.2603,-1.4033,-1.5606,-1.7032,-1.5898,-1.6108,-1.7036,-1.7552,-1.7795,-1.7859,-1.8314,-1.961,-2.1109,-2.1109,-2.0786,-2.0392,-2.0392,-1.9158,-1.7667,-1.7211,-1.5265,-1.3193,-1.2738,-1.1633,-1.0721,-1.0721,-1.0721,-1.0721,-1.0721,-1.0721,-1.0721,-1.0721,-1.1111,-1.2219,-1.4749,-1.6625,-1.8116,-1.9094,-2.0265,-2.1109,-2.1109,-2.1109,-2.1109,-2.1109,-1.9546,-1.8506,-1.8506,-1.6888,-1.663,-1.8378,-1.8506,-1.9094,-2.0329,-1.7988,-1.6953,-1.7795,-1.6565,-1.5913,-1.5913,-1.5399,-1.5204,-1.5204,-1.5654,-1.6565,-0.8473,-0.8479,-0.8455,-0.7368,-0.7268,-0.7228,-0.6484,-0.6603,-0.6824,-0.6539,-0.6814,-0.7021,-0.6896,-0.6664,-0.6453,-0.6313,0.0,0.0,0.0,0.0,0.0,0.0,0.0,0.0,0.0,-0.6644,-0.6654,0.0,-0.6987,-0.7122,-0.7965,-0.9753,-1.0936,-1.1374,-1.1469,-1.1694,-1.2055,-1.2184,-1.2213,-1.2213,-1.3885,-1.3825,-1.2273,-1.2273,-1.1378,-0.9879,-0.9886,-1.0789,-1.2225,-1.229,-1.3421,-1.5064,-1.5069,-1.4228,-1.3339,-1.5248,-1.5978,-1.6237,-1.7923,-1.961,-2.1109,-2.1109,-1.9941,-1.857,-1.857,-1.7339,-1.5654,-1.397,-1.339,-1.2931,-1.124,-1.0721,-1.0721,-1.0721,-1.0721,-1.0721,-1.0721,-1.0721,-1.0721,-1.0721,-1.2088,-1.3259,-1.3386,-1.4814,-1.7146,-2.0526,-2.1046,-2.1109,-2.1109,-2.1109,-2.1109,-2.1109,-1.9546,-1.8506,-1.8506,-1.6888,-1.663,-1.8378,-1.8506,-1.8506,-1.857,-1.8506,-1.7667,-1.6043,-1.5913,-1.5913,-1.5913,-1.4232,-1.3386,-1.3386,-1.5139,-1.5913,-0.8767,-0.893,-0.8927,-0.7924,-0.7725,-0.7594,-0.6746,-0.6749,-0.6844,-0.6536,-0.6827,-0.7021,-0.682,-0.661,-0.6467,-0.6323,0.0,0.0,0.0,0.0,0.0,0.0,0.0,0.0,0.0,0.0,0.0,0.0,-0.6881,0.0,-0.7948,-0.8775,-0.9875,-1.1248,-1.0455,-1.0655,-1.1988,-1.1007,-1.0501,-1.066,-1.2213,-1.2753,-1.2213,-1.2213,-1.1916,-1.1318,-1.024,-1.0119,-1.06,-1.06,-1.1591,-1.3045,-1.2082,-1.2044,-1.2685,-1.3559,-1.3988,-1.4304,-1.6121,-1.7146,-1.7667,-1.7667,-1.7275,-1.6754,-1.6754,-1.5589,-1.4036,-1.3451,-1.2479,-1.1439,-1.085,-1.0721,-1.0721,-1.0721,-1.0721,-1.0721,-1.0721,-1.0721,-1.0721,-1.0721,-1.1178,-1.1956,-1.3128,-1.3779,-1.5329,-1.8832,-1.9349,-1.9807,-2.0976,-2.1109,-2.0652,-1.9483,-1.7795,-1.6302,-1.5139,-1.4488,-1.4944,-1.6689,-1.5719,-1.6108,-1.8378,-1.52,-1.3582,-1.4166,-1.3062,-1.2479,-1.2479,-1.1894,-1.1567,-1.1567,-1.2153,-1.3062,-0.9059,-0.9195,-0.9191,-0.8394,-0.8197,-0.7977,-0.7132,-0.7139,-0.7221,-0.6865,-0.7065,-0.7233,-0.7193,-0.6881,-0.6586,0.0,0.0,0.0,0.0,-0.5019,0.0,0.0,0.0,0.0,0.0,0.0,-0.6289,-0.6668,-0.6695,0.0,0.0,-0.8214,-0.8986,-1.0254,-0.9568,-0.9778,-1.1082,-1.0103,-0.968,-0.9822,-1.0838,-1.1378,-1.1378,-1.1378,-1.1378,-1.1318,-1.024,-0.9822,-0.9822,-0.9822,-1.0422,-1.1269,-1.0292,-1.0577,-1.1517,-1.1877,-1.2408,-1.3225,-1.4438,-1.5282,-1.5807,-1.5888,-1.5459,-1.5009,-1.5009,-1.3779,-1.2347,-1.2347,-1.1567,-1.0721,-1.0721,-1.0721,-1.0721,-1.0721,-1.0721,-1.0721,-1.0721,-1.0721,-1.0721,-1.0721,-1.0721,-1.1045,-1.2153,-1.2347,-1.3774,-1.7859,-1.8506,-1.9158,-2.0849,-2.0589,-1.9737,-1.864,-1.6372,-1.4297,-1.2545,-1.2347,-1.3128,-1.4879,-1.3905,-1.4297,-1.656,-1.3386,-1.1828,-1.2347,-1.124,-1.0721,-1.0721,-1.0721,-1.0721,-1.0721,-1.0721,-1.1306]}]]